<?xml version="1.0" encoding="UTF-8" standalone="no" ?>
<gpx xmlns="http://www.topografix.com/GPX/1/1" xmlns:xsi="http://www.w3.org/2001/XMLSchema-instance" xsi:schemaLocation="http://www.topografix.com/GPX/1/1 http://www.topografix.com/GPX/1/1/gpx.xsd" version="1.1" creator="VisuGPX - https://www.visugpx.com">
  <metadata>
    <name>GR 70 Stevenson E7 Gare de Cassagnas - St Etienne Vallée francaise</name>
    <desc><![CDATA[GR 70 Stevenson E7 Gare de Cassagnas - St Etienne Vallée francaise]]></desc>
  </metadata>
  <trk>
    <name><![CDATA[2013-06-05 11:01:04 Chronomètre]]></name>
    <trkseg>
      <trkpt lat="44.27151" lon="3.73071">
        <ele>684.6</ele>
        <time>2013-06-05T09:01:04Z</time>
      </trkpt>
      <trkpt lat="44.27139" lon="3.73064">
        <ele>683.15</ele>
        <time>2013-06-05T09:01:16Z</time>
      </trkpt>
      <trkpt lat="44.27117" lon="3.73043">
        <ele>682.67</ele>
        <time>2013-06-05T09:01:39Z</time>
      </trkpt>
      <trkpt lat="44.27119" lon="3.73046">
        <ele>682.67</ele>
        <time>2013-06-05T09:01:42Z</time>
      </trkpt>
      <trkpt lat="44.27119" lon="3.73047">
        <ele>682.67</ele>
        <time>2013-06-05T09:01:43Z</time>
      </trkpt>
      <trkpt lat="44.2713" lon="3.73069">
        <ele>683.15</ele>
        <time>2013-06-05T09:01:58Z</time>
      </trkpt>
      <trkpt lat="44.27123" lon="3.73084">
        <ele>683.15</ele>
        <time>2013-06-05T09:02:08Z</time>
      </trkpt>
      <trkpt lat="44.27116" lon="3.73098">
        <ele>684.6</ele>
        <time>2013-06-05T09:02:17Z</time>
      </trkpt>
      <trkpt lat="44.27101" lon="3.7312">
        <ele>686.04</ele>
        <time>2013-06-05T09:02:36Z</time>
      </trkpt>
      <trkpt lat="44.27084" lon="3.73146">
        <ele>687</ele>
        <time>2013-06-05T09:02:55Z</time>
      </trkpt>
      <trkpt lat="44.27075" lon="3.73164">
        <ele>685.56</ele>
        <time>2013-06-05T09:03:07Z</time>
      </trkpt>
      <trkpt lat="44.27058" lon="3.73199">
        <ele>686.04</ele>
        <time>2013-06-05T09:03:25Z</time>
      </trkpt>
      <trkpt lat="44.2705" lon="3.73226">
        <ele>686.04</ele>
        <time>2013-06-05T09:03:40Z</time>
      </trkpt>
      <trkpt lat="44.2705" lon="3.73229">
        <ele>686.04</ele>
        <time>2013-06-05T09:03:41Z</time>
      </trkpt>
      <trkpt lat="44.2705" lon="3.73239">
        <ele>686.52</ele>
        <time>2013-06-05T09:03:50Z</time>
      </trkpt>
      <trkpt lat="44.27051" lon="3.73261">
        <ele>687</ele>
        <time>2013-06-05T09:04:06Z</time>
      </trkpt>
      <trkpt lat="44.2705" lon="3.73286">
        <ele>687</ele>
        <time>2013-06-05T09:04:20Z</time>
      </trkpt>
      <trkpt lat="44.27048" lon="3.73309">
        <ele>687.96</ele>
        <time>2013-06-05T09:04:31Z</time>
      </trkpt>
      <trkpt lat="44.2705" lon="3.73336">
        <ele>688.44</ele>
        <time>2013-06-05T09:04:45Z</time>
      </trkpt>
      <trkpt lat="44.27051" lon="3.73361">
        <ele>689.4</ele>
        <time>2013-06-05T09:05:00Z</time>
      </trkpt>
      <trkpt lat="44.2705" lon="3.73374">
        <ele>689.4</ele>
        <time>2013-06-05T09:05:05Z</time>
      </trkpt>
      <trkpt lat="44.27047" lon="3.73387">
        <ele>689.4</ele>
        <time>2013-06-05T09:05:09Z</time>
      </trkpt>
      <trkpt lat="44.27041" lon="3.73415">
        <ele>689.88</ele>
        <time>2013-06-05T09:05:22Z</time>
      </trkpt>
      <trkpt lat="44.27041" lon="3.73419">
        <ele>689.88</ele>
        <time>2013-06-05T09:05:24Z</time>
      </trkpt>
      <trkpt lat="44.27032" lon="3.73446">
        <ele>690.36</ele>
        <time>2013-06-05T09:05:38Z</time>
      </trkpt>
      <trkpt lat="44.27019" lon="3.7346">
        <ele>690.84</ele>
        <time>2013-06-05T09:05:49Z</time>
      </trkpt>
      <trkpt lat="44.27018" lon="3.73471">
        <ele>691.33</ele>
        <time>2013-06-05T09:05:54Z</time>
      </trkpt>
      <trkpt lat="44.27016" lon="3.73474">
        <ele>691.33</ele>
        <time>2013-06-05T09:05:56Z</time>
      </trkpt>
      <trkpt lat="44.27005" lon="3.73482">
        <ele>691.33</ele>
        <time>2013-06-05T09:06:01Z</time>
      </trkpt>
      <trkpt lat="44.26998" lon="3.73488">
        <ele>691.33</ele>
        <time>2013-06-05T09:06:04Z</time>
      </trkpt>
      <trkpt lat="44.26995" lon="3.73495">
        <ele>692.29</ele>
        <time>2013-06-05T09:06:09Z</time>
      </trkpt>
      <trkpt lat="44.26974" lon="3.73537">
        <ele>692.77</ele>
        <time>2013-06-05T09:06:26Z</time>
      </trkpt>
      <trkpt lat="44.26976" lon="3.7357">
        <ele>692.77</ele>
        <time>2013-06-05T09:06:41Z</time>
      </trkpt>
      <trkpt lat="44.26981" lon="3.73596">
        <ele>693.73</ele>
        <time>2013-06-05T09:06:57Z</time>
      </trkpt>
      <trkpt lat="44.26985" lon="3.73622">
        <ele>694.21</ele>
        <time>2013-06-05T09:07:12Z</time>
      </trkpt>
      <trkpt lat="44.26987" lon="3.73636">
        <ele>694.21</ele>
        <time>2013-06-05T09:07:19Z</time>
      </trkpt>
      <trkpt lat="44.26985" lon="3.73668">
        <ele>695.65</ele>
        <time>2013-06-05T09:07:34Z</time>
      </trkpt>
      <trkpt lat="44.26987" lon="3.73675">
        <ele>695.65</ele>
        <time>2013-06-05T09:07:37Z</time>
      </trkpt>
      <trkpt lat="44.26982" lon="3.73707">
        <ele>696.13</ele>
        <time>2013-06-05T09:07:54Z</time>
      </trkpt>
      <trkpt lat="44.2698" lon="3.73713">
        <ele>696.61</ele>
        <time>2013-06-05T09:07:58Z</time>
      </trkpt>
      <trkpt lat="44.26983" lon="3.7373">
        <ele>697.09</ele>
        <time>2013-06-05T09:08:04Z</time>
      </trkpt>
      <trkpt lat="44.26979" lon="3.73733">
        <ele>697.09</ele>
        <time>2013-06-05T09:08:08Z</time>
      </trkpt>
      <trkpt lat="44.26965" lon="3.7375">
        <ele>697.09</ele>
        <time>2013-06-05T09:08:19Z</time>
      </trkpt>
      <trkpt lat="44.26957" lon="3.73771">
        <ele>698.05</ele>
        <time>2013-06-05T09:08:32Z</time>
      </trkpt>
      <trkpt lat="44.26944" lon="3.73783">
        <ele>699.02</ele>
        <time>2013-06-05T09:08:46Z</time>
      </trkpt>
      <trkpt lat="44.26943" lon="3.73784">
        <ele>698.53</ele>
        <time>2013-06-05T09:08:47Z</time>
      </trkpt>
      <trkpt lat="44.26925" lon="3.73795">
        <ele>699.5</ele>
        <time>2013-06-05T09:09:03Z</time>
      </trkpt>
      <trkpt lat="44.26908" lon="3.73798">
        <ele>699.98</ele>
        <time>2013-06-05T09:09:16Z</time>
      </trkpt>
      <trkpt lat="44.26889" lon="3.73797">
        <ele>700.46</ele>
        <time>2013-06-05T09:09:27Z</time>
      </trkpt>
      <trkpt lat="44.26858" lon="3.73802">
        <ele>701.42</ele>
        <time>2013-06-05T09:09:41Z</time>
      </trkpt>
      <trkpt lat="44.26838" lon="3.73799">
        <ele>701.42</ele>
        <time>2013-06-05T09:09:53Z</time>
      </trkpt>
      <trkpt lat="44.26814" lon="3.73783">
        <ele>701.9</ele>
        <time>2013-06-05T09:10:10Z</time>
      </trkpt>
      <trkpt lat="44.26791" lon="3.73761">
        <ele>703.34</ele>
        <time>2013-06-05T09:10:28Z</time>
      </trkpt>
      <trkpt lat="44.26765" lon="3.73745">
        <ele>703.82</ele>
        <time>2013-06-05T09:10:47Z</time>
      </trkpt>
      <trkpt lat="44.26737" lon="3.7374">
        <ele>704.78</ele>
        <time>2013-06-05T09:11:07Z</time>
      </trkpt>
      <trkpt lat="44.2672" lon="3.73743">
        <ele>704.78</ele>
        <time>2013-06-05T09:11:20Z</time>
      </trkpt>
      <trkpt lat="44.26716" lon="3.73743">
        <ele>705.26</ele>
        <time>2013-06-05T09:11:24Z</time>
      </trkpt>
      <trkpt lat="44.267" lon="3.73747">
        <ele>705.26</ele>
        <time>2013-06-05T09:11:35Z</time>
      </trkpt>
      <trkpt lat="44.26685" lon="3.73757">
        <ele>705.75</ele>
        <time>2013-06-05T09:11:46Z</time>
      </trkpt>
      <trkpt lat="44.26679" lon="3.7376">
        <ele>705.75</ele>
        <time>2013-06-05T09:11:51Z</time>
      </trkpt>
      <trkpt lat="44.26674" lon="3.73761">
        <ele>705.75</ele>
        <time>2013-06-05T09:11:55Z</time>
      </trkpt>
      <trkpt lat="44.26658" lon="3.73773">
        <ele>706.23</ele>
        <time>2013-06-05T09:12:08Z</time>
      </trkpt>
      <trkpt lat="44.26638" lon="3.73789">
        <ele>706.23</ele>
        <time>2013-06-05T09:12:21Z</time>
      </trkpt>
      <trkpt lat="44.26619" lon="3.73799">
        <ele>706.23</ele>
        <time>2013-06-05T09:12:33Z</time>
      </trkpt>
      <trkpt lat="44.26598" lon="3.73806">
        <ele>706.23</ele>
        <time>2013-06-05T09:12:46Z</time>
      </trkpt>
      <trkpt lat="44.26578" lon="3.73817">
        <ele>706.23</ele>
        <time>2013-06-05T09:13:01Z</time>
      </trkpt>
      <trkpt lat="44.26573" lon="3.73821">
        <ele>706.23</ele>
        <time>2013-06-05T09:13:04Z</time>
      </trkpt>
      <trkpt lat="44.26554" lon="3.73841">
        <ele>706.71</ele>
        <time>2013-06-05T09:13:20Z</time>
      </trkpt>
      <trkpt lat="44.26541" lon="3.73867">
        <ele>706.23</ele>
        <time>2013-06-05T09:13:33Z</time>
      </trkpt>
      <trkpt lat="44.26532" lon="3.73892">
        <ele>706.23</ele>
        <time>2013-06-05T09:13:48Z</time>
      </trkpt>
      <trkpt lat="44.26531" lon="3.73897">
        <ele>706.23</ele>
        <time>2013-06-05T09:13:51Z</time>
      </trkpt>
      <trkpt lat="44.26521" lon="3.73915">
        <ele>706.71</ele>
        <time>2013-06-05T09:14:04Z</time>
      </trkpt>
      <trkpt lat="44.26518" lon="3.73918">
        <ele>706.71</ele>
        <time>2013-06-05T09:14:07Z</time>
      </trkpt>
      <trkpt lat="44.26511" lon="3.73952">
        <ele>706.71</ele>
        <time>2013-06-05T09:14:25Z</time>
      </trkpt>
      <trkpt lat="44.2651" lon="3.73956">
        <ele>706.71</ele>
        <time>2013-06-05T09:14:27Z</time>
      </trkpt>
      <trkpt lat="44.26513" lon="3.73975">
        <ele>707.19</ele>
        <time>2013-06-05T09:14:38Z</time>
      </trkpt>
      <trkpt lat="44.26517" lon="3.73996">
        <ele>707.19</ele>
        <time>2013-06-05T09:14:51Z</time>
      </trkpt>
      <trkpt lat="44.2652" lon="3.74003">
        <ele>708.63</ele>
        <time>2013-06-05T09:14:55Z</time>
      </trkpt>
      <trkpt lat="44.26524" lon="3.74031">
        <ele>709.59</ele>
        <time>2013-06-05T09:15:09Z</time>
      </trkpt>
      <trkpt lat="44.26524" lon="3.74052">
        <ele>709.59</ele>
        <time>2013-06-05T09:15:21Z</time>
      </trkpt>
      <trkpt lat="44.2654" lon="3.7408">
        <ele>710.55</ele>
        <time>2013-06-05T09:15:34Z</time>
      </trkpt>
      <trkpt lat="44.26539" lon="3.74098">
        <ele>710.55</ele>
        <time>2013-06-05T09:15:44Z</time>
      </trkpt>
      <trkpt lat="44.26547" lon="3.74126">
        <ele>711.03</ele>
        <time>2013-06-05T09:16:00Z</time>
      </trkpt>
      <trkpt lat="44.26553" lon="3.74145">
        <ele>711.51</ele>
        <time>2013-06-05T09:16:12Z</time>
      </trkpt>
      <trkpt lat="44.26562" lon="3.74168">
        <ele>711.51</ele>
        <time>2013-06-05T09:16:24Z</time>
      </trkpt>
      <trkpt lat="44.26566" lon="3.74176">
        <ele>711.51</ele>
        <time>2013-06-05T09:16:29Z</time>
      </trkpt>
      <trkpt lat="44.26567" lon="3.7418">
        <ele>711.51</ele>
        <time>2013-06-05T09:16:31Z</time>
      </trkpt>
      <trkpt lat="44.26578" lon="3.74196">
        <ele>711.51</ele>
        <time>2013-06-05T09:16:42Z</time>
      </trkpt>
      <trkpt lat="44.2658" lon="3.74198">
        <ele>711.51</ele>
        <time>2013-06-05T09:16:44Z</time>
      </trkpt>
      <trkpt lat="44.26594" lon="3.74216">
        <ele>711.51</ele>
        <time>2013-06-05T09:16:57Z</time>
      </trkpt>
      <trkpt lat="44.26615" lon="3.74241">
        <ele>712.47</ele>
        <time>2013-06-05T09:17:11Z</time>
      </trkpt>
      <trkpt lat="44.26638" lon="3.74262">
        <ele>712.47</ele>
        <time>2013-06-05T09:17:19Z</time>
      </trkpt>
      <trkpt lat="44.26656" lon="3.74276">
        <ele>712.95</ele>
        <time>2013-06-05T09:17:29Z</time>
      </trkpt>
      <trkpt lat="44.26678" lon="3.74305">
        <ele>712.95</ele>
        <time>2013-06-05T09:17:47Z</time>
      </trkpt>
      <trkpt lat="44.26686" lon="3.74325">
        <ele>713.44</ele>
        <time>2013-06-05T09:18:01Z</time>
      </trkpt>
      <trkpt lat="44.26688" lon="3.74334">
        <ele>713.44</ele>
        <time>2013-06-05T09:18:18Z</time>
      </trkpt>
      <trkpt lat="44.26689" lon="3.74343">
        <ele>713.44</ele>
        <time>2013-06-05T09:18:31Z</time>
      </trkpt>
      <trkpt lat="44.26692" lon="3.74345">
        <ele>713.92</ele>
        <time>2013-06-05T09:18:42Z</time>
      </trkpt>
      <trkpt lat="44.26693" lon="3.74347">
        <ele>714.4</ele>
        <time>2013-06-05T09:18:51Z</time>
      </trkpt>
      <trkpt lat="44.26695" lon="3.74362">
        <ele>714.4</ele>
        <time>2013-06-05T09:19:02Z</time>
      </trkpt>
      <trkpt lat="44.26698" lon="3.74388">
        <ele>712.95</ele>
        <time>2013-06-05T09:19:17Z</time>
      </trkpt>
      <trkpt lat="44.26699" lon="3.74392">
        <ele>714.88</ele>
        <time>2013-06-05T09:19:19Z</time>
      </trkpt>
      <trkpt lat="44.26701" lon="3.74399">
        <ele>714.88</ele>
        <time>2013-06-05T09:19:23Z</time>
      </trkpt>
      <trkpt lat="44.26705" lon="3.74404">
        <ele>714.88</ele>
        <time>2013-06-05T09:19:25Z</time>
      </trkpt>
      <trkpt lat="44.26713" lon="3.7443">
        <ele>714.88</ele>
        <time>2013-06-05T09:19:35Z</time>
      </trkpt>
      <trkpt lat="44.26724" lon="3.7446">
        <ele>715.36</ele>
        <time>2013-06-05T09:19:52Z</time>
      </trkpt>
      <trkpt lat="44.26733" lon="3.74489">
        <ele>716.32</ele>
        <time>2013-06-05T09:20:07Z</time>
      </trkpt>
      <trkpt lat="44.2674" lon="3.74516">
        <ele>716.8</ele>
        <time>2013-06-05T09:20:21Z</time>
      </trkpt>
      <trkpt lat="44.26742" lon="3.74537">
        <ele>717.76</ele>
        <time>2013-06-05T09:20:33Z</time>
      </trkpt>
      <trkpt lat="44.26744" lon="3.7455">
        <ele>717.76</ele>
        <time>2013-06-05T09:20:38Z</time>
      </trkpt>
      <trkpt lat="44.26747" lon="3.74567">
        <ele>718.24</ele>
        <time>2013-06-05T09:20:45Z</time>
      </trkpt>
      <trkpt lat="44.26749" lon="3.74591">
        <ele>718.72</ele>
        <time>2013-06-05T09:20:56Z</time>
      </trkpt>
      <trkpt lat="44.26747" lon="3.7461">
        <ele>719.2</ele>
        <time>2013-06-05T09:21:07Z</time>
      </trkpt>
      <trkpt lat="44.26746" lon="3.74617">
        <ele>719.2</ele>
        <time>2013-06-05T09:21:11Z</time>
      </trkpt>
      <trkpt lat="44.26745" lon="3.74647">
        <ele>719.2</ele>
        <time>2013-06-05T09:21:30Z</time>
      </trkpt>
      <trkpt lat="44.26747" lon="3.74655">
        <ele>719.68</ele>
        <time>2013-06-05T09:21:46Z</time>
      </trkpt>
      <trkpt lat="44.26748" lon="3.74652">
        <ele>720.16</ele>
        <time>2013-06-05T09:22:00Z</time>
      </trkpt>
      <trkpt lat="44.26748" lon="3.74652">
        <ele>720.16</ele>
        <time>2013-06-05T09:22:17Z</time>
      </trkpt>
      <trkpt lat="44.26748" lon="3.74657">
        <ele>720.16</ele>
        <time>2013-06-05T09:22:45Z</time>
      </trkpt>
      <trkpt lat="44.26745" lon="3.74652">
        <ele>720.16</ele>
        <time>2013-06-05T09:23:02Z</time>
      </trkpt>
      <trkpt lat="44.26744" lon="3.74655">
        <ele>720.65</ele>
        <time>2013-06-05T09:23:36Z</time>
      </trkpt>
      <trkpt lat="44.26744" lon="3.74675">
        <ele>721.13</ele>
        <time>2013-06-05T09:23:56Z</time>
      </trkpt>
      <trkpt lat="44.26744" lon="3.7468">
        <ele>721.61</ele>
        <time>2013-06-05T09:24:14Z</time>
      </trkpt>
      <trkpt lat="44.26751" lon="3.7467">
        <ele>721.61</ele>
        <time>2013-06-05T09:24:40Z</time>
      </trkpt>
      <trkpt lat="44.26745" lon="3.74671">
        <ele>722.09</ele>
        <time>2013-06-05T09:25:07Z</time>
      </trkpt>
      <trkpt lat="44.26743" lon="3.74673">
        <ele>723.53</ele>
        <time>2013-06-05T09:25:30Z</time>
      </trkpt>
      <trkpt lat="44.26741" lon="3.74674">
        <ele>724.49</ele>
        <time>2013-06-05T09:25:45Z</time>
      </trkpt>
      <trkpt lat="44.26743" lon="3.74674">
        <ele>724.97</ele>
        <time>2013-06-05T09:26:15Z</time>
      </trkpt>
      <trkpt lat="44.26742" lon="3.74672">
        <ele>724.97</ele>
        <time>2013-06-05T09:26:39Z</time>
      </trkpt>
      <trkpt lat="44.26742" lon="3.74672">
        <ele>724.97</ele>
        <time>2013-06-05T09:26:59Z</time>
      </trkpt>
      <trkpt lat="44.26741" lon="3.74674">
        <ele>724.97</ele>
        <time>2013-06-05T09:27:22Z</time>
      </trkpt>
      <trkpt lat="44.26745" lon="3.74677">
        <ele>723.53</ele>
        <time>2013-06-05T09:27:34Z</time>
      </trkpt>
      <trkpt lat="44.26747" lon="3.7468">
        <ele>722.57</ele>
        <time>2013-06-05T09:27:39Z</time>
      </trkpt>
      <trkpt lat="44.26748" lon="3.74703">
        <ele>722.57</ele>
        <time>2013-06-05T09:27:53Z</time>
      </trkpt>
      <trkpt lat="44.26751" lon="3.74719">
        <ele>723.53</ele>
        <time>2013-06-05T09:28:02Z</time>
      </trkpt>
      <trkpt lat="44.26753" lon="3.74752">
        <ele>724.49</ele>
        <time>2013-06-05T09:28:20Z</time>
      </trkpt>
      <trkpt lat="44.26754" lon="3.74754">
        <ele>724.49</ele>
        <time>2013-06-05T09:28:21Z</time>
      </trkpt>
      <trkpt lat="44.26759" lon="3.74771">
        <ele>724.97</ele>
        <time>2013-06-05T09:28:32Z</time>
      </trkpt>
      <trkpt lat="44.26763" lon="3.74797">
        <ele>725.93</ele>
        <time>2013-06-05T09:28:49Z</time>
      </trkpt>
      <trkpt lat="44.26771" lon="3.74818">
        <ele>726.41</ele>
        <time>2013-06-05T09:29:03Z</time>
      </trkpt>
      <trkpt lat="44.26777" lon="3.7484">
        <ele>727.37</ele>
        <time>2013-06-05T09:29:17Z</time>
      </trkpt>
      <trkpt lat="44.26773" lon="3.74861">
        <ele>727.86</ele>
        <time>2013-06-05T09:29:30Z</time>
      </trkpt>
      <trkpt lat="44.26773" lon="3.74888">
        <ele>728.82</ele>
        <time>2013-06-05T09:29:43Z</time>
      </trkpt>
      <trkpt lat="44.26775" lon="3.74919">
        <ele>729.78</ele>
        <time>2013-06-05T09:29:57Z</time>
      </trkpt>
      <trkpt lat="44.2677" lon="3.74945">
        <ele>730.74</ele>
        <time>2013-06-05T09:30:11Z</time>
      </trkpt>
      <trkpt lat="44.2676" lon="3.74966">
        <ele>731.7</ele>
        <time>2013-06-05T09:30:23Z</time>
      </trkpt>
      <trkpt lat="44.26757" lon="3.7497">
        <ele>731.7</ele>
        <time>2013-06-05T09:30:25Z</time>
      </trkpt>
      <trkpt lat="44.26755" lon="3.74976">
        <ele>731.7</ele>
        <time>2013-06-05T09:30:28Z</time>
      </trkpt>
      <trkpt lat="44.26749" lon="3.74988">
        <ele>731.7</ele>
        <time>2013-06-05T09:30:34Z</time>
      </trkpt>
      <trkpt lat="44.26738" lon="3.7501">
        <ele>732.18</ele>
        <time>2013-06-05T09:30:45Z</time>
      </trkpt>
      <trkpt lat="44.26736" lon="3.75033">
        <ele>732.66</ele>
        <time>2013-06-05T09:30:56Z</time>
      </trkpt>
      <trkpt lat="44.2673" lon="3.75061">
        <ele>733.62</ele>
        <time>2013-06-05T09:31:10Z</time>
      </trkpt>
      <trkpt lat="44.2672" lon="3.75086">
        <ele>734.1</ele>
        <time>2013-06-05T09:31:20Z</time>
      </trkpt>
      <trkpt lat="44.26714" lon="3.75101">
        <ele>734.58</ele>
        <time>2013-06-05T09:31:26Z</time>
      </trkpt>
      <trkpt lat="44.26709" lon="3.75115">
        <ele>735.07</ele>
        <time>2013-06-05T09:31:33Z</time>
      </trkpt>
      <trkpt lat="44.26709" lon="3.75122">
        <ele>735.07</ele>
        <time>2013-06-05T09:31:37Z</time>
      </trkpt>
      <trkpt lat="44.26699" lon="3.75144">
        <ele>736.03</ele>
        <time>2013-06-05T09:31:48Z</time>
      </trkpt>
      <trkpt lat="44.26695" lon="3.75151">
        <ele>736.03</ele>
        <time>2013-06-05T09:31:52Z</time>
      </trkpt>
      <trkpt lat="44.26681" lon="3.75168">
        <ele>736.51</ele>
        <time>2013-06-05T09:32:03Z</time>
      </trkpt>
      <trkpt lat="44.26682" lon="3.75172">
        <ele>736.51</ele>
        <time>2013-06-05T09:32:06Z</time>
      </trkpt>
      <trkpt lat="44.26675" lon="3.75192">
        <ele>736.99</ele>
        <time>2013-06-05T09:32:18Z</time>
      </trkpt>
      <trkpt lat="44.26668" lon="3.752">
        <ele>737.47</ele>
        <time>2013-06-05T09:32:24Z</time>
      </trkpt>
      <trkpt lat="44.26668" lon="3.75208">
        <ele>737.47</ele>
        <time>2013-06-05T09:32:28Z</time>
      </trkpt>
      <trkpt lat="44.26667" lon="3.75229">
        <ele>737.95</ele>
        <time>2013-06-05T09:32:39Z</time>
      </trkpt>
      <trkpt lat="44.26666" lon="3.75234">
        <ele>737.95</ele>
        <time>2013-06-05T09:32:42Z</time>
      </trkpt>
      <trkpt lat="44.26666" lon="3.75239">
        <ele>737.95</ele>
        <time>2013-06-05T09:32:44Z</time>
      </trkpt>
      <trkpt lat="44.2665" lon="3.75255">
        <ele>738.91</ele>
        <time>2013-06-05T09:32:56Z</time>
      </trkpt>
      <trkpt lat="44.26649" lon="3.75262">
        <ele>738.91</ele>
        <time>2013-06-05T09:32:59Z</time>
      </trkpt>
      <trkpt lat="44.26651" lon="3.75269">
        <ele>738.91</ele>
        <time>2013-06-05T09:33:02Z</time>
      </trkpt>
      <trkpt lat="44.26651" lon="3.75272">
        <ele>738.91</ele>
        <time>2013-06-05T09:33:04Z</time>
      </trkpt>
      <trkpt lat="44.26651" lon="3.75293">
        <ele>739.39</ele>
        <time>2013-06-05T09:33:17Z</time>
      </trkpt>
      <trkpt lat="44.26651" lon="3.7531">
        <ele>739.87</ele>
        <time>2013-06-05T09:33:24Z</time>
      </trkpt>
      <trkpt lat="44.26646" lon="3.7533">
        <ele>740.35</ele>
        <time>2013-06-05T09:33:33Z</time>
      </trkpt>
      <trkpt lat="44.2664" lon="3.75345">
        <ele>740.35</ele>
        <time>2013-06-05T09:33:48Z</time>
      </trkpt>
      <trkpt lat="44.26636" lon="3.75344">
        <ele>740.35</ele>
        <time>2013-06-05T09:34:18Z</time>
      </trkpt>
      <trkpt lat="44.26638" lon="3.75354">
        <ele>740.83</ele>
        <time>2013-06-05T09:34:38Z</time>
      </trkpt>
      <trkpt lat="44.26632" lon="3.7537">
        <ele>741.31</ele>
        <time>2013-06-05T09:34:47Z</time>
      </trkpt>
      <trkpt lat="44.26626" lon="3.75377">
        <ele>741.31</ele>
        <time>2013-06-05T09:34:52Z</time>
      </trkpt>
      <trkpt lat="44.2662" lon="3.75401">
        <ele>741.79</ele>
        <time>2013-06-05T09:35:07Z</time>
      </trkpt>
      <trkpt lat="44.26612" lon="3.7542">
        <ele>742.76</ele>
        <time>2013-06-05T09:35:20Z</time>
      </trkpt>
      <trkpt lat="44.266" lon="3.75446">
        <ele>742.76</ele>
        <time>2013-06-05T09:35:35Z</time>
      </trkpt>
      <trkpt lat="44.26596" lon="3.7545">
        <ele>743.24</ele>
        <time>2013-06-05T09:35:38Z</time>
      </trkpt>
      <trkpt lat="44.26594" lon="3.75459">
        <ele>743.24</ele>
        <time>2013-06-05T09:35:43Z</time>
      </trkpt>
      <trkpt lat="44.26583" lon="3.75473">
        <ele>743.24</ele>
        <time>2013-06-05T09:35:51Z</time>
      </trkpt>
      <trkpt lat="44.26582" lon="3.75476">
        <ele>743.24</ele>
        <time>2013-06-05T09:35:53Z</time>
      </trkpt>
      <trkpt lat="44.26582" lon="3.75498">
        <ele>743.72</ele>
        <time>2013-06-05T09:36:06Z</time>
      </trkpt>
      <trkpt lat="44.26581" lon="3.75517">
        <ele>743.72</ele>
        <time>2013-06-05T09:36:19Z</time>
      </trkpt>
      <trkpt lat="44.26581" lon="3.75519">
        <ele>743.72</ele>
        <time>2013-06-05T09:36:20Z</time>
      </trkpt>
      <trkpt lat="44.26585" lon="3.75552">
        <ele>744.2</ele>
        <time>2013-06-05T09:36:38Z</time>
      </trkpt>
      <trkpt lat="44.26596" lon="3.7558">
        <ele>744.68</ele>
        <time>2013-06-05T09:36:53Z</time>
      </trkpt>
      <trkpt lat="44.26606" lon="3.75599">
        <ele>745.64</ele>
        <time>2013-06-05T09:37:04Z</time>
      </trkpt>
      <trkpt lat="44.2662" lon="3.75624">
        <ele>746.12</ele>
        <time>2013-06-05T09:37:19Z</time>
      </trkpt>
      <trkpt lat="44.26623" lon="3.75628">
        <ele>746.12</ele>
        <time>2013-06-05T09:37:22Z</time>
      </trkpt>
      <trkpt lat="44.26634" lon="3.75646">
        <ele>746.12</ele>
        <time>2013-06-05T09:37:35Z</time>
      </trkpt>
      <trkpt lat="44.26647" lon="3.75661">
        <ele>746.6</ele>
        <time>2013-06-05T09:37:48Z</time>
      </trkpt>
      <trkpt lat="44.26652" lon="3.75665">
        <ele>746.6</ele>
        <time>2013-06-05T09:37:52Z</time>
      </trkpt>
      <trkpt lat="44.26668" lon="3.7569">
        <ele>746.6</ele>
        <time>2013-06-05T09:38:06Z</time>
      </trkpt>
      <trkpt lat="44.26677" lon="3.75702">
        <ele>747.08</ele>
        <time>2013-06-05T09:38:15Z</time>
      </trkpt>
      <trkpt lat="44.26693" lon="3.75726">
        <ele>748.04</ele>
        <time>2013-06-05T09:38:29Z</time>
      </trkpt>
      <trkpt lat="44.26694" lon="3.75727">
        <ele>748.04</ele>
        <time>2013-06-05T09:38:30Z</time>
      </trkpt>
      <trkpt lat="44.26698" lon="3.75733">
        <ele>748.04</ele>
        <time>2013-06-05T09:38:35Z</time>
      </trkpt>
      <trkpt lat="44.26711" lon="3.75753">
        <ele>748.52</ele>
        <time>2013-06-05T09:38:51Z</time>
      </trkpt>
      <trkpt lat="44.26717" lon="3.7577">
        <ele>748.52</ele>
        <time>2013-06-05T09:39:00Z</time>
      </trkpt>
      <trkpt lat="44.26724" lon="3.75802">
        <ele>748.52</ele>
        <time>2013-06-05T09:39:15Z</time>
      </trkpt>
      <trkpt lat="44.26725" lon="3.75812">
        <ele>748.52</ele>
        <time>2013-06-05T09:39:19Z</time>
      </trkpt>
      <trkpt lat="44.2673" lon="3.75842">
        <ele>749</ele>
        <time>2013-06-05T09:39:35Z</time>
      </trkpt>
      <trkpt lat="44.26731" lon="3.75848">
        <ele>749</ele>
        <time>2013-06-05T09:39:37Z</time>
      </trkpt>
      <trkpt lat="44.26739" lon="3.75893">
        <ele>749</ele>
        <time>2013-06-05T09:39:49Z</time>
      </trkpt>
      <trkpt lat="44.26743" lon="3.75915">
        <ele>749.97</ele>
        <time>2013-06-05T09:39:59Z</time>
      </trkpt>
      <trkpt lat="44.26742" lon="3.7594">
        <ele>751.89</ele>
        <time>2013-06-05T09:40:13Z</time>
      </trkpt>
      <trkpt lat="44.26744" lon="3.75966">
        <ele>754.29</ele>
        <time>2013-06-05T09:40:27Z</time>
      </trkpt>
      <trkpt lat="44.26746" lon="3.75982">
        <ele>756.21</ele>
        <time>2013-06-05T09:40:38Z</time>
      </trkpt>
      <trkpt lat="44.26745" lon="3.75994">
        <ele>757.18</ele>
        <time>2013-06-05T09:40:47Z</time>
      </trkpt>
      <trkpt lat="44.26744" lon="3.75998">
        <ele>757.66</ele>
        <time>2013-06-05T09:40:49Z</time>
      </trkpt>
      <trkpt lat="44.2674" lon="3.76019">
        <ele>759.1</ele>
        <time>2013-06-05T09:41:02Z</time>
      </trkpt>
      <trkpt lat="44.26736" lon="3.76033">
        <ele>760.54</ele>
        <time>2013-06-05T09:41:11Z</time>
      </trkpt>
      <trkpt lat="44.26734" lon="3.76048">
        <ele>762.46</ele>
        <time>2013-06-05T09:41:25Z</time>
      </trkpt>
      <trkpt lat="44.26732" lon="3.76058">
        <ele>763.9</ele>
        <time>2013-06-05T09:41:35Z</time>
      </trkpt>
      <trkpt lat="44.26727" lon="3.76077">
        <ele>766.31</ele>
        <time>2013-06-05T09:41:49Z</time>
      </trkpt>
      <trkpt lat="44.26724" lon="3.76091">
        <ele>768.23</ele>
        <time>2013-06-05T09:42:01Z</time>
      </trkpt>
      <trkpt lat="44.26719" lon="3.76104">
        <ele>769.67</ele>
        <time>2013-06-05T09:42:14Z</time>
      </trkpt>
      <trkpt lat="44.26712" lon="3.76116">
        <ele>771.6</ele>
        <time>2013-06-05T09:42:26Z</time>
      </trkpt>
      <trkpt lat="44.26708" lon="3.76131">
        <ele>773.04</ele>
        <time>2013-06-05T09:42:37Z</time>
      </trkpt>
      <trkpt lat="44.26709" lon="3.76157">
        <ele>774.96</ele>
        <time>2013-06-05T09:42:50Z</time>
      </trkpt>
      <trkpt lat="44.2671" lon="3.76183">
        <ele>777.36</ele>
        <time>2013-06-05T09:43:02Z</time>
      </trkpt>
      <trkpt lat="44.26708" lon="3.76199">
        <ele>778.81</ele>
        <time>2013-06-05T09:43:13Z</time>
      </trkpt>
      <trkpt lat="44.26707" lon="3.76201">
        <ele>779.77</ele>
        <time>2013-06-05T09:43:15Z</time>
      </trkpt>
      <trkpt lat="44.267" lon="3.76231">
        <ele>781.21</ele>
        <time>2013-06-05T09:43:27Z</time>
      </trkpt>
      <trkpt lat="44.26695" lon="3.76243">
        <ele>782.17</ele>
        <time>2013-06-05T09:43:33Z</time>
      </trkpt>
      <trkpt lat="44.26684" lon="3.7625">
        <ele>783.13</ele>
        <time>2013-06-05T09:43:44Z</time>
      </trkpt>
      <trkpt lat="44.26682" lon="3.76253">
        <ele>784.09</ele>
        <time>2013-06-05T09:43:58Z</time>
      </trkpt>
      <trkpt lat="44.26676" lon="3.76254">
        <ele>785.53</ele>
        <time>2013-06-05T09:44:14Z</time>
      </trkpt>
      <trkpt lat="44.26673" lon="3.76258">
        <ele>786.5</ele>
        <time>2013-06-05T09:44:23Z</time>
      </trkpt>
      <trkpt lat="44.26672" lon="3.76268">
        <ele>789.38</ele>
        <time>2013-06-05T09:44:37Z</time>
      </trkpt>
      <trkpt lat="44.26678" lon="3.76277">
        <ele>791.78</ele>
        <time>2013-06-05T09:44:50Z</time>
      </trkpt>
      <trkpt lat="44.26679" lon="3.76293">
        <ele>793.22</ele>
        <time>2013-06-05T09:45:03Z</time>
      </trkpt>
      <trkpt lat="44.26681" lon="3.76305">
        <ele>794.67</ele>
        <time>2013-06-05T09:45:12Z</time>
      </trkpt>
      <trkpt lat="44.26684" lon="3.76327">
        <ele>796.59</ele>
        <time>2013-06-05T09:45:24Z</time>
      </trkpt>
      <trkpt lat="44.26688" lon="3.76349">
        <ele>798.99</ele>
        <time>2013-06-05T09:45:39Z</time>
      </trkpt>
      <trkpt lat="44.26691" lon="3.7637">
        <ele>801.4</ele>
        <time>2013-06-05T09:45:54Z</time>
      </trkpt>
      <trkpt lat="44.26699" lon="3.76396">
        <ele>804.28</ele>
        <time>2013-06-05T09:46:09Z</time>
      </trkpt>
      <trkpt lat="44.26701" lon="3.76419">
        <ele>805.72</ele>
        <time>2013-06-05T09:46:23Z</time>
      </trkpt>
      <trkpt lat="44.26702" lon="3.76432">
        <ele>807.16</ele>
        <time>2013-06-05T09:46:30Z</time>
      </trkpt>
      <trkpt lat="44.26701" lon="3.7646">
        <ele>808.13</ele>
        <time>2013-06-05T09:46:41Z</time>
      </trkpt>
      <trkpt lat="44.26702" lon="3.76478">
        <ele>809.09</ele>
        <time>2013-06-05T09:46:51Z</time>
      </trkpt>
      <trkpt lat="44.267" lon="3.76485">
        <ele>810.05</ele>
        <time>2013-06-05T09:47:05Z</time>
      </trkpt>
      <trkpt lat="44.26702" lon="3.7649">
        <ele>810.53</ele>
        <time>2013-06-05T09:47:17Z</time>
      </trkpt>
      <trkpt lat="44.26706" lon="3.76502">
        <ele>811.97</ele>
        <time>2013-06-05T09:47:28Z</time>
      </trkpt>
      <trkpt lat="44.26708" lon="3.7651">
        <ele>813.41</ele>
        <time>2013-06-05T09:47:39Z</time>
      </trkpt>
      <trkpt lat="44.26714" lon="3.76523">
        <ele>815.34</ele>
        <time>2013-06-05T09:47:51Z</time>
      </trkpt>
      <trkpt lat="44.26716" lon="3.76538">
        <ele>817.26</ele>
        <time>2013-06-05T09:48:02Z</time>
      </trkpt>
      <trkpt lat="44.26715" lon="3.7655">
        <ele>818.22</ele>
        <time>2013-06-05T09:48:09Z</time>
      </trkpt>
      <trkpt lat="44.26714" lon="3.7657">
        <ele>818.7</ele>
        <time>2013-06-05T09:48:18Z</time>
      </trkpt>
      <trkpt lat="44.26711" lon="3.76594">
        <ele>820.62</ele>
        <time>2013-06-05T09:48:32Z</time>
      </trkpt>
      <trkpt lat="44.2671" lon="3.76613">
        <ele>821.58</ele>
        <time>2013-06-05T09:48:43Z</time>
      </trkpt>
      <trkpt lat="44.26703" lon="3.76622">
        <ele>823.03</ele>
        <time>2013-06-05T09:48:55Z</time>
      </trkpt>
      <trkpt lat="44.26696" lon="3.76631">
        <ele>824.95</ele>
        <time>2013-06-05T09:49:05Z</time>
      </trkpt>
      <trkpt lat="44.26696" lon="3.76646">
        <ele>826.87</ele>
        <time>2013-06-05T09:49:17Z</time>
      </trkpt>
      <trkpt lat="44.26696" lon="3.76661">
        <ele>828.79</ele>
        <time>2013-06-05T09:49:29Z</time>
      </trkpt>
      <trkpt lat="44.26699" lon="3.7668">
        <ele>831.2</ele>
        <time>2013-06-05T09:49:41Z</time>
      </trkpt>
      <trkpt lat="44.26699" lon="3.76692">
        <ele>833.6</ele>
        <time>2013-06-05T09:49:52Z</time>
      </trkpt>
      <trkpt lat="44.26696" lon="3.76708">
        <ele>836</ele>
        <time>2013-06-05T09:50:05Z</time>
      </trkpt>
      <trkpt lat="44.2669" lon="3.7673">
        <ele>839.37</ele>
        <time>2013-06-05T09:50:17Z</time>
      </trkpt>
      <trkpt lat="44.26685" lon="3.76741">
        <ele>840.33</ele>
        <time>2013-06-05T09:50:27Z</time>
      </trkpt>
      <trkpt lat="44.26681" lon="3.7676">
        <ele>842.73</ele>
        <time>2013-06-05T09:50:41Z</time>
      </trkpt>
      <trkpt lat="44.26672" lon="3.76775">
        <ele>844.18</ele>
        <time>2013-06-05T09:50:53Z</time>
      </trkpt>
      <trkpt lat="44.26661" lon="3.76792">
        <ele>844.18</ele>
        <time>2013-06-05T09:51:06Z</time>
      </trkpt>
      <trkpt lat="44.26649" lon="3.76816">
        <ele>843.21</ele>
        <time>2013-06-05T09:51:20Z</time>
      </trkpt>
      <trkpt lat="44.26636" lon="3.76836">
        <ele>843.21</ele>
        <time>2013-06-05T09:51:32Z</time>
      </trkpt>
      <trkpt lat="44.26628" lon="3.76851">
        <ele>843.21</ele>
        <time>2013-06-05T09:51:44Z</time>
      </trkpt>
      <trkpt lat="44.26616" lon="3.76874">
        <ele>843.69</ele>
        <time>2013-06-05T09:51:57Z</time>
      </trkpt>
      <trkpt lat="44.26609" lon="3.7689">
        <ele>843.69</ele>
        <time>2013-06-05T09:52:09Z</time>
      </trkpt>
      <trkpt lat="44.26598" lon="3.769">
        <ele>844.66</ele>
        <time>2013-06-05T09:52:22Z</time>
      </trkpt>
      <trkpt lat="44.26599" lon="3.76893">
        <ele>844.66</ele>
        <time>2013-06-05T09:52:32Z</time>
      </trkpt>
      <trkpt lat="44.26604" lon="3.76882">
        <ele>844.66</ele>
        <time>2013-06-05T09:52:41Z</time>
      </trkpt>
      <trkpt lat="44.26605" lon="3.7688">
        <ele>845.14</ele>
        <time>2013-06-05T09:52:43Z</time>
      </trkpt>
      <trkpt lat="44.26609" lon="3.76868">
        <ele>845.14</ele>
        <time>2013-06-05T09:52:51Z</time>
      </trkpt>
      <trkpt lat="44.26621" lon="3.76859">
        <ele>843.69</ele>
        <time>2013-06-05T09:53:00Z</time>
      </trkpt>
      <trkpt lat="44.26631" lon="3.76844">
        <ele>843.69</ele>
        <time>2013-06-05T09:53:12Z</time>
      </trkpt>
      <trkpt lat="44.2664" lon="3.76822">
        <ele>843.69</ele>
        <time>2013-06-05T09:53:26Z</time>
      </trkpt>
      <trkpt lat="44.26646" lon="3.76808">
        <ele>845.14</ele>
        <time>2013-06-05T09:53:38Z</time>
      </trkpt>
      <trkpt lat="44.26655" lon="3.76798">
        <ele>846.1</ele>
        <time>2013-06-05T09:53:51Z</time>
      </trkpt>
      <trkpt lat="44.26666" lon="3.76785">
        <ele>844.66</ele>
        <time>2013-06-05T09:54:04Z</time>
      </trkpt>
      <trkpt lat="44.26664" lon="3.76791">
        <ele>844.66</ele>
        <time>2013-06-05T09:54:20Z</time>
      </trkpt>
      <trkpt lat="44.26659" lon="3.76786">
        <ele>847.06</ele>
        <time>2013-06-05T09:54:34Z</time>
      </trkpt>
      <trkpt lat="44.26654" lon="3.76782">
        <ele>847.54</ele>
        <time>2013-06-05T09:54:40Z</time>
      </trkpt>
      <trkpt lat="44.26644" lon="3.76785">
        <ele>849.46</ele>
        <time>2013-06-05T09:54:52Z</time>
      </trkpt>
      <trkpt lat="44.2664" lon="3.76795">
        <ele>849.46</ele>
        <time>2013-06-05T09:55:02Z</time>
      </trkpt>
      <trkpt lat="44.26638" lon="3.76798">
        <ele>849.46</ele>
        <time>2013-06-05T09:55:05Z</time>
      </trkpt>
      <trkpt lat="44.26632" lon="3.76805">
        <ele>849.46</ele>
        <time>2013-06-05T09:55:15Z</time>
      </trkpt>
      <trkpt lat="44.26626" lon="3.76813">
        <ele>849.94</ele>
        <time>2013-06-05T09:55:25Z</time>
      </trkpt>
      <trkpt lat="44.26625" lon="3.76814">
        <ele>849.94</ele>
        <time>2013-06-05T09:55:27Z</time>
      </trkpt>
      <trkpt lat="44.26612" lon="3.76824">
        <ele>852.35</ele>
        <time>2013-06-05T09:55:40Z</time>
      </trkpt>
      <trkpt lat="44.26605" lon="3.76831">
        <ele>853.79</ele>
        <time>2013-06-05T09:55:52Z</time>
      </trkpt>
      <trkpt lat="44.26595" lon="3.76843">
        <ele>854.75</ele>
        <time>2013-06-05T09:56:05Z</time>
      </trkpt>
      <trkpt lat="44.26582" lon="3.76862">
        <ele>856.19</ele>
        <time>2013-06-05T09:56:15Z</time>
      </trkpt>
      <trkpt lat="44.2657" lon="3.76868">
        <ele>857.63</ele>
        <time>2013-06-05T09:56:26Z</time>
      </trkpt>
      <trkpt lat="44.26561" lon="3.76872">
        <ele>859.08</ele>
        <time>2013-06-05T09:56:38Z</time>
      </trkpt>
      <trkpt lat="44.26551" lon="3.76881">
        <ele>860.52</ele>
        <time>2013-06-05T09:56:49Z</time>
      </trkpt>
      <trkpt lat="44.26543" lon="3.76887">
        <ele>861.96</ele>
        <time>2013-06-05T09:56:58Z</time>
      </trkpt>
      <trkpt lat="44.26533" lon="3.76899">
        <ele>862.92</ele>
        <time>2013-06-05T09:57:08Z</time>
      </trkpt>
      <trkpt lat="44.26523" lon="3.76905">
        <ele>864.84</ele>
        <time>2013-06-05T09:57:21Z</time>
      </trkpt>
      <trkpt lat="44.26518" lon="3.76907">
        <ele>867.25</ele>
        <time>2013-06-05T09:57:34Z</time>
      </trkpt>
      <trkpt lat="44.26508" lon="3.76907">
        <ele>869.17</ele>
        <time>2013-06-05T09:57:44Z</time>
      </trkpt>
      <trkpt lat="44.26498" lon="3.76912">
        <ele>871.09</ele>
        <time>2013-06-05T09:57:56Z</time>
      </trkpt>
      <trkpt lat="44.26493" lon="3.76911">
        <ele>871.57</ele>
        <time>2013-06-05T09:58:01Z</time>
      </trkpt>
      <trkpt lat="44.26477" lon="3.76911">
        <ele>873.5</ele>
        <time>2013-06-05T09:58:15Z</time>
      </trkpt>
      <trkpt lat="44.26467" lon="3.76918">
        <ele>874.94</ele>
        <time>2013-06-05T09:58:24Z</time>
      </trkpt>
      <trkpt lat="44.26456" lon="3.76917">
        <ele>877.34</ele>
        <time>2013-06-05T09:58:38Z</time>
      </trkpt>
      <trkpt lat="44.26444" lon="3.7692">
        <ele>879.26</ele>
        <time>2013-06-05T09:58:50Z</time>
      </trkpt>
      <trkpt lat="44.26437" lon="3.76925">
        <ele>880.71</ele>
        <time>2013-06-05T09:59:02Z</time>
      </trkpt>
      <trkpt lat="44.26433" lon="3.76927">
        <ele>880.71</ele>
        <time>2013-06-05T09:59:14Z</time>
      </trkpt>
      <trkpt lat="44.26433" lon="3.76924">
        <ele>880.71</ele>
        <time>2013-06-05T09:59:29Z</time>
      </trkpt>
      <trkpt lat="44.26432" lon="3.76925">
        <ele>880.71</ele>
        <time>2013-06-05T09:59:45Z</time>
      </trkpt>
      <trkpt lat="44.26432" lon="3.76926">
        <ele>881.19</ele>
        <time>2013-06-05T09:59:58Z</time>
      </trkpt>
      <trkpt lat="44.26428" lon="3.76929">
        <ele>882.63</ele>
        <time>2013-06-05T10:00:14Z</time>
      </trkpt>
      <trkpt lat="44.26417" lon="3.76933">
        <ele>882.63</ele>
        <time>2013-06-05T10:00:29Z</time>
      </trkpt>
      <trkpt lat="44.26411" lon="3.76932">
        <ele>882.63</ele>
        <time>2013-06-05T10:00:45Z</time>
      </trkpt>
      <trkpt lat="44.26408" lon="3.76923">
        <ele>882.63</ele>
        <time>2013-06-05T10:01:01Z</time>
      </trkpt>
      <trkpt lat="44.26405" lon="3.76928">
        <ele>884.07</ele>
        <time>2013-06-05T10:01:18Z</time>
      </trkpt>
      <trkpt lat="44.26409" lon="3.76933">
        <ele>884.55</ele>
        <time>2013-06-05T10:01:33Z</time>
      </trkpt>
      <trkpt lat="44.26418" lon="3.76939">
        <ele>885.03</ele>
        <time>2013-06-05T10:01:51Z</time>
      </trkpt>
      <trkpt lat="44.2642" lon="3.76944">
        <ele>884.07</ele>
        <time>2013-06-05T10:02:10Z</time>
      </trkpt>
      <trkpt lat="44.26428" lon="3.76951">
        <ele>883.11</ele>
        <time>2013-06-05T10:02:23Z</time>
      </trkpt>
      <trkpt lat="44.26433" lon="3.76958">
        <ele>882.15</ele>
        <time>2013-06-05T10:02:36Z</time>
      </trkpt>
      <trkpt lat="44.2644" lon="3.76968">
        <ele>882.15</ele>
        <time>2013-06-05T10:02:47Z</time>
      </trkpt>
      <trkpt lat="44.26442" lon="3.76984">
        <ele>883.59</ele>
        <time>2013-06-05T10:02:58Z</time>
      </trkpt>
      <trkpt lat="44.26438" lon="3.76999">
        <ele>886.47</ele>
        <time>2013-06-05T10:03:10Z</time>
      </trkpt>
      <trkpt lat="44.26437" lon="3.77004">
        <ele>886.47</ele>
        <time>2013-06-05T10:03:15Z</time>
      </trkpt>
      <trkpt lat="44.26439" lon="3.77008">
        <ele>885.03</ele>
        <time>2013-06-05T10:03:19Z</time>
      </trkpt>
      <trkpt lat="44.2644" lon="3.7702">
        <ele>883.59</ele>
        <time>2013-06-05T10:03:31Z</time>
      </trkpt>
      <trkpt lat="44.26438" lon="3.77018">
        <ele>882.63</ele>
        <time>2013-06-05T10:03:49Z</time>
      </trkpt>
      <trkpt lat="44.26437" lon="3.77017">
        <ele>882.63</ele>
        <time>2013-06-05T10:03:51Z</time>
      </trkpt>
      <trkpt lat="44.26435" lon="3.77013">
        <ele>884.07</ele>
        <time>2013-06-05T10:03:56Z</time>
      </trkpt>
      <trkpt lat="44.26431" lon="3.76998">
        <ele>886.47</ele>
        <time>2013-06-05T10:04:08Z</time>
      </trkpt>
      <trkpt lat="44.26427" lon="3.76982">
        <ele>887.43</ele>
        <time>2013-06-05T10:04:20Z</time>
      </trkpt>
      <trkpt lat="44.2642" lon="3.76974">
        <ele>887.91</ele>
        <time>2013-06-05T10:04:32Z</time>
      </trkpt>
      <trkpt lat="44.2641" lon="3.76964">
        <ele>888.4</ele>
        <time>2013-06-05T10:04:45Z</time>
      </trkpt>
      <trkpt lat="44.26408" lon="3.76961">
        <ele>886.95</ele>
        <time>2013-06-05T10:04:48Z</time>
      </trkpt>
      <trkpt lat="44.26404" lon="3.7695">
        <ele>886.95</ele>
        <time>2013-06-05T10:04:59Z</time>
      </trkpt>
      <trkpt lat="44.26404" lon="3.76947">
        <ele>889.36</ele>
        <time>2013-06-05T10:05:17Z</time>
      </trkpt>
      <trkpt lat="44.26401" lon="3.76945">
        <ele>891.76</ele>
        <time>2013-06-05T10:05:32Z</time>
      </trkpt>
      <trkpt lat="44.264" lon="3.76943">
        <ele>894.16</ele>
        <time>2013-06-05T10:05:46Z</time>
      </trkpt>
      <trkpt lat="44.26392" lon="3.76945">
        <ele>897.53</ele>
        <time>2013-06-05T10:06:01Z</time>
      </trkpt>
      <trkpt lat="44.26378" lon="3.76946">
        <ele>900.41</ele>
        <time>2013-06-05T10:06:18Z</time>
      </trkpt>
      <trkpt lat="44.26377" lon="3.76953">
        <ele>903.78</ele>
        <time>2013-06-05T10:06:34Z</time>
      </trkpt>
      <trkpt lat="44.26378" lon="3.76967">
        <ele>906.66</ele>
        <time>2013-06-05T10:06:49Z</time>
      </trkpt>
      <trkpt lat="44.2638" lon="3.76979">
        <ele>908.58</ele>
        <time>2013-06-05T10:07:05Z</time>
      </trkpt>
      <trkpt lat="44.26386" lon="3.76996">
        <ele>909.54</ele>
        <time>2013-06-05T10:07:21Z</time>
      </trkpt>
      <trkpt lat="44.26386" lon="3.76998">
        <ele>909.54</ele>
        <time>2013-06-05T10:07:22Z</time>
      </trkpt>
      <trkpt lat="44.26387" lon="3.77012">
        <ele>910.99</ele>
        <time>2013-06-05T10:07:38Z</time>
      </trkpt>
      <trkpt lat="44.26386" lon="3.77013">
        <ele>910.99</ele>
        <time>2013-06-05T10:07:39Z</time>
      </trkpt>
      <trkpt lat="44.26381" lon="3.77021">
        <ele>911.95</ele>
        <time>2013-06-05T10:07:55Z</time>
      </trkpt>
      <trkpt lat="44.26379" lon="3.77022">
        <ele>913.39</ele>
        <time>2013-06-05T10:08:05Z</time>
      </trkpt>
      <trkpt lat="44.26372" lon="3.77023">
        <ele>915.79</ele>
        <time>2013-06-05T10:08:16Z</time>
      </trkpt>
      <trkpt lat="44.26364" lon="3.7703">
        <ele>917.24</ele>
        <time>2013-06-05T10:08:26Z</time>
      </trkpt>
      <trkpt lat="44.26361" lon="3.77028">
        <ele>918.2</ele>
        <time>2013-06-05T10:08:30Z</time>
      </trkpt>
      <trkpt lat="44.26348" lon="3.77012">
        <ele>919.16</ele>
        <time>2013-06-05T10:08:44Z</time>
      </trkpt>
      <trkpt lat="44.26338" lon="3.77004">
        <ele>920.6</ele>
        <time>2013-06-05T10:08:58Z</time>
      </trkpt>
      <trkpt lat="44.26332" lon="3.77006">
        <ele>922.52</ele>
        <time>2013-06-05T10:09:09Z</time>
      </trkpt>
      <trkpt lat="44.26329" lon="3.77008">
        <ele>923</ele>
        <time>2013-06-05T10:09:14Z</time>
      </trkpt>
      <trkpt lat="44.26314" lon="3.7701">
        <ele>925.41</ele>
        <time>2013-06-05T10:09:28Z</time>
      </trkpt>
      <trkpt lat="44.26305" lon="3.77008">
        <ele>928.29</ele>
        <time>2013-06-05T10:09:41Z</time>
      </trkpt>
      <trkpt lat="44.26296" lon="3.77004">
        <ele>929.73</ele>
        <time>2013-06-05T10:09:54Z</time>
      </trkpt>
      <trkpt lat="44.26294" lon="3.77006">
        <ele>932.14</ele>
        <time>2013-06-05T10:09:59Z</time>
      </trkpt>
      <trkpt lat="44.26293" lon="3.77006">
        <ele>932.14</ele>
        <time>2013-06-05T10:10:04Z</time>
      </trkpt>
      <trkpt lat="44.2629" lon="3.77006">
        <ele>932.14</ele>
        <time>2013-06-05T10:10:17Z</time>
      </trkpt>
      <trkpt lat="44.26288" lon="3.77007">
        <ele>932.14</ele>
        <time>2013-06-05T10:10:36Z</time>
      </trkpt>
      <trkpt lat="44.2629" lon="3.77004">
        <ele>931.17</ele>
        <time>2013-06-05T10:10:54Z</time>
      </trkpt>
      <trkpt lat="44.26287" lon="3.77004">
        <ele>930.69</ele>
        <time>2013-06-05T10:11:12Z</time>
      </trkpt>
      <trkpt lat="44.26289" lon="3.77">
        <ele>930.69</ele>
        <time>2013-06-05T10:11:35Z</time>
      </trkpt>
      <trkpt lat="44.26285" lon="3.76986">
        <ele>928.77</ele>
        <time>2013-06-05T10:11:48Z</time>
      </trkpt>
      <trkpt lat="44.2628" lon="3.76967">
        <ele>927.33</ele>
        <time>2013-06-05T10:12:01Z</time>
      </trkpt>
      <trkpt lat="44.2628" lon="3.76947">
        <ele>925.41</ele>
        <time>2013-06-05T10:12:15Z</time>
      </trkpt>
      <trkpt lat="44.26275" lon="3.76928">
        <ele>924.93</ele>
        <time>2013-06-05T10:12:27Z</time>
      </trkpt>
      <trkpt lat="44.26275" lon="3.76917">
        <ele>924.93</ele>
        <time>2013-06-05T10:12:39Z</time>
      </trkpt>
      <trkpt lat="44.26269" lon="3.76908">
        <ele>926.37</ele>
        <time>2013-06-05T10:12:54Z</time>
      </trkpt>
      <trkpt lat="44.26263" lon="3.76906">
        <ele>926.85</ele>
        <time>2013-06-05T10:13:13Z</time>
      </trkpt>
      <trkpt lat="44.26262" lon="3.76916">
        <ele>926.85</ele>
        <time>2013-06-05T10:13:30Z</time>
      </trkpt>
      <trkpt lat="44.26257" lon="3.7692">
        <ele>926.85</ele>
        <time>2013-06-05T10:14:00Z</time>
      </trkpt>
      <trkpt lat="44.26267" lon="3.76906">
        <ele>926.85</ele>
        <time>2013-06-05T10:14:31Z</time>
      </trkpt>
      <trkpt lat="44.2627" lon="3.76909">
        <ele>926.85</ele>
        <time>2013-06-05T10:14:36Z</time>
      </trkpt>
      <trkpt lat="44.26272" lon="3.76911">
        <ele>925.89</ele>
        <time>2013-06-05T10:14:38Z</time>
      </trkpt>
      <trkpt lat="44.26276" lon="3.76919">
        <ele>924.93</ele>
        <time>2013-06-05T10:14:47Z</time>
      </trkpt>
      <trkpt lat="44.26287" lon="3.7694">
        <ele>924.93</ele>
        <time>2013-06-05T10:15:01Z</time>
      </trkpt>
      <trkpt lat="44.26288" lon="3.76943">
        <ele>926.37</ele>
        <time>2013-06-05T10:15:03Z</time>
      </trkpt>
      <trkpt lat="44.26289" lon="3.76957">
        <ele>928.77</ele>
        <time>2013-06-05T10:15:16Z</time>
      </trkpt>
      <trkpt lat="44.26294" lon="3.76982">
        <ele>930.21</ele>
        <time>2013-06-05T10:15:31Z</time>
      </trkpt>
      <trkpt lat="44.26295" lon="3.77006">
        <ele>932.14</ele>
        <time>2013-06-05T10:15:44Z</time>
      </trkpt>
      <trkpt lat="44.26292" lon="3.77018">
        <ele>932.62</ele>
        <time>2013-06-05T10:15:52Z</time>
      </trkpt>
      <trkpt lat="44.26287" lon="3.77025">
        <ele>933.1</ele>
        <time>2013-06-05T10:15:58Z</time>
      </trkpt>
      <trkpt lat="44.26288" lon="3.77026">
        <ele>933.58</ele>
        <time>2013-06-05T10:16:06Z</time>
      </trkpt>
      <trkpt lat="44.26283" lon="3.77033">
        <ele>935.98</ele>
        <time>2013-06-05T10:16:18Z</time>
      </trkpt>
      <trkpt lat="44.26281" lon="3.77042">
        <ele>939.35</ele>
        <time>2013-06-05T10:16:31Z</time>
      </trkpt>
      <trkpt lat="44.2627" lon="3.77054">
        <ele>942.23</ele>
        <time>2013-06-05T10:16:45Z</time>
      </trkpt>
      <trkpt lat="44.26268" lon="3.77058">
        <ele>942.23</ele>
        <time>2013-06-05T10:16:49Z</time>
      </trkpt>
      <trkpt lat="44.2626" lon="3.77072">
        <ele>944.15</ele>
        <time>2013-06-05T10:17:01Z</time>
      </trkpt>
      <trkpt lat="44.26252" lon="3.77086">
        <ele>945.59</ele>
        <time>2013-06-05T10:17:14Z</time>
      </trkpt>
      <trkpt lat="44.26243" lon="3.77097">
        <ele>948</ele>
        <time>2013-06-05T10:17:27Z</time>
      </trkpt>
      <trkpt lat="44.26233" lon="3.77102">
        <ele>948.96</ele>
        <time>2013-06-05T10:17:36Z</time>
      </trkpt>
      <trkpt lat="44.2622" lon="3.77114">
        <ele>951.36</ele>
        <time>2013-06-05T10:17:46Z</time>
      </trkpt>
      <trkpt lat="44.26203" lon="3.77119">
        <ele>952.8</ele>
        <time>2013-06-05T10:17:58Z</time>
      </trkpt>
      <trkpt lat="44.26189" lon="3.77125">
        <ele>954.73</ele>
        <time>2013-06-05T10:18:10Z</time>
      </trkpt>
      <trkpt lat="44.26169" lon="3.77128">
        <ele>957.13</ele>
        <time>2013-06-05T10:18:24Z</time>
      </trkpt>
      <trkpt lat="44.26152" lon="3.77129">
        <ele>958.57</ele>
        <time>2013-06-05T10:18:39Z</time>
      </trkpt>
      <trkpt lat="44.26133" lon="3.77129">
        <ele>961.46</ele>
        <time>2013-06-05T10:18:55Z</time>
      </trkpt>
      <trkpt lat="44.26119" lon="3.77129">
        <ele>963.38</ele>
        <time>2013-06-05T10:19:08Z</time>
      </trkpt>
      <trkpt lat="44.26109" lon="3.77128">
        <ele>965.3</ele>
        <time>2013-06-05T10:19:20Z</time>
      </trkpt>
      <trkpt lat="44.26097" lon="3.77132">
        <ele>967.22</ele>
        <time>2013-06-05T10:19:32Z</time>
      </trkpt>
      <trkpt lat="44.26086" lon="3.77134">
        <ele>969.63</ele>
        <time>2013-06-05T10:19:44Z</time>
      </trkpt>
      <trkpt lat="44.26078" lon="3.77137">
        <ele>972.51</ele>
        <time>2013-06-05T10:19:55Z</time>
      </trkpt>
      <trkpt lat="44.26074" lon="3.77138">
        <ele>972.99</ele>
        <time>2013-06-05T10:20:04Z</time>
      </trkpt>
      <trkpt lat="44.26056" lon="3.77145">
        <ele>974.43</ele>
        <time>2013-06-05T10:20:16Z</time>
      </trkpt>
      <trkpt lat="44.26042" lon="3.77144">
        <ele>976.36</ele>
        <time>2013-06-05T10:20:26Z</time>
      </trkpt>
      <trkpt lat="44.26041" lon="3.77143">
        <ele>976.36</ele>
        <time>2013-06-05T10:20:27Z</time>
      </trkpt>
      <trkpt lat="44.26029" lon="3.77143">
        <ele>978.28</ele>
        <time>2013-06-05T10:20:37Z</time>
      </trkpt>
      <trkpt lat="44.26017" lon="3.77144">
        <ele>980.68</ele>
        <time>2013-06-05T10:20:50Z</time>
      </trkpt>
      <trkpt lat="44.26001" lon="3.77146">
        <ele>983.57</ele>
        <time>2013-06-05T10:21:05Z</time>
      </trkpt>
      <trkpt lat="44.25992" lon="3.77145">
        <ele>986.45</ele>
        <time>2013-06-05T10:21:19Z</time>
      </trkpt>
      <trkpt lat="44.2598" lon="3.77144">
        <ele>987.41</ele>
        <time>2013-06-05T10:21:32Z</time>
      </trkpt>
      <trkpt lat="44.25973" lon="3.77141">
        <ele>987.89</ele>
        <time>2013-06-05T10:21:50Z</time>
      </trkpt>
      <trkpt lat="44.25968" lon="3.77143">
        <ele>990.3</ele>
        <time>2013-06-05T10:22:01Z</time>
      </trkpt>
      <trkpt lat="44.25958" lon="3.77147">
        <ele>992.22</ele>
        <time>2013-06-05T10:22:11Z</time>
      </trkpt>
      <trkpt lat="44.25948" lon="3.77149">
        <ele>994.62</ele>
        <time>2013-06-05T10:22:21Z</time>
      </trkpt>
      <trkpt lat="44.25944" lon="3.77151">
        <ele>995.58</ele>
        <time>2013-06-05T10:22:24Z</time>
      </trkpt>
      <trkpt lat="44.25934" lon="3.77155">
        <ele>997.99</ele>
        <time>2013-06-05T10:22:35Z</time>
      </trkpt>
      <trkpt lat="44.2592" lon="3.77157">
        <ele>999.91</ele>
        <time>2013-06-05T10:22:46Z</time>
      </trkpt>
      <trkpt lat="44.25914" lon="3.77161">
        <ele>1001.83</ele>
        <time>2013-06-05T10:22:57Z</time>
      </trkpt>
      <trkpt lat="44.259" lon="3.77163">
        <ele>1004.72</ele>
        <time>2013-06-05T10:23:08Z</time>
      </trkpt>
      <trkpt lat="44.25886" lon="3.77166">
        <ele>1007.12</ele>
        <time>2013-06-05T10:23:21Z</time>
      </trkpt>
      <trkpt lat="44.25874" lon="3.7717">
        <ele>1009.04</ele>
        <time>2013-06-05T10:23:33Z</time>
      </trkpt>
      <trkpt lat="44.25864" lon="3.77179">
        <ele>1011.44</ele>
        <time>2013-06-05T10:23:45Z</time>
      </trkpt>
      <trkpt lat="44.25853" lon="3.7719">
        <ele>1012.41</ele>
        <time>2013-06-05T10:23:57Z</time>
      </trkpt>
      <trkpt lat="44.25843" lon="3.77202">
        <ele>1014.81</ele>
        <time>2013-06-05T10:24:11Z</time>
      </trkpt>
      <trkpt lat="44.25835" lon="3.77213">
        <ele>1014.81</ele>
        <time>2013-06-05T10:24:21Z</time>
      </trkpt>
      <trkpt lat="44.25835" lon="3.77215">
        <ele>1014.81</ele>
        <time>2013-06-05T10:24:24Z</time>
      </trkpt>
      <trkpt lat="44.2584" lon="3.77222">
        <ele>1014.81</ele>
        <time>2013-06-05T10:24:39Z</time>
      </trkpt>
      <trkpt lat="44.25843" lon="3.77221">
        <ele>1014.81</ele>
        <time>2013-06-05T10:24:54Z</time>
      </trkpt>
      <trkpt lat="44.25845" lon="3.77221">
        <ele>1015.29</ele>
        <time>2013-06-05T10:25:05Z</time>
      </trkpt>
      <trkpt lat="44.25847" lon="3.7722">
        <ele>1014.81</ele>
        <time>2013-06-05T10:25:36Z</time>
      </trkpt>
      <trkpt lat="44.25847" lon="3.77225">
        <ele>1014.81</ele>
        <time>2013-06-05T10:25:53Z</time>
      </trkpt>
      <trkpt lat="44.2584" lon="3.77228">
        <ele>1014.81</ele>
        <time>2013-06-05T10:26:04Z</time>
      </trkpt>
      <trkpt lat="44.25838" lon="3.77227">
        <ele>1014.33</ele>
        <time>2013-06-05T10:26:10Z</time>
      </trkpt>
      <trkpt lat="44.25839" lon="3.77226">
        <ele>1015.29</ele>
        <time>2013-06-05T10:26:24Z</time>
      </trkpt>
      <trkpt lat="44.25843" lon="3.77228">
        <ele>1013.85</ele>
        <time>2013-06-05T10:26:27Z</time>
      </trkpt>
      <trkpt lat="44.25845" lon="3.77226">
        <ele>1013.85</ele>
        <time>2013-06-05T10:26:40Z</time>
      </trkpt>
      <trkpt lat="44.25841" lon="3.77224">
        <ele>1013.85</ele>
        <time>2013-06-05T10:26:43Z</time>
      </trkpt>
      <trkpt lat="44.25825" lon="3.77227">
        <ele>1013.85</ele>
        <time>2013-06-05T10:26:57Z</time>
      </trkpt>
      <trkpt lat="44.25807" lon="3.77222">
        <ele>1013.85</ele>
        <time>2013-06-05T10:27:11Z</time>
      </trkpt>
      <trkpt lat="44.25799" lon="3.77219">
        <ele>1014.81</ele>
        <time>2013-06-05T10:27:21Z</time>
      </trkpt>
      <trkpt lat="44.25803" lon="3.77218">
        <ele>1015.29</ele>
        <time>2013-06-05T10:27:27Z</time>
      </trkpt>
      <trkpt lat="44.25815" lon="3.77213">
        <ele>1013.85</ele>
        <time>2013-06-05T10:27:39Z</time>
      </trkpt>
      <trkpt lat="44.25828" lon="3.77205">
        <ele>1012.89</ele>
        <time>2013-06-05T10:27:55Z</time>
      </trkpt>
      <trkpt lat="44.25835" lon="3.77196">
        <ele>1011.44</ele>
        <time>2013-06-05T10:28:09Z</time>
      </trkpt>
      <trkpt lat="44.25837" lon="3.77196">
        <ele>1011.44</ele>
        <time>2013-06-05T10:28:24Z</time>
      </trkpt>
      <trkpt lat="44.25838" lon="3.77195">
        <ele>1011.44</ele>
        <time>2013-06-05T10:28:39Z</time>
      </trkpt>
      <trkpt lat="44.25844" lon="3.77193">
        <ele>1011.44</ele>
        <time>2013-06-05T10:28:57Z</time>
      </trkpt>
      <trkpt lat="44.25845" lon="3.77195">
        <ele>1010.96</ele>
        <time>2013-06-05T10:29:27Z</time>
      </trkpt>
      <trkpt lat="44.25844" lon="3.77199">
        <ele>1010.96</ele>
        <time>2013-06-05T10:29:39Z</time>
      </trkpt>
      <trkpt lat="44.25835" lon="3.77202">
        <ele>1012.41</ele>
        <time>2013-06-05T10:29:52Z</time>
      </trkpt>
      <trkpt lat="44.25831" lon="3.77209">
        <ele>1013.37</ele>
        <time>2013-06-05T10:30:01Z</time>
      </trkpt>
      <trkpt lat="44.25812" lon="3.7721">
        <ele>1014.33</ele>
        <time>2013-06-05T10:30:12Z</time>
      </trkpt>
      <trkpt lat="44.2581" lon="3.77204">
        <ele>1014.81</ele>
        <time>2013-06-05T10:30:16Z</time>
      </trkpt>
      <trkpt lat="44.25808" lon="3.77199">
        <ele>1014.81</ele>
        <time>2013-06-05T10:30:23Z</time>
      </trkpt>
      <trkpt lat="44.25799" lon="3.77196">
        <ele>1015.77</ele>
        <time>2013-06-05T10:30:36Z</time>
      </trkpt>
      <trkpt lat="44.25795" lon="3.77186">
        <ele>1017.21</ele>
        <time>2013-06-05T10:30:53Z</time>
      </trkpt>
      <trkpt lat="44.25791" lon="3.77174">
        <ele>1019.13</ele>
        <time>2013-06-05T10:31:05Z</time>
      </trkpt>
      <trkpt lat="44.25786" lon="3.77165">
        <ele>1020.1</ele>
        <time>2013-06-05T10:31:14Z</time>
      </trkpt>
      <trkpt lat="44.25783" lon="3.77163">
        <ele>1021.06</ele>
        <time>2013-06-05T10:31:19Z</time>
      </trkpt>
      <trkpt lat="44.25775" lon="3.77158">
        <ele>1022.98</ele>
        <time>2013-06-05T10:31:30Z</time>
      </trkpt>
      <trkpt lat="44.25766" lon="3.77154">
        <ele>1024.9</ele>
        <time>2013-06-05T10:31:43Z</time>
      </trkpt>
      <trkpt lat="44.25754" lon="3.77149">
        <ele>1027.79</ele>
        <time>2013-06-05T10:31:57Z</time>
      </trkpt>
      <trkpt lat="44.25742" lon="3.77139">
        <ele>1029.23</ele>
        <time>2013-06-05T10:32:10Z</time>
      </trkpt>
      <trkpt lat="44.25729" lon="3.77134">
        <ele>1032.59</ele>
        <time>2013-06-05T10:32:22Z</time>
      </trkpt>
      <trkpt lat="44.25727" lon="3.77131">
        <ele>1033.07</ele>
        <time>2013-06-05T10:32:25Z</time>
      </trkpt>
      <trkpt lat="44.25724" lon="3.77132">
        <ele>1033.55</ele>
        <time>2013-06-05T10:32:29Z</time>
      </trkpt>
      <trkpt lat="44.25717" lon="3.77119">
        <ele>1035.48</ele>
        <time>2013-06-05T10:32:40Z</time>
      </trkpt>
      <trkpt lat="44.25704" lon="3.77106">
        <ele>1038.36</ele>
        <time>2013-06-05T10:32:55Z</time>
      </trkpt>
      <trkpt lat="44.25696" lon="3.77102">
        <ele>1039.8</ele>
        <time>2013-06-05T10:33:07Z</time>
      </trkpt>
      <trkpt lat="44.25683" lon="3.77088">
        <ele>1041.73</ele>
        <time>2013-06-05T10:33:22Z</time>
      </trkpt>
      <trkpt lat="44.25671" lon="3.77081">
        <ele>1043.65</ele>
        <time>2013-06-05T10:33:34Z</time>
      </trkpt>
      <trkpt lat="44.25658" lon="3.77068">
        <ele>1045.57</ele>
        <time>2013-06-05T10:33:49Z</time>
      </trkpt>
      <trkpt lat="44.25657" lon="3.77068">
        <ele>1045.57</ele>
        <time>2013-06-05T10:33:50Z</time>
      </trkpt>
      <trkpt lat="44.25655" lon="3.77067">
        <ele>1046.53</ele>
        <time>2013-06-05T10:33:52Z</time>
      </trkpt>
      <trkpt lat="44.25646" lon="3.77055">
        <ele>1048.45</ele>
        <time>2013-06-05T10:34:02Z</time>
      </trkpt>
      <trkpt lat="44.25637" lon="3.77045">
        <ele>1049.9</ele>
        <time>2013-06-05T10:34:12Z</time>
      </trkpt>
      <trkpt lat="44.25632" lon="3.77039">
        <ele>1050.86</ele>
        <time>2013-06-05T10:34:19Z</time>
      </trkpt>
      <trkpt lat="44.25621" lon="3.77029">
        <ele>1053.74</ele>
        <time>2013-06-05T10:34:33Z</time>
      </trkpt>
      <trkpt lat="44.25612" lon="3.77023">
        <ele>1056.15</ele>
        <time>2013-06-05T10:34:44Z</time>
      </trkpt>
      <trkpt lat="44.25608" lon="3.7702">
        <ele>1056.15</ele>
        <time>2013-06-05T10:34:48Z</time>
      </trkpt>
      <trkpt lat="44.25592" lon="3.77007">
        <ele>1058.55</ele>
        <time>2013-06-05T10:35:03Z</time>
      </trkpt>
      <trkpt lat="44.25581" lon="3.77002">
        <ele>1060.95</ele>
        <time>2013-06-05T10:35:18Z</time>
      </trkpt>
      <trkpt lat="44.25567" lon="3.76996">
        <ele>1062.87</ele>
        <time>2013-06-05T10:35:31Z</time>
      </trkpt>
      <trkpt lat="44.25563" lon="3.76995">
        <ele>1063.36</ele>
        <time>2013-06-05T10:35:35Z</time>
      </trkpt>
      <trkpt lat="44.25555" lon="3.76995">
        <ele>1064.32</ele>
        <time>2013-06-05T10:35:41Z</time>
      </trkpt>
      <trkpt lat="44.25544" lon="3.76981">
        <ele>1066.24</ele>
        <time>2013-06-05T10:35:54Z</time>
      </trkpt>
      <trkpt lat="44.25529" lon="3.76972">
        <ele>1068.16</ele>
        <time>2013-06-05T10:36:08Z</time>
      </trkpt>
      <trkpt lat="44.25514" lon="3.7696">
        <ele>1070.57</ele>
        <time>2013-06-05T10:36:21Z</time>
      </trkpt>
      <trkpt lat="44.255" lon="3.76948">
        <ele>1072.97</ele>
        <time>2013-06-05T10:36:35Z</time>
      </trkpt>
      <trkpt lat="44.25492" lon="3.76938">
        <ele>1075.37</ele>
        <time>2013-06-05T10:36:48Z</time>
      </trkpt>
      <trkpt lat="44.25487" lon="3.76919">
        <ele>1077.29</ele>
        <time>2013-06-05T10:37:01Z</time>
      </trkpt>
      <trkpt lat="44.25482" lon="3.76909">
        <ele>1078.74</ele>
        <time>2013-06-05T10:37:15Z</time>
      </trkpt>
      <trkpt lat="44.25476" lon="3.76903">
        <ele>1079.7</ele>
        <time>2013-06-05T10:37:22Z</time>
      </trkpt>
      <trkpt lat="44.25464" lon="3.76891">
        <ele>1081.62</ele>
        <time>2013-06-05T10:37:34Z</time>
      </trkpt>
      <trkpt lat="44.25463" lon="3.7689">
        <ele>1081.62</ele>
        <time>2013-06-05T10:37:35Z</time>
      </trkpt>
      <trkpt lat="44.25459" lon="3.76885">
        <ele>1082.58</ele>
        <time>2013-06-05T10:37:39Z</time>
      </trkpt>
      <trkpt lat="44.25451" lon="3.76865">
        <ele>1084.5</ele>
        <time>2013-06-05T10:37:54Z</time>
      </trkpt>
      <trkpt lat="44.25447" lon="3.76846">
        <ele>1085.95</ele>
        <time>2013-06-05T10:38:05Z</time>
      </trkpt>
      <trkpt lat="44.25441" lon="3.76833">
        <ele>1087.39</ele>
        <time>2013-06-05T10:38:17Z</time>
      </trkpt>
      <trkpt lat="44.25433" lon="3.7682">
        <ele>1090.27</ele>
        <time>2013-06-05T10:38:30Z</time>
      </trkpt>
      <trkpt lat="44.25424" lon="3.76785">
        <ele>1092.2</ele>
        <time>2013-06-05T10:38:44Z</time>
      </trkpt>
      <trkpt lat="44.25418" lon="3.7677">
        <ele>1095.08</ele>
        <time>2013-06-05T10:38:57Z</time>
      </trkpt>
      <trkpt lat="44.2541" lon="3.76761">
        <ele>1097.48</ele>
        <time>2013-06-05T10:39:08Z</time>
      </trkpt>
      <trkpt lat="44.25406" lon="3.76759">
        <ele>1097.48</ele>
        <time>2013-06-05T10:39:12Z</time>
      </trkpt>
      <trkpt lat="44.25399" lon="3.76756">
        <ele>1098.44</ele>
        <time>2013-06-05T10:39:23Z</time>
      </trkpt>
      <trkpt lat="44.2539" lon="3.76736">
        <ele>1099.89</ele>
        <time>2013-06-05T10:39:33Z</time>
      </trkpt>
      <trkpt lat="44.25382" lon="3.76712">
        <ele>1100.37</ele>
        <time>2013-06-05T10:39:43Z</time>
      </trkpt>
      <trkpt lat="44.25369" lon="3.76683">
        <ele>1102.29</ele>
        <time>2013-06-05T10:40:01Z</time>
      </trkpt>
      <trkpt lat="44.2535" lon="3.76657">
        <ele>1103.73</ele>
        <time>2013-06-05T10:40:14Z</time>
      </trkpt>
      <trkpt lat="44.25343" lon="3.76643">
        <ele>1104.21</ele>
        <time>2013-06-05T10:40:27Z</time>
      </trkpt>
      <trkpt lat="44.25341" lon="3.76639">
        <ele>1104.21</ele>
        <time>2013-06-05T10:40:30Z</time>
      </trkpt>
      <trkpt lat="44.25336" lon="3.76629">
        <ele>1106.13</ele>
        <time>2013-06-05T10:40:39Z</time>
      </trkpt>
      <trkpt lat="44.2533" lon="3.76608">
        <ele>1108.06</ele>
        <time>2013-06-05T10:40:47Z</time>
      </trkpt>
      <trkpt lat="44.25329" lon="3.76596">
        <ele>1109.02</ele>
        <time>2013-06-05T10:40:53Z</time>
      </trkpt>
      <trkpt lat="44.25323" lon="3.76578">
        <ele>1110.46</ele>
        <time>2013-06-05T10:41:04Z</time>
      </trkpt>
      <trkpt lat="44.2532" lon="3.76574">
        <ele>1111.42</ele>
        <time>2013-06-05T10:41:09Z</time>
      </trkpt>
      <trkpt lat="44.25303" lon="3.76584">
        <ele>1110.94</ele>
        <time>2013-06-05T10:41:24Z</time>
      </trkpt>
      <trkpt lat="44.25279" lon="3.76598">
        <ele>1110.94</ele>
        <time>2013-06-05T10:41:44Z</time>
      </trkpt>
      <trkpt lat="44.25258" lon="3.7661">
        <ele>1110.94</ele>
        <time>2013-06-05T10:42:01Z</time>
      </trkpt>
      <trkpt lat="44.25235" lon="3.76625">
        <ele>1110.46</ele>
        <time>2013-06-05T10:42:21Z</time>
      </trkpt>
      <trkpt lat="44.25216" lon="3.76642">
        <ele>1110.46</ele>
        <time>2013-06-05T10:42:39Z</time>
      </trkpt>
      <trkpt lat="44.2519" lon="3.76663">
        <ele>1111.42</ele>
        <time>2013-06-05T10:43:00Z</time>
      </trkpt>
      <trkpt lat="44.25172" lon="3.76676">
        <ele>1111.9</ele>
        <time>2013-06-05T10:43:15Z</time>
      </trkpt>
      <trkpt lat="44.25148" lon="3.76687">
        <ele>1111.9</ele>
        <time>2013-06-05T10:43:32Z</time>
      </trkpt>
      <trkpt lat="44.25129" lon="3.767">
        <ele>1109.98</ele>
        <time>2013-06-05T10:43:49Z</time>
      </trkpt>
      <trkpt lat="44.25107" lon="3.76716">
        <ele>1107.58</ele>
        <time>2013-06-05T10:44:09Z</time>
      </trkpt>
      <trkpt lat="44.25089" lon="3.76733">
        <ele>1105.65</ele>
        <time>2013-06-05T10:44:26Z</time>
      </trkpt>
      <trkpt lat="44.25068" lon="3.76745">
        <ele>1102.29</ele>
        <time>2013-06-05T10:44:43Z</time>
      </trkpt>
      <trkpt lat="44.25042" lon="3.76756">
        <ele>1100.85</ele>
        <time>2013-06-05T10:44:59Z</time>
      </trkpt>
      <trkpt lat="44.25026" lon="3.76768">
        <ele>1098.92</ele>
        <time>2013-06-05T10:45:13Z</time>
      </trkpt>
      <trkpt lat="44.25021" lon="3.76771">
        <ele>1098.92</ele>
        <time>2013-06-05T10:45:17Z</time>
      </trkpt>
      <trkpt lat="44.25016" lon="3.76773">
        <ele>1098.44</ele>
        <time>2013-06-05T10:45:21Z</time>
      </trkpt>
      <trkpt lat="44.24993" lon="3.76779">
        <ele>1096.52</ele>
        <time>2013-06-05T10:45:38Z</time>
      </trkpt>
      <trkpt lat="44.24976" lon="3.76784">
        <ele>1095.08</ele>
        <time>2013-06-05T10:45:52Z</time>
      </trkpt>
      <trkpt lat="44.24955" lon="3.76787">
        <ele>1093.64</ele>
        <time>2013-06-05T10:46:07Z</time>
      </trkpt>
      <trkpt lat="44.2493" lon="3.76791">
        <ele>1092.68</ele>
        <time>2013-06-05T10:46:25Z</time>
      </trkpt>
      <trkpt lat="44.24909" lon="3.76786">
        <ele>1092.2</ele>
        <time>2013-06-05T10:46:41Z</time>
      </trkpt>
      <trkpt lat="44.24898" lon="3.76778">
        <ele>1091.71</ele>
        <time>2013-06-05T10:46:49Z</time>
      </trkpt>
      <trkpt lat="44.24893" lon="3.76775">
        <ele>1091.71</ele>
        <time>2013-06-05T10:46:53Z</time>
      </trkpt>
      <trkpt lat="44.24869" lon="3.76763">
        <ele>1090.75</ele>
        <time>2013-06-05T10:47:09Z</time>
      </trkpt>
      <trkpt lat="44.24856" lon="3.76757">
        <ele>1090.27</ele>
        <time>2013-06-05T10:47:20Z</time>
      </trkpt>
      <trkpt lat="44.24846" lon="3.76752">
        <ele>1090.27</ele>
        <time>2013-06-05T10:47:32Z</time>
      </trkpt>
      <trkpt lat="44.24842" lon="3.76742">
        <ele>1089.79</ele>
        <time>2013-06-05T10:47:42Z</time>
      </trkpt>
      <trkpt lat="44.24849" lon="3.76728">
        <ele>1089.31</ele>
        <time>2013-06-05T10:47:56Z</time>
      </trkpt>
      <trkpt lat="44.2486" lon="3.76709">
        <ele>1089.31</ele>
        <time>2013-06-05T10:48:11Z</time>
      </trkpt>
      <trkpt lat="44.24865" lon="3.76696">
        <ele>1088.83</ele>
        <time>2013-06-05T10:48:19Z</time>
      </trkpt>
      <trkpt lat="44.24874" lon="3.76679">
        <ele>1088.35</ele>
        <time>2013-06-05T10:48:32Z</time>
      </trkpt>
      <trkpt lat="44.24885" lon="3.76664">
        <ele>1088.35</ele>
        <time>2013-06-05T10:48:45Z</time>
      </trkpt>
      <trkpt lat="44.24885" lon="3.76663">
        <ele>1088.35</ele>
        <time>2013-06-05T10:48:46Z</time>
      </trkpt>
      <trkpt lat="44.24894" lon="3.76641">
        <ele>1088.35</ele>
        <time>2013-06-05T10:48:57Z</time>
      </trkpt>
      <trkpt lat="44.24909" lon="3.76615">
        <ele>1087.87</ele>
        <time>2013-06-05T10:49:12Z</time>
      </trkpt>
      <trkpt lat="44.24912" lon="3.76609">
        <ele>1087.39</ele>
        <time>2013-06-05T10:49:15Z</time>
      </trkpt>
      <trkpt lat="44.24916" lon="3.76597">
        <ele>1087.39</ele>
        <time>2013-06-05T10:49:20Z</time>
      </trkpt>
      <trkpt lat="44.24924" lon="3.76577">
        <ele>1086.43</ele>
        <time>2013-06-05T10:49:33Z</time>
      </trkpt>
      <trkpt lat="44.24933" lon="3.76554">
        <ele>1085.95</ele>
        <time>2013-06-05T10:49:47Z</time>
      </trkpt>
      <trkpt lat="44.2494" lon="3.76532">
        <ele>1085.47</ele>
        <time>2013-06-05T10:49:59Z</time>
      </trkpt>
      <trkpt lat="44.24947" lon="3.76517">
        <ele>1085.47</ele>
        <time>2013-06-05T10:50:07Z</time>
      </trkpt>
      <trkpt lat="44.24948" lon="3.76514">
        <ele>1085.47</ele>
        <time>2013-06-05T10:50:09Z</time>
      </trkpt>
      <trkpt lat="44.24958" lon="3.76488">
        <ele>1084.5</ele>
        <time>2013-06-05T10:50:25Z</time>
      </trkpt>
      <trkpt lat="44.24968" lon="3.76462">
        <ele>1084.02</ele>
        <time>2013-06-05T10:50:40Z</time>
      </trkpt>
      <trkpt lat="44.24968" lon="3.76459">
        <ele>1084.02</ele>
        <time>2013-06-05T10:50:42Z</time>
      </trkpt>
      <trkpt lat="44.24972" lon="3.76432">
        <ele>1083.54</ele>
        <time>2013-06-05T10:50:56Z</time>
      </trkpt>
      <trkpt lat="44.24977" lon="3.76407">
        <ele>1083.06</ele>
        <time>2013-06-05T10:51:10Z</time>
      </trkpt>
      <trkpt lat="44.24978" lon="3.76392">
        <ele>1083.06</ele>
        <time>2013-06-05T10:51:18Z</time>
      </trkpt>
      <trkpt lat="44.2498" lon="3.76364">
        <ele>1083.06</ele>
        <time>2013-06-05T10:51:31Z</time>
      </trkpt>
      <trkpt lat="44.2498" lon="3.76352">
        <ele>1084.5</ele>
        <time>2013-06-05T10:51:37Z</time>
      </trkpt>
      <trkpt lat="44.24979" lon="3.76348">
        <ele>1084.5</ele>
        <time>2013-06-05T10:51:39Z</time>
      </trkpt>
      <trkpt lat="44.24976" lon="3.76341">
        <ele>1084.5</ele>
        <time>2013-06-05T10:51:44Z</time>
      </trkpt>
      <trkpt lat="44.24973" lon="3.76315">
        <ele>1084.99</ele>
        <time>2013-06-05T10:51:58Z</time>
      </trkpt>
      <trkpt lat="44.24964" lon="3.763">
        <ele>1085.47</ele>
        <time>2013-06-05T10:52:11Z</time>
      </trkpt>
      <trkpt lat="44.24952" lon="3.7628">
        <ele>1085.47</ele>
        <time>2013-06-05T10:52:24Z</time>
      </trkpt>
      <trkpt lat="44.24948" lon="3.76272">
        <ele>1085.47</ele>
        <time>2013-06-05T10:52:30Z</time>
      </trkpt>
      <trkpt lat="44.24934" lon="3.76258">
        <ele>1085.47</ele>
        <time>2013-06-05T10:52:43Z</time>
      </trkpt>
      <trkpt lat="44.24933" lon="3.76256">
        <ele>1085.95</ele>
        <time>2013-06-05T10:52:44Z</time>
      </trkpt>
      <trkpt lat="44.24929" lon="3.76247">
        <ele>1085.95</ele>
        <time>2013-06-05T10:52:49Z</time>
      </trkpt>
      <trkpt lat="44.24921" lon="3.76231">
        <ele>1086.43</ele>
        <time>2013-06-05T10:53:00Z</time>
      </trkpt>
      <trkpt lat="44.24909" lon="3.76208">
        <ele>1086.91</ele>
        <time>2013-06-05T10:53:15Z</time>
      </trkpt>
      <trkpt lat="44.24904" lon="3.76198">
        <ele>1086.91</ele>
        <time>2013-06-05T10:53:25Z</time>
      </trkpt>
      <trkpt lat="44.24896" lon="3.76179">
        <ele>1086.91</ele>
        <time>2013-06-05T10:53:34Z</time>
      </trkpt>
      <trkpt lat="44.24898" lon="3.76158">
        <ele>1087.39</ele>
        <time>2013-06-05T10:53:45Z</time>
      </trkpt>
      <trkpt lat="44.24911" lon="3.76135">
        <ele>1087.87</ele>
        <time>2013-06-05T10:53:59Z</time>
      </trkpt>
      <trkpt lat="44.24918" lon="3.76116">
        <ele>1087.87</ele>
        <time>2013-06-05T10:54:08Z</time>
      </trkpt>
      <trkpt lat="44.24921" lon="3.7611">
        <ele>1087.87</ele>
        <time>2013-06-05T10:54:11Z</time>
      </trkpt>
      <trkpt lat="44.24932" lon="3.76092">
        <ele>1088.35</ele>
        <time>2013-06-05T10:54:24Z</time>
      </trkpt>
      <trkpt lat="44.24938" lon="3.76087">
        <ele>1088.35</ele>
        <time>2013-06-05T10:54:29Z</time>
      </trkpt>
      <trkpt lat="44.24956" lon="3.76067">
        <ele>1090.27</ele>
        <time>2013-06-05T10:54:47Z</time>
      </trkpt>
      <trkpt lat="44.24964" lon="3.76048">
        <ele>1090.75</ele>
        <time>2013-06-05T10:55:00Z</time>
      </trkpt>
      <trkpt lat="44.24962" lon="3.76015">
        <ele>1091.71</ele>
        <time>2013-06-05T10:55:19Z</time>
      </trkpt>
      <trkpt lat="44.24952" lon="3.75991">
        <ele>1093.64</ele>
        <time>2013-06-05T10:55:36Z</time>
      </trkpt>
      <trkpt lat="44.24946" lon="3.75985">
        <ele>1093.64</ele>
        <time>2013-06-05T10:55:41Z</time>
      </trkpt>
      <trkpt lat="44.2494" lon="3.75979">
        <ele>1093.64</ele>
        <time>2013-06-05T10:55:46Z</time>
      </trkpt>
      <trkpt lat="44.24919" lon="3.75961">
        <ele>1094.12</ele>
        <time>2013-06-05T10:56:04Z</time>
      </trkpt>
      <trkpt lat="44.24898" lon="3.75946">
        <ele>1094.12</ele>
        <time>2013-06-05T10:56:21Z</time>
      </trkpt>
      <trkpt lat="44.2488" lon="3.75929">
        <ele>1094.12</ele>
        <time>2013-06-05T10:56:37Z</time>
      </trkpt>
      <trkpt lat="44.24865" lon="3.75917">
        <ele>1092.68</ele>
        <time>2013-06-05T10:56:49Z</time>
      </trkpt>
      <trkpt lat="44.24846" lon="3.75898">
        <ele>1091.23</ele>
        <time>2013-06-05T10:57:05Z</time>
      </trkpt>
      <trkpt lat="44.24826" lon="3.75882">
        <ele>1089.31</ele>
        <time>2013-06-05T10:57:21Z</time>
      </trkpt>
      <trkpt lat="44.24808" lon="3.75861">
        <ele>1087.87</ele>
        <time>2013-06-05T10:57:36Z</time>
      </trkpt>
      <trkpt lat="44.24785" lon="3.75844">
        <ele>1086.91</ele>
        <time>2013-06-05T10:57:55Z</time>
      </trkpt>
      <trkpt lat="44.24762" lon="3.75826">
        <ele>1085.47</ele>
        <time>2013-06-05T10:58:13Z</time>
      </trkpt>
      <trkpt lat="44.24741" lon="3.75808">
        <ele>1084.5</ele>
        <time>2013-06-05T10:58:31Z</time>
      </trkpt>
      <trkpt lat="44.24722" lon="3.75789">
        <ele>1084.5</ele>
        <time>2013-06-05T10:58:48Z</time>
      </trkpt>
      <trkpt lat="44.24705" lon="3.75771">
        <ele>1084.02</ele>
        <time>2013-06-05T10:59:04Z</time>
      </trkpt>
      <trkpt lat="44.24693" lon="3.75754">
        <ele>1084.99</ele>
        <time>2013-06-05T10:59:17Z</time>
      </trkpt>
      <trkpt lat="44.24678" lon="3.75738">
        <ele>1085.47</ele>
        <time>2013-06-05T10:59:30Z</time>
      </trkpt>
      <trkpt lat="44.24661" lon="3.75728">
        <ele>1085.95</ele>
        <time>2013-06-05T10:59:43Z</time>
      </trkpt>
      <trkpt lat="44.24646" lon="3.7572">
        <ele>1084.5</ele>
        <time>2013-06-05T10:59:52Z</time>
      </trkpt>
      <trkpt lat="44.2462" lon="3.75713">
        <ele>1083.06</ele>
        <time>2013-06-05T11:00:11Z</time>
      </trkpt>
      <trkpt lat="44.24614" lon="3.75712">
        <ele>1082.1</ele>
        <time>2013-06-05T11:00:15Z</time>
      </trkpt>
      <trkpt lat="44.24591" lon="3.75721">
        <ele>1081.62</ele>
        <time>2013-06-05T11:00:33Z</time>
      </trkpt>
      <trkpt lat="44.24575" lon="3.75727">
        <ele>1079.22</ele>
        <time>2013-06-05T11:00:45Z</time>
      </trkpt>
      <trkpt lat="44.24571" lon="3.75727">
        <ele>1079.22</ele>
        <time>2013-06-05T11:00:48Z</time>
      </trkpt>
      <trkpt lat="44.24558" lon="3.75732">
        <ele>1078.26</ele>
        <time>2013-06-05T11:00:55Z</time>
      </trkpt>
      <trkpt lat="44.24535" lon="3.75746">
        <ele>1075.85</ele>
        <time>2013-06-05T11:01:13Z</time>
      </trkpt>
      <trkpt lat="44.24519" lon="3.75768">
        <ele>1073.93</ele>
        <time>2013-06-05T11:01:29Z</time>
      </trkpt>
      <trkpt lat="44.24506" lon="3.7579">
        <ele>1072.01</ele>
        <time>2013-06-05T11:01:44Z</time>
      </trkpt>
      <trkpt lat="44.24492" lon="3.75819">
        <ele>1069.6</ele>
        <time>2013-06-05T11:02:01Z</time>
      </trkpt>
      <trkpt lat="44.24475" lon="3.75831">
        <ele>1068.16</ele>
        <time>2013-06-05T11:02:13Z</time>
      </trkpt>
      <trkpt lat="44.24462" lon="3.7584">
        <ele>1066.24</ele>
        <time>2013-06-05T11:02:26Z</time>
      </trkpt>
      <trkpt lat="44.24456" lon="3.75851">
        <ele>1064.8</ele>
        <time>2013-06-05T11:02:41Z</time>
      </trkpt>
      <trkpt lat="44.24443" lon="3.75862">
        <ele>1064.32</ele>
        <time>2013-06-05T11:02:51Z</time>
      </trkpt>
      <trkpt lat="44.24431" lon="3.7586">
        <ele>1064.32</ele>
        <time>2013-06-05T11:02:58Z</time>
      </trkpt>
      <trkpt lat="44.2443" lon="3.75854">
        <ele>1064.32</ele>
        <time>2013-06-05T11:03:02Z</time>
      </trkpt>
      <trkpt lat="44.24429" lon="3.75844">
        <ele>1064.32</ele>
        <time>2013-06-05T11:03:08Z</time>
      </trkpt>
      <trkpt lat="44.24432" lon="3.75837">
        <ele>1064.32</ele>
        <time>2013-06-05T11:03:12Z</time>
      </trkpt>
      <trkpt lat="44.24436" lon="3.75832">
        <ele>1064.32</ele>
        <time>2013-06-05T11:03:15Z</time>
      </trkpt>
      <trkpt lat="44.24438" lon="3.75816">
        <ele>1065.76</ele>
        <time>2013-06-05T11:03:23Z</time>
      </trkpt>
      <trkpt lat="44.24439" lon="3.7581">
        <ele>1065.76</ele>
        <time>2013-06-05T11:03:26Z</time>
      </trkpt>
      <trkpt lat="44.2443" lon="3.75785">
        <ele>1065.76</ele>
        <time>2013-06-05T11:03:39Z</time>
      </trkpt>
      <trkpt lat="44.24411" lon="3.75748">
        <ele>1066.72</ele>
        <time>2013-06-05T11:03:59Z</time>
      </trkpt>
      <trkpt lat="44.244" lon="3.75727">
        <ele>1067.68</ele>
        <time>2013-06-05T11:04:14Z</time>
      </trkpt>
      <trkpt lat="44.24396" lon="3.75716">
        <ele>1068.16</ele>
        <time>2013-06-05T11:04:20Z</time>
      </trkpt>
      <trkpt lat="44.24382" lon="3.75686">
        <ele>1070.08</ele>
        <time>2013-06-05T11:04:38Z</time>
      </trkpt>
      <trkpt lat="44.24368" lon="3.75656">
        <ele>1071.53</ele>
        <time>2013-06-05T11:04:54Z</time>
      </trkpt>
      <trkpt lat="44.24357" lon="3.75638">
        <ele>1073.93</ele>
        <time>2013-06-05T11:05:08Z</time>
      </trkpt>
      <trkpt lat="44.24343" lon="3.75624">
        <ele>1073.93</ele>
        <time>2013-06-05T11:05:22Z</time>
      </trkpt>
      <trkpt lat="44.24342" lon="3.75619">
        <ele>1073.93</ele>
        <time>2013-06-05T11:05:25Z</time>
      </trkpt>
      <trkpt lat="44.2434" lon="3.75616">
        <ele>1073.93</ele>
        <time>2013-06-05T11:05:27Z</time>
      </trkpt>
      <trkpt lat="44.2434" lon="3.75611">
        <ele>1072.49</ele>
        <time>2013-06-05T11:05:29Z</time>
      </trkpt>
      <trkpt lat="44.24341" lon="3.75594">
        <ele>1072.49</ele>
        <time>2013-06-05T11:05:36Z</time>
      </trkpt>
      <trkpt lat="44.24343" lon="3.75586">
        <ele>1071.53</ele>
        <time>2013-06-05T11:05:39Z</time>
      </trkpt>
      <trkpt lat="44.24344" lon="3.75576">
        <ele>1071.05</ele>
        <time>2013-06-05T11:05:43Z</time>
      </trkpt>
      <trkpt lat="44.24341" lon="3.75547">
        <ele>1068.64</ele>
        <time>2013-06-05T11:05:56Z</time>
      </trkpt>
      <trkpt lat="44.24328" lon="3.7552">
        <ele>1067.2</ele>
        <time>2013-06-05T11:06:10Z</time>
      </trkpt>
      <trkpt lat="44.24323" lon="3.75516">
        <ele>1066.72</ele>
        <time>2013-06-05T11:06:15Z</time>
      </trkpt>
      <trkpt lat="44.24309" lon="3.75507">
        <ele>1064.8</ele>
        <time>2013-06-05T11:06:29Z</time>
      </trkpt>
      <trkpt lat="44.24288" lon="3.75504">
        <ele>1062.87</ele>
        <time>2013-06-05T11:06:43Z</time>
      </trkpt>
      <trkpt lat="44.2427" lon="3.75508">
        <ele>1061.43</ele>
        <time>2013-06-05T11:06:52Z</time>
      </trkpt>
      <trkpt lat="44.24252" lon="3.75509">
        <ele>1059.99</ele>
        <time>2013-06-05T11:07:06Z</time>
      </trkpt>
      <trkpt lat="44.24234" lon="3.75505">
        <ele>1058.55</ele>
        <time>2013-06-05T11:07:18Z</time>
      </trkpt>
      <trkpt lat="44.2422" lon="3.7548">
        <ele>1058.07</ele>
        <time>2013-06-05T11:07:32Z</time>
      </trkpt>
      <trkpt lat="44.2422" lon="3.75478">
        <ele>1057.11</ele>
        <time>2013-06-05T11:07:33Z</time>
      </trkpt>
      <trkpt lat="44.24227" lon="3.75438">
        <ele>1056.63</ele>
        <time>2013-06-05T11:07:53Z</time>
      </trkpt>
      <trkpt lat="44.24233" lon="3.75428">
        <ele>1055.67</ele>
        <time>2013-06-05T11:07:59Z</time>
      </trkpt>
      <trkpt lat="44.24239" lon="3.7542">
        <ele>1054.7</ele>
        <time>2013-06-05T11:08:05Z</time>
      </trkpt>
      <trkpt lat="44.24241" lon="3.75417">
        <ele>1054.22</ele>
        <time>2013-06-05T11:08:07Z</time>
      </trkpt>
      <trkpt lat="44.24249" lon="3.75405">
        <ele>1053.26</ele>
        <time>2013-06-05T11:08:15Z</time>
      </trkpt>
      <trkpt lat="44.24257" lon="3.75393">
        <ele>1051.82</ele>
        <time>2013-06-05T11:08:24Z</time>
      </trkpt>
      <trkpt lat="44.24261" lon="3.75384">
        <ele>1051.34</ele>
        <time>2013-06-05T11:08:29Z</time>
      </trkpt>
      <trkpt lat="44.2427" lon="3.75361">
        <ele>1050.38</ele>
        <time>2013-06-05T11:08:42Z</time>
      </trkpt>
      <trkpt lat="44.24274" lon="3.75338">
        <ele>1049.9</ele>
        <time>2013-06-05T11:08:56Z</time>
      </trkpt>
      <trkpt lat="44.24284" lon="3.75312">
        <ele>1048.94</ele>
        <time>2013-06-05T11:09:09Z</time>
      </trkpt>
      <trkpt lat="44.24285" lon="3.75308">
        <ele>1048.94</ele>
        <time>2013-06-05T11:09:11Z</time>
      </trkpt>
      <trkpt lat="44.24293" lon="3.75292">
        <ele>1048.45</ele>
        <time>2013-06-05T11:09:18Z</time>
      </trkpt>
      <trkpt lat="44.24304" lon="3.7526">
        <ele>1046.53</ele>
        <time>2013-06-05T11:09:30Z</time>
      </trkpt>
      <trkpt lat="44.2431" lon="3.75246">
        <ele>1044.61</ele>
        <time>2013-06-05T11:09:41Z</time>
      </trkpt>
      <trkpt lat="44.24313" lon="3.75234">
        <ele>1042.69</ele>
        <time>2013-06-05T11:09:53Z</time>
      </trkpt>
      <trkpt lat="44.24313" lon="3.75231">
        <ele>1042.21</ele>
        <time>2013-06-05T11:09:56Z</time>
      </trkpt>
      <trkpt lat="44.24318" lon="3.75212">
        <ele>1040.76</ele>
        <time>2013-06-05T11:10:04Z</time>
      </trkpt>
      <trkpt lat="44.24321" lon="3.75179">
        <ele>1038.84</ele>
        <time>2013-06-05T11:10:15Z</time>
      </trkpt>
      <trkpt lat="44.24322" lon="3.75174">
        <ele>1038.84</ele>
        <time>2013-06-05T11:10:17Z</time>
      </trkpt>
      <trkpt lat="44.24321" lon="3.75167">
        <ele>1038.84</ele>
        <time>2013-06-05T11:10:21Z</time>
      </trkpt>
      <trkpt lat="44.24319" lon="3.75161">
        <ele>1037.88</ele>
        <time>2013-06-05T11:10:25Z</time>
      </trkpt>
      <trkpt lat="44.24311" lon="3.7514">
        <ele>1037.4</ele>
        <time>2013-06-05T11:10:40Z</time>
      </trkpt>
      <trkpt lat="44.24309" lon="3.75133">
        <ele>1036.44</ele>
        <time>2013-06-05T11:10:46Z</time>
      </trkpt>
      <trkpt lat="44.24307" lon="3.75128">
        <ele>1035.96</ele>
        <time>2013-06-05T11:10:50Z</time>
      </trkpt>
      <trkpt lat="44.24307" lon="3.75119">
        <ele>1035.48</ele>
        <time>2013-06-05T11:10:54Z</time>
      </trkpt>
      <trkpt lat="44.24306" lon="3.75115">
        <ele>1035.48</ele>
        <time>2013-06-05T11:10:56Z</time>
      </trkpt>
      <trkpt lat="44.24299" lon="3.75086">
        <ele>1034.52</ele>
        <time>2013-06-05T11:11:06Z</time>
      </trkpt>
      <trkpt lat="44.24296" lon="3.7508">
        <ele>1034.52</ele>
        <time>2013-06-05T11:11:08Z</time>
      </trkpt>
      <trkpt lat="44.24294" lon="3.75064">
        <ele>1033.55</ele>
        <time>2013-06-05T11:11:14Z</time>
      </trkpt>
      <trkpt lat="44.24294" lon="3.75049">
        <ele>1031.63</ele>
        <time>2013-06-05T11:11:27Z</time>
      </trkpt>
      <trkpt lat="44.24294" lon="3.7504">
        <ele>1031.63</ele>
        <time>2013-06-05T11:11:34Z</time>
      </trkpt>
      <trkpt lat="44.24288" lon="3.75026">
        <ele>1031.15</ele>
        <time>2013-06-05T11:11:42Z</time>
      </trkpt>
      <trkpt lat="44.24282" lon="3.75008">
        <ele>1030.19</ele>
        <time>2013-06-05T11:11:48Z</time>
      </trkpt>
      <trkpt lat="44.24268" lon="3.74973">
        <ele>1028.27</ele>
        <time>2013-06-05T11:12:02Z</time>
      </trkpt>
      <trkpt lat="44.24266" lon="3.74964">
        <ele>1028.27</ele>
        <time>2013-06-05T11:12:06Z</time>
      </trkpt>
      <trkpt lat="44.24261" lon="3.74953">
        <ele>1027.31</ele>
        <time>2013-06-05T11:12:20Z</time>
      </trkpt>
      <trkpt lat="44.24264" lon="3.74935">
        <ele>1027.31</ele>
        <time>2013-06-05T11:12:32Z</time>
      </trkpt>
      <trkpt lat="44.24264" lon="3.74941">
        <ele>1027.31</ele>
        <time>2013-06-05T11:12:43Z</time>
      </trkpt>
      <trkpt lat="44.24265" lon="3.74954">
        <ele>1027.31</ele>
        <time>2013-06-05T11:12:55Z</time>
      </trkpt>
      <trkpt lat="44.24261" lon="3.74954">
        <ele>1027.31</ele>
        <time>2013-06-05T11:12:59Z</time>
      </trkpt>
      <trkpt lat="44.24258" lon="3.74974">
        <ele>1026.34</ele>
        <time>2013-06-05T11:13:12Z</time>
      </trkpt>
      <trkpt lat="44.24258" lon="3.74979">
        <ele>1026.34</ele>
        <time>2013-06-05T11:13:15Z</time>
      </trkpt>
      <trkpt lat="44.2426" lon="3.74989">
        <ele>1026.34</ele>
        <time>2013-06-05T11:13:21Z</time>
      </trkpt>
      <trkpt lat="44.24261" lon="3.74993">
        <ele>1025.86</ele>
        <time>2013-06-05T11:13:24Z</time>
      </trkpt>
      <trkpt lat="44.24262" lon="3.74997">
        <ele>1025.38</ele>
        <time>2013-06-05T11:13:27Z</time>
      </trkpt>
      <trkpt lat="44.24267" lon="3.75011">
        <ele>1023.94</ele>
        <time>2013-06-05T11:13:39Z</time>
      </trkpt>
      <trkpt lat="44.24268" lon="3.75024">
        <ele>1023.94</ele>
        <time>2013-06-05T11:13:50Z</time>
      </trkpt>
      <trkpt lat="44.24266" lon="3.75047">
        <ele>1023.94</ele>
        <time>2013-06-05T11:14:05Z</time>
      </trkpt>
      <trkpt lat="44.24264" lon="3.75066">
        <ele>1023.46</ele>
        <time>2013-06-05T11:14:18Z</time>
      </trkpt>
      <trkpt lat="44.24263" lon="3.75096">
        <ele>1023.46</ele>
        <time>2013-06-05T11:14:30Z</time>
      </trkpt>
      <trkpt lat="44.24264" lon="3.75105">
        <ele>1023.46</ele>
        <time>2013-06-05T11:14:34Z</time>
      </trkpt>
      <trkpt lat="44.2427" lon="3.75142">
        <ele>1023.46</ele>
        <time>2013-06-05T11:14:49Z</time>
      </trkpt>
      <trkpt lat="44.24273" lon="3.7517">
        <ele>1023.46</ele>
        <time>2013-06-05T11:14:58Z</time>
      </trkpt>
      <trkpt lat="44.24265" lon="3.75193">
        <ele>1023.46</ele>
        <time>2013-06-05T11:15:12Z</time>
      </trkpt>
      <trkpt lat="44.2425" lon="3.75222">
        <ele>1022.98</ele>
        <time>2013-06-05T11:15:28Z</time>
      </trkpt>
      <trkpt lat="44.24238" lon="3.75243">
        <ele>1021.54</ele>
        <time>2013-06-05T11:15:40Z</time>
      </trkpt>
      <trkpt lat="44.24233" lon="3.75251">
        <ele>1021.06</ele>
        <time>2013-06-05T11:15:45Z</time>
      </trkpt>
      <trkpt lat="44.24222" lon="3.7527">
        <ele>1020.58</ele>
        <time>2013-06-05T11:15:58Z</time>
      </trkpt>
      <trkpt lat="44.2422" lon="3.75273">
        <ele>1020.1</ele>
        <time>2013-06-05T11:16:00Z</time>
      </trkpt>
      <trkpt lat="44.24217" lon="3.75284">
        <ele>1020.1</ele>
        <time>2013-06-05T11:16:06Z</time>
      </trkpt>
      <trkpt lat="44.24206" lon="3.753">
        <ele>1019.13</ele>
        <time>2013-06-05T11:16:19Z</time>
      </trkpt>
      <trkpt lat="44.24196" lon="3.7531">
        <ele>1018.17</ele>
        <time>2013-06-05T11:16:33Z</time>
      </trkpt>
      <trkpt lat="44.24184" lon="3.75317">
        <ele>1016.73</ele>
        <time>2013-06-05T11:16:46Z</time>
      </trkpt>
      <trkpt lat="44.24179" lon="3.75318">
        <ele>1015.77</ele>
        <time>2013-06-05T11:16:49Z</time>
      </trkpt>
      <trkpt lat="44.24172" lon="3.7532">
        <ele>1015.77</ele>
        <time>2013-06-05T11:16:53Z</time>
      </trkpt>
      <trkpt lat="44.24157" lon="3.75324">
        <ele>1014.81</ele>
        <time>2013-06-05T11:17:02Z</time>
      </trkpt>
      <trkpt lat="44.24141" lon="3.75341">
        <ele>1013.85</ele>
        <time>2013-06-05T11:17:15Z</time>
      </trkpt>
      <trkpt lat="44.24126" lon="3.75359">
        <ele>1013.85</ele>
        <time>2013-06-05T11:17:28Z</time>
      </trkpt>
      <trkpt lat="44.24117" lon="3.75372">
        <ele>1013.37</ele>
        <time>2013-06-05T11:17:38Z</time>
      </trkpt>
      <trkpt lat="44.24108" lon="3.75386">
        <ele>1011.93</ele>
        <time>2013-06-05T11:17:47Z</time>
      </trkpt>
      <trkpt lat="44.24097" lon="3.75409">
        <ele>1010.96</ele>
        <time>2013-06-05T11:18:02Z</time>
      </trkpt>
      <trkpt lat="44.24091" lon="3.75419">
        <ele>1010.48</ele>
        <time>2013-06-05T11:18:09Z</time>
      </trkpt>
      <trkpt lat="44.2408" lon="3.75442">
        <ele>1010</ele>
        <time>2013-06-05T11:18:23Z</time>
      </trkpt>
      <trkpt lat="44.24076" lon="3.75448">
        <ele>1009.52</ele>
        <time>2013-06-05T11:18:27Z</time>
      </trkpt>
      <trkpt lat="44.24066" lon="3.75453">
        <ele>1009.52</ele>
        <time>2013-06-05T11:18:33Z</time>
      </trkpt>
      <trkpt lat="44.24047" lon="3.75458">
        <ele>1009.52</ele>
        <time>2013-06-05T11:18:46Z</time>
      </trkpt>
      <trkpt lat="44.24033" lon="3.75462">
        <ele>1009.52</ele>
        <time>2013-06-05T11:18:55Z</time>
      </trkpt>
      <trkpt lat="44.24027" lon="3.75475">
        <ele>1009.52</ele>
        <time>2013-06-05T11:19:04Z</time>
      </trkpt>
      <trkpt lat="44.24016" lon="3.75489">
        <ele>1009.52</ele>
        <time>2013-06-05T11:19:18Z</time>
      </trkpt>
      <trkpt lat="44.24013" lon="3.75499">
        <ele>1009.52</ele>
        <time>2013-06-05T11:19:28Z</time>
      </trkpt>
      <trkpt lat="44.24007" lon="3.75512">
        <ele>1008.56</ele>
        <time>2013-06-05T11:19:43Z</time>
      </trkpt>
      <trkpt lat="44.23989" lon="3.75514">
        <ele>1008.08</ele>
        <time>2013-06-05T11:19:59Z</time>
      </trkpt>
      <trkpt lat="44.23975" lon="3.75517">
        <ele>1008.08</ele>
        <time>2013-06-05T11:20:13Z</time>
      </trkpt>
      <trkpt lat="44.2397" lon="3.7552">
        <ele>1008.08</ele>
        <time>2013-06-05T11:20:28Z</time>
      </trkpt>
      <trkpt lat="44.23915" lon="3.75517">
        <ele>1008.08</ele>
        <time>2013-06-05T11:20:48Z</time>
      </trkpt>
      <trkpt lat="44.23886" lon="3.75527">
        <ele>1007.12</ele>
        <time>2013-06-05T11:21:05Z</time>
      </trkpt>
      <trkpt lat="44.23881" lon="3.75528">
        <ele>1006.16</ele>
        <time>2013-06-05T11:21:08Z</time>
      </trkpt>
      <trkpt lat="44.23862" lon="3.75541">
        <ele>1005.68</ele>
        <time>2013-06-05T11:21:24Z</time>
      </trkpt>
      <trkpt lat="44.23838" lon="3.75551">
        <ele>1005.2</ele>
        <time>2013-06-05T11:21:42Z</time>
      </trkpt>
      <trkpt lat="44.23818" lon="3.75553">
        <ele>1004.72</ele>
        <time>2013-06-05T11:21:57Z</time>
      </trkpt>
      <trkpt lat="44.23799" lon="3.75558">
        <ele>1004.23</ele>
        <time>2013-06-05T11:22:12Z</time>
      </trkpt>
      <trkpt lat="44.23787" lon="3.7556">
        <ele>1003.75</ele>
        <time>2013-06-05T11:22:26Z</time>
      </trkpt>
      <trkpt lat="44.23774" lon="3.7557">
        <ele>1003.75</ele>
        <time>2013-06-05T11:22:41Z</time>
      </trkpt>
      <trkpt lat="44.23759" lon="3.75581">
        <ele>1003.75</ele>
        <time>2013-06-05T11:22:58Z</time>
      </trkpt>
      <trkpt lat="44.23716" lon="3.75591">
        <ele>1004.23</ele>
        <time>2013-06-05T11:23:15Z</time>
      </trkpt>
      <trkpt lat="44.23704" lon="3.75599">
        <ele>1004.72</ele>
        <time>2013-06-05T11:23:25Z</time>
      </trkpt>
      <trkpt lat="44.23692" lon="3.75609">
        <ele>1004.23</ele>
        <time>2013-06-05T11:23:37Z</time>
      </trkpt>
      <trkpt lat="44.23673" lon="3.75616">
        <ele>1004.72</ele>
        <time>2013-06-05T11:23:53Z</time>
      </trkpt>
      <trkpt lat="44.23638" lon="3.75619">
        <ele>1004.72</ele>
        <time>2013-06-05T11:24:11Z</time>
      </trkpt>
      <trkpt lat="44.2362" lon="3.75628">
        <ele>1003.75</ele>
        <time>2013-06-05T11:24:27Z</time>
      </trkpt>
      <trkpt lat="44.23601" lon="3.75637">
        <ele>1002.31</ele>
        <time>2013-06-05T11:24:41Z</time>
      </trkpt>
      <trkpt lat="44.23592" lon="3.75641">
        <ele>1001.83</ele>
        <time>2013-06-05T11:24:47Z</time>
      </trkpt>
      <trkpt lat="44.23566" lon="3.75655">
        <ele>1000.39</ele>
        <time>2013-06-05T11:25:00Z</time>
      </trkpt>
      <trkpt lat="44.23542" lon="3.75673">
        <ele>999.91</ele>
        <time>2013-06-05T11:25:14Z</time>
      </trkpt>
      <trkpt lat="44.23525" lon="3.75672">
        <ele>999.43</ele>
        <time>2013-06-05T11:25:18Z</time>
      </trkpt>
      <trkpt lat="44.23504" lon="3.75689">
        <ele>998.47</ele>
        <time>2013-06-05T11:25:24Z</time>
      </trkpt>
      <trkpt lat="44.23484" lon="3.75735">
        <ele>997.99</ele>
        <time>2013-06-05T11:25:44Z</time>
      </trkpt>
      <trkpt lat="44.23478" lon="3.75756">
        <ele>997.51</ele>
        <time>2013-06-05T11:25:55Z</time>
      </trkpt>
      <trkpt lat="44.23475" lon="3.75774">
        <ele>997.02</ele>
        <time>2013-06-05T11:26:04Z</time>
      </trkpt>
      <trkpt lat="44.23472" lon="3.75795">
        <ele>996.54</ele>
        <time>2013-06-05T11:26:16Z</time>
      </trkpt>
      <trkpt lat="44.2347" lon="3.758">
        <ele>996.06</ele>
        <time>2013-06-05T11:26:19Z</time>
      </trkpt>
      <trkpt lat="44.23467" lon="3.75827">
        <ele>995.1</ele>
        <time>2013-06-05T11:26:33Z</time>
      </trkpt>
      <trkpt lat="44.23467" lon="3.75832">
        <ele>995.1</ele>
        <time>2013-06-05T11:26:36Z</time>
      </trkpt>
      <trkpt lat="44.23468" lon="3.75835">
        <ele>994.62</ele>
        <time>2013-06-05T11:26:39Z</time>
      </trkpt>
      <trkpt lat="44.23464" lon="3.75853">
        <ele>994.14</ele>
        <time>2013-06-05T11:26:52Z</time>
      </trkpt>
      <trkpt lat="44.23462" lon="3.75855">
        <ele>993.66</ele>
        <time>2013-06-05T11:26:57Z</time>
      </trkpt>
      <trkpt lat="44.23432" lon="3.7585">
        <ele>993.66</ele>
        <time>2013-06-05T11:27:13Z</time>
      </trkpt>
      <trkpt lat="44.23412" lon="3.75857">
        <ele>995.1</ele>
        <time>2013-06-05T11:27:26Z</time>
      </trkpt>
      <trkpt lat="44.23391" lon="3.75862">
        <ele>995.1</ele>
        <time>2013-06-05T11:27:38Z</time>
      </trkpt>
      <trkpt lat="44.23383" lon="3.7588">
        <ele>995.1</ele>
        <time>2013-06-05T11:27:47Z</time>
      </trkpt>
      <trkpt lat="44.23402" lon="3.75929">
        <ele>995.58</ele>
        <time>2013-06-05T11:28:03Z</time>
      </trkpt>
      <trkpt lat="44.23397" lon="3.75953">
        <ele>995.1</ele>
        <time>2013-06-05T11:28:17Z</time>
      </trkpt>
      <trkpt lat="44.23388" lon="3.75982">
        <ele>995.1</ele>
        <time>2013-06-05T11:28:34Z</time>
      </trkpt>
      <trkpt lat="44.23385" lon="3.75999">
        <ele>995.1</ele>
        <time>2013-06-05T11:28:44Z</time>
      </trkpt>
      <trkpt lat="44.2338" lon="3.76015">
        <ele>995.1</ele>
        <time>2013-06-05T11:28:54Z</time>
      </trkpt>
      <trkpt lat="44.23377" lon="3.7602">
        <ele>995.1</ele>
        <time>2013-06-05T11:28:58Z</time>
      </trkpt>
      <trkpt lat="44.23375" lon="3.76045">
        <ele>995.1</ele>
        <time>2013-06-05T11:29:12Z</time>
      </trkpt>
      <trkpt lat="44.23374" lon="3.76064">
        <ele>995.1</ele>
        <time>2013-06-05T11:29:24Z</time>
      </trkpt>
      <trkpt lat="44.23371" lon="3.76088">
        <ele>995.1</ele>
        <time>2013-06-05T11:29:41Z</time>
      </trkpt>
      <trkpt lat="44.23373" lon="3.76111">
        <ele>995.1</ele>
        <time>2013-06-05T11:29:52Z</time>
      </trkpt>
      <trkpt lat="44.23375" lon="3.76131">
        <ele>994.14</ele>
        <time>2013-06-05T11:30:04Z</time>
      </trkpt>
      <trkpt lat="44.23377" lon="3.76159">
        <ele>992.22</ele>
        <time>2013-06-05T11:30:18Z</time>
      </trkpt>
      <trkpt lat="44.23378" lon="3.76164">
        <ele>991.26</ele>
        <time>2013-06-05T11:30:22Z</time>
      </trkpt>
      <trkpt lat="44.23379" lon="3.76172">
        <ele>990.3</ele>
        <time>2013-06-05T11:30:26Z</time>
      </trkpt>
      <trkpt lat="44.2338" lon="3.76188">
        <ele>989.33</ele>
        <time>2013-06-05T11:30:36Z</time>
      </trkpt>
      <trkpt lat="44.23384" lon="3.76221">
        <ele>985.97</ele>
        <time>2013-06-05T11:30:52Z</time>
      </trkpt>
      <trkpt lat="44.23385" lon="3.76226">
        <ele>985.97</ele>
        <time>2013-06-05T11:30:55Z</time>
      </trkpt>
      <trkpt lat="44.23386" lon="3.7623">
        <ele>985.49</ele>
        <time>2013-06-05T11:30:57Z</time>
      </trkpt>
      <trkpt lat="44.23388" lon="3.7624">
        <ele>985.01</ele>
        <time>2013-06-05T11:31:01Z</time>
      </trkpt>
      <trkpt lat="44.23401" lon="3.76276">
        <ele>983.57</ele>
        <time>2013-06-05T11:31:14Z</time>
      </trkpt>
      <trkpt lat="44.23406" lon="3.7631">
        <ele>982.12</ele>
        <time>2013-06-05T11:31:25Z</time>
      </trkpt>
      <trkpt lat="44.23414" lon="3.76321">
        <ele>981.64</ele>
        <time>2013-06-05T11:31:30Z</time>
      </trkpt>
      <trkpt lat="44.23428" lon="3.76345">
        <ele>979.72</ele>
        <time>2013-06-05T11:31:44Z</time>
      </trkpt>
      <trkpt lat="44.23437" lon="3.76368">
        <ele>977.8</ele>
        <time>2013-06-05T11:32:00Z</time>
      </trkpt>
      <trkpt lat="44.23438" lon="3.7637">
        <ele>977.8</ele>
        <time>2013-06-05T11:32:01Z</time>
      </trkpt>
      <trkpt lat="44.23446" lon="3.76391">
        <ele>976.36</ele>
        <time>2013-06-05T11:32:14Z</time>
      </trkpt>
      <trkpt lat="44.23455" lon="3.76416">
        <ele>975.39</ele>
        <time>2013-06-05T11:32:28Z</time>
      </trkpt>
      <trkpt lat="44.23459" lon="3.76446">
        <ele>974.91</ele>
        <time>2013-06-05T11:32:42Z</time>
      </trkpt>
      <trkpt lat="44.23467" lon="3.76469">
        <ele>974.43</ele>
        <time>2013-06-05T11:32:56Z</time>
      </trkpt>
      <trkpt lat="44.23468" lon="3.76479">
        <ele>973.95</ele>
        <time>2013-06-05T11:33:00Z</time>
      </trkpt>
      <trkpt lat="44.23475" lon="3.765">
        <ele>973.47</ele>
        <time>2013-06-05T11:33:14Z</time>
      </trkpt>
      <trkpt lat="44.23476" lon="3.76519">
        <ele>972.03</ele>
        <time>2013-06-05T11:33:26Z</time>
      </trkpt>
      <trkpt lat="44.23486" lon="3.76553">
        <ele>971.55</ele>
        <time>2013-06-05T11:33:36Z</time>
      </trkpt>
      <trkpt lat="44.23491" lon="3.7656">
        <ele>971.07</ele>
        <time>2013-06-05T11:33:40Z</time>
      </trkpt>
      <trkpt lat="44.23513" lon="3.76581">
        <ele>969.63</ele>
        <time>2013-06-05T11:33:56Z</time>
      </trkpt>
      <trkpt lat="44.23524" lon="3.76588">
        <ele>968.67</ele>
        <time>2013-06-05T11:34:07Z</time>
      </trkpt>
      <trkpt lat="44.23528" lon="3.76595">
        <ele>967.7</ele>
        <time>2013-06-05T11:34:13Z</time>
      </trkpt>
      <trkpt lat="44.23524" lon="3.76599">
        <ele>966.74</ele>
        <time>2013-06-05T11:34:19Z</time>
      </trkpt>
      <trkpt lat="44.23515" lon="3.76604">
        <ele>964.82</ele>
        <time>2013-06-05T11:34:31Z</time>
      </trkpt>
      <trkpt lat="44.23514" lon="3.76615">
        <ele>962.42</ele>
        <time>2013-06-05T11:34:43Z</time>
      </trkpt>
      <trkpt lat="44.23526" lon="3.76622">
        <ele>960.01</ele>
        <time>2013-06-05T11:35:02Z</time>
      </trkpt>
      <trkpt lat="44.2354" lon="3.76631">
        <ele>958.57</ele>
        <time>2013-06-05T11:35:16Z</time>
      </trkpt>
      <trkpt lat="44.2355" lon="3.76639">
        <ele>957.61</ele>
        <time>2013-06-05T11:35:26Z</time>
      </trkpt>
      <trkpt lat="44.23567" lon="3.76641">
        <ele>956.17</ele>
        <time>2013-06-05T11:35:40Z</time>
      </trkpt>
      <trkpt lat="44.2358" lon="3.76647">
        <ele>955.21</ele>
        <time>2013-06-05T11:35:52Z</time>
      </trkpt>
      <trkpt lat="44.23595" lon="3.76667">
        <ele>955.69</ele>
        <time>2013-06-05T11:36:04Z</time>
      </trkpt>
      <trkpt lat="44.23599" lon="3.76682">
        <ele>955.69</ele>
        <time>2013-06-05T11:36:13Z</time>
      </trkpt>
      <trkpt lat="44.236" lon="3.7669">
        <ele>954.73</ele>
        <time>2013-06-05T11:36:17Z</time>
      </trkpt>
      <trkpt lat="44.23601" lon="3.76715">
        <ele>953.77</ele>
        <time>2013-06-05T11:36:28Z</time>
      </trkpt>
      <trkpt lat="44.23604" lon="3.76733">
        <ele>952.8</ele>
        <time>2013-06-05T11:36:35Z</time>
      </trkpt>
      <trkpt lat="44.23603" lon="3.76747">
        <ele>952.8</ele>
        <time>2013-06-05T11:36:41Z</time>
      </trkpt>
      <trkpt lat="44.23604" lon="3.76763">
        <ele>951.84</ele>
        <time>2013-06-05T11:36:50Z</time>
      </trkpt>
      <trkpt lat="44.23597" lon="3.76788">
        <ele>949.92</ele>
        <time>2013-06-05T11:37:03Z</time>
      </trkpt>
      <trkpt lat="44.23595" lon="3.76804">
        <ele>949.44</ele>
        <time>2013-06-05T11:37:11Z</time>
      </trkpt>
      <trkpt lat="44.2359" lon="3.76833">
        <ele>948.96</ele>
        <time>2013-06-05T11:37:24Z</time>
      </trkpt>
      <trkpt lat="44.23588" lon="3.76837">
        <ele>948.96</ele>
        <time>2013-06-05T11:37:27Z</time>
      </trkpt>
      <trkpt lat="44.23588" lon="3.76841">
        <ele>948</ele>
        <time>2013-06-05T11:37:31Z</time>
      </trkpt>
      <trkpt lat="44.23588" lon="3.76849">
        <ele>948</ele>
        <time>2013-06-05T11:37:35Z</time>
      </trkpt>
      <trkpt lat="44.23587" lon="3.76868">
        <ele>947.04</ele>
        <time>2013-06-05T11:37:45Z</time>
      </trkpt>
      <trkpt lat="44.23586" lon="3.76873">
        <ele>947.04</ele>
        <time>2013-06-05T11:37:48Z</time>
      </trkpt>
      <trkpt lat="44.23586" lon="3.76881">
        <ele>946.07</ele>
        <time>2013-06-05T11:37:53Z</time>
      </trkpt>
      <trkpt lat="44.23584" lon="3.769">
        <ele>943.67</ele>
        <time>2013-06-05T11:38:05Z</time>
      </trkpt>
      <trkpt lat="44.23591" lon="3.76923">
        <ele>943.19</ele>
        <time>2013-06-05T11:38:19Z</time>
      </trkpt>
      <trkpt lat="44.23594" lon="3.76945">
        <ele>942.71</ele>
        <time>2013-06-05T11:38:31Z</time>
      </trkpt>
      <trkpt lat="44.23598" lon="3.76971">
        <ele>940.79</ele>
        <time>2013-06-05T11:38:45Z</time>
      </trkpt>
      <trkpt lat="44.23602" lon="3.76991">
        <ele>939.83</ele>
        <time>2013-06-05T11:38:58Z</time>
      </trkpt>
      <trkpt lat="44.23606" lon="3.77017">
        <ele>938.38</ele>
        <time>2013-06-05T11:39:11Z</time>
      </trkpt>
      <trkpt lat="44.2361" lon="3.77035">
        <ele>937.9</ele>
        <time>2013-06-05T11:39:19Z</time>
      </trkpt>
      <trkpt lat="44.23611" lon="3.77039">
        <ele>937.9</ele>
        <time>2013-06-05T11:39:21Z</time>
      </trkpt>
      <trkpt lat="44.23617" lon="3.77069">
        <ele>936.46</ele>
        <time>2013-06-05T11:39:34Z</time>
      </trkpt>
      <trkpt lat="44.23621" lon="3.77081">
        <ele>935.5</ele>
        <time>2013-06-05T11:39:45Z</time>
      </trkpt>
      <trkpt lat="44.23622" lon="3.77098">
        <ele>934.54</ele>
        <time>2013-06-05T11:39:52Z</time>
      </trkpt>
      <trkpt lat="44.23624" lon="3.77121">
        <ele>933.58</ele>
        <time>2013-06-05T11:40:03Z</time>
      </trkpt>
      <trkpt lat="44.23633" lon="3.7715">
        <ele>931.65</ele>
        <time>2013-06-05T11:40:17Z</time>
      </trkpt>
      <trkpt lat="44.23636" lon="3.77174">
        <ele>929.73</ele>
        <time>2013-06-05T11:40:30Z</time>
      </trkpt>
      <trkpt lat="44.23637" lon="3.77181">
        <ele>929.25</ele>
        <time>2013-06-05T11:40:33Z</time>
      </trkpt>
      <trkpt lat="44.23632" lon="3.77194">
        <ele>927.81</ele>
        <time>2013-06-05T11:40:45Z</time>
      </trkpt>
      <trkpt lat="44.23629" lon="3.77209">
        <ele>925.89</ele>
        <time>2013-06-05T11:40:59Z</time>
      </trkpt>
      <trkpt lat="44.23627" lon="3.77217">
        <ele>924.93</ele>
        <time>2013-06-05T11:41:03Z</time>
      </trkpt>
      <trkpt lat="44.23628" lon="3.77223">
        <ele>923.96</ele>
        <time>2013-06-05T11:41:07Z</time>
      </trkpt>
      <trkpt lat="44.23633" lon="3.77228">
        <ele>923.96</ele>
        <time>2013-06-05T11:41:12Z</time>
      </trkpt>
      <trkpt lat="44.23634" lon="3.77232">
        <ele>923.48</ele>
        <time>2013-06-05T11:41:15Z</time>
      </trkpt>
      <trkpt lat="44.23638" lon="3.77245">
        <ele>922.04</ele>
        <time>2013-06-05T11:41:27Z</time>
      </trkpt>
      <trkpt lat="44.23631" lon="3.77245">
        <ele>920.6</ele>
        <time>2013-06-05T11:41:39Z</time>
      </trkpt>
      <trkpt lat="44.23641" lon="3.77263">
        <ele>919.64</ele>
        <time>2013-06-05T11:41:53Z</time>
      </trkpt>
      <trkpt lat="44.23643" lon="3.77266">
        <ele>919.64</ele>
        <time>2013-06-05T11:41:56Z</time>
      </trkpt>
      <trkpt lat="44.23644" lon="3.77277">
        <ele>919.16</ele>
        <time>2013-06-05T11:42:04Z</time>
      </trkpt>
      <trkpt lat="44.23643" lon="3.77279">
        <ele>919.16</ele>
        <time>2013-06-05T11:42:06Z</time>
      </trkpt>
      <trkpt lat="44.23638" lon="3.77285">
        <ele>919.16</ele>
        <time>2013-06-05T11:42:17Z</time>
      </trkpt>
      <trkpt lat="44.23633" lon="3.77288">
        <ele>919.16</ele>
        <time>2013-06-05T11:42:22Z</time>
      </trkpt>
      <trkpt lat="44.23615" lon="3.77297">
        <ele>919.16</ele>
        <time>2013-06-05T11:42:35Z</time>
      </trkpt>
      <trkpt lat="44.23598" lon="3.77317">
        <ele>918.68</ele>
        <time>2013-06-05T11:42:48Z</time>
      </trkpt>
      <trkpt lat="44.2358" lon="3.77322">
        <ele>918.68</ele>
        <time>2013-06-05T11:43:02Z</time>
      </trkpt>
      <trkpt lat="44.23562" lon="3.77333">
        <ele>917.72</ele>
        <time>2013-06-05T11:43:17Z</time>
      </trkpt>
      <trkpt lat="44.23559" lon="3.77334">
        <ele>917.72</ele>
        <time>2013-06-05T11:43:19Z</time>
      </trkpt>
      <trkpt lat="44.23554" lon="3.77336">
        <ele>917.72</ele>
        <time>2013-06-05T11:43:22Z</time>
      </trkpt>
      <trkpt lat="44.23552" lon="3.77339">
        <ele>917.24</ele>
        <time>2013-06-05T11:43:25Z</time>
      </trkpt>
      <trkpt lat="44.23544" lon="3.7734">
        <ele>917.24</ele>
        <time>2013-06-05T11:43:31Z</time>
      </trkpt>
      <trkpt lat="44.23542" lon="3.77343">
        <ele>917.24</ele>
        <time>2013-06-05T11:43:34Z</time>
      </trkpt>
      <trkpt lat="44.23541" lon="3.77343">
        <ele>917.24</ele>
        <time>2013-06-05T11:43:35Z</time>
      </trkpt>
      <trkpt lat="44.23536" lon="3.77343">
        <ele>916.27</ele>
        <time>2013-06-05T11:43:38Z</time>
      </trkpt>
      <trkpt lat="44.23509" lon="3.77348">
        <ele>915.31</ele>
        <time>2013-06-05T11:43:54Z</time>
      </trkpt>
      <trkpt lat="44.23498" lon="3.77358">
        <ele>914.83</ele>
        <time>2013-06-05T11:44:04Z</time>
      </trkpt>
      <trkpt lat="44.23488" lon="3.77372">
        <ele>914.83</ele>
        <time>2013-06-05T11:44:16Z</time>
      </trkpt>
      <trkpt lat="44.23486" lon="3.77373">
        <ele>914.35</ele>
        <time>2013-06-05T11:44:18Z</time>
      </trkpt>
      <trkpt lat="44.23482" lon="3.77383">
        <ele>914.35</ele>
        <time>2013-06-05T11:44:26Z</time>
      </trkpt>
      <trkpt lat="44.23479" lon="3.77386">
        <ele>914.35</ele>
        <time>2013-06-05T11:44:28Z</time>
      </trkpt>
      <trkpt lat="44.23478" lon="3.77389">
        <ele>914.35</ele>
        <time>2013-06-05T11:44:30Z</time>
      </trkpt>
      <trkpt lat="44.23469" lon="3.77398">
        <ele>914.35</ele>
        <time>2013-06-05T11:44:37Z</time>
      </trkpt>
      <trkpt lat="44.23468" lon="3.774">
        <ele>914.35</ele>
        <time>2013-06-05T11:44:39Z</time>
      </trkpt>
      <trkpt lat="44.23454" lon="3.77421">
        <ele>914.35</ele>
        <time>2013-06-05T11:44:55Z</time>
      </trkpt>
      <trkpt lat="44.23441" lon="3.77439">
        <ele>915.79</ele>
        <time>2013-06-05T11:45:07Z</time>
      </trkpt>
      <trkpt lat="44.23433" lon="3.77454">
        <ele>915.79</ele>
        <time>2013-06-05T11:45:18Z</time>
      </trkpt>
      <trkpt lat="44.2342" lon="3.77472">
        <ele>915.79</ele>
        <time>2013-06-05T11:45:31Z</time>
      </trkpt>
      <trkpt lat="44.23407" lon="3.77495">
        <ele>915.79</ele>
        <time>2013-06-05T11:45:46Z</time>
      </trkpt>
      <trkpt lat="44.23396" lon="3.77506">
        <ele>914.35</ele>
        <time>2013-06-05T11:45:56Z</time>
      </trkpt>
      <trkpt lat="44.23377" lon="3.77528">
        <ele>914.35</ele>
        <time>2013-06-05T11:46:10Z</time>
      </trkpt>
      <trkpt lat="44.23354" lon="3.77553">
        <ele>913.87</ele>
        <time>2013-06-05T11:46:23Z</time>
      </trkpt>
      <trkpt lat="44.23347" lon="3.77561">
        <ele>913.87</ele>
        <time>2013-06-05T11:46:29Z</time>
      </trkpt>
      <trkpt lat="44.23339" lon="3.77571">
        <ele>913.87</ele>
        <time>2013-06-05T11:46:34Z</time>
      </trkpt>
      <trkpt lat="44.23321" lon="3.77607">
        <ele>913.87</ele>
        <time>2013-06-05T11:46:48Z</time>
      </trkpt>
      <trkpt lat="44.23318" lon="3.7761">
        <ele>913.87</ele>
        <time>2013-06-05T11:46:51Z</time>
      </trkpt>
      <trkpt lat="44.23313" lon="3.77616">
        <ele>914.83</ele>
        <time>2013-06-05T11:46:56Z</time>
      </trkpt>
      <trkpt lat="44.23309" lon="3.77621">
        <ele>915.79</ele>
        <time>2013-06-05T11:47:00Z</time>
      </trkpt>
      <trkpt lat="44.23296" lon="3.77636">
        <ele>916.75</ele>
        <time>2013-06-05T11:47:14Z</time>
      </trkpt>
      <trkpt lat="44.23282" lon="3.77652">
        <ele>917.72</ele>
        <time>2013-06-05T11:47:30Z</time>
      </trkpt>
      <trkpt lat="44.23265" lon="3.77666">
        <ele>919.16</ele>
        <time>2013-06-05T11:47:44Z</time>
      </trkpt>
      <trkpt lat="44.23246" lon="3.77685">
        <ele>920.12</ele>
        <time>2013-06-05T11:47:59Z</time>
      </trkpt>
      <trkpt lat="44.2323" lon="3.77712">
        <ele>921.08</ele>
        <time>2013-06-05T11:48:15Z</time>
      </trkpt>
      <trkpt lat="44.23224" lon="3.77732">
        <ele>920.6</ele>
        <time>2013-06-05T11:48:31Z</time>
      </trkpt>
      <trkpt lat="44.23219" lon="3.77746">
        <ele>920.6</ele>
        <time>2013-06-05T11:48:45Z</time>
      </trkpt>
      <trkpt lat="44.2322" lon="3.77748">
        <ele>920.6</ele>
        <time>2013-06-05T11:48:49Z</time>
      </trkpt>
      <trkpt lat="44.23226" lon="3.77748">
        <ele>921.08</ele>
        <time>2013-06-05T11:49:04Z</time>
      </trkpt>
      <trkpt lat="44.23226" lon="3.77749">
        <ele>921.08</ele>
        <time>2013-06-05T11:49:39Z</time>
      </trkpt>
      <trkpt lat="44.23223" lon="3.77757">
        <ele>921.08</ele>
        <time>2013-06-05T11:50:07Z</time>
      </trkpt>
      <trkpt lat="44.23221" lon="3.77757">
        <ele>920.6</ele>
        <time>2013-06-05T11:50:42Z</time>
      </trkpt>
      <trkpt lat="44.23223" lon="3.77754">
        <ele>920.6</ele>
        <time>2013-06-05T11:51:18Z</time>
      </trkpt>
      <trkpt lat="44.23226" lon="3.77752">
        <ele>920.12</ele>
        <time>2013-06-05T11:51:45Z</time>
      </trkpt>
      <trkpt lat="44.23224" lon="3.77753">
        <ele>920.12</ele>
        <time>2013-06-05T11:52:05Z</time>
      </trkpt>
      <trkpt lat="44.23225" lon="3.77752">
        <ele>918.2</ele>
        <time>2013-06-05T11:52:31Z</time>
      </trkpt>
      <trkpt lat="44.23227" lon="3.77754">
        <ele>918.2</ele>
        <time>2013-06-05T11:52:52Z</time>
      </trkpt>
      <trkpt lat="44.23226" lon="3.77752">
        <ele>917.72</ele>
        <time>2013-06-05T11:53:17Z</time>
      </trkpt>
      <trkpt lat="44.23231" lon="3.77752">
        <ele>917.72</ele>
        <time>2013-06-05T11:53:54Z</time>
      </trkpt>
      <trkpt lat="44.23229" lon="3.77752">
        <ele>917.24</ele>
        <time>2013-06-05T11:54:29Z</time>
      </trkpt>
      <trkpt lat="44.23228" lon="3.77751">
        <ele>916.75</ele>
        <time>2013-06-05T11:54:56Z</time>
      </trkpt>
      <trkpt lat="44.23226" lon="3.7775">
        <ele>916.27</ele>
        <time>2013-06-05T11:55:46Z</time>
      </trkpt>
      <trkpt lat="44.23228" lon="3.7775">
        <ele>915.31</ele>
        <time>2013-06-05T11:56:20Z</time>
      </trkpt>
      <trkpt lat="44.23226" lon="3.77749">
        <ele>914.83</ele>
        <time>2013-06-05T11:57:05Z</time>
      </trkpt>
      <trkpt lat="44.23227" lon="3.77752">
        <ele>914.35</ele>
        <time>2013-06-05T11:58:00Z</time>
      </trkpt>
      <trkpt lat="44.23226" lon="3.77753">
        <ele>913.87</ele>
        <time>2013-06-05T11:58:51Z</time>
      </trkpt>
      <trkpt lat="44.23224" lon="3.77748">
        <ele>913.39</ele>
        <time>2013-06-05T11:59:44Z</time>
      </trkpt>
      <trkpt lat="44.23224" lon="3.7775">
        <ele>912.91</ele>
        <time>2013-06-05T12:00:34Z</time>
      </trkpt>
      <trkpt lat="44.23226" lon="3.77752">
        <ele>912.91</ele>
        <time>2013-06-05T12:01:19Z</time>
      </trkpt>
      <trkpt lat="44.23226" lon="3.77753">
        <ele>912.91</ele>
        <time>2013-06-05T12:02:06Z</time>
      </trkpt>
      <trkpt lat="44.23227" lon="3.77755">
        <ele>912.91</ele>
        <time>2013-06-05T12:02:32Z</time>
      </trkpt>
      <trkpt lat="44.23226" lon="3.77752">
        <ele>912.43</ele>
        <time>2013-06-05T12:03:06Z</time>
      </trkpt>
      <trkpt lat="44.23227" lon="3.77754">
        <ele>912.43</ele>
        <time>2013-06-05T12:03:42Z</time>
      </trkpt>
      <trkpt lat="44.23228" lon="3.77752">
        <ele>911.95</ele>
        <time>2013-06-05T12:04:17Z</time>
      </trkpt>
      <trkpt lat="44.23228" lon="3.77753">
        <ele>911.47</ele>
        <time>2013-06-05T12:04:48Z</time>
      </trkpt>
      <trkpt lat="44.23226" lon="3.77751">
        <ele>911.47</ele>
        <time>2013-06-05T12:05:29Z</time>
      </trkpt>
      <trkpt lat="44.23226" lon="3.77749">
        <ele>910.03</ele>
        <time>2013-06-05T12:05:41Z</time>
      </trkpt>
      <trkpt lat="44.23226" lon="3.77752">
        <ele>909.54</ele>
        <time>2013-06-05T12:06:20Z</time>
      </trkpt>
      <trkpt lat="44.23224" lon="3.77752">
        <ele>909.54</ele>
        <time>2013-06-05T12:07:03Z</time>
      </trkpt>
      <trkpt lat="44.23225" lon="3.77756">
        <ele>909.06</ele>
        <time>2013-06-05T12:07:41Z</time>
      </trkpt>
      <trkpt lat="44.23226" lon="3.77755">
        <ele>908.58</ele>
        <time>2013-06-05T12:08:23Z</time>
      </trkpt>
      <trkpt lat="44.23227" lon="3.77756">
        <ele>908.58</ele>
        <time>2013-06-05T12:09:05Z</time>
      </trkpt>
      <trkpt lat="44.23227" lon="3.77756">
        <ele>909.54</ele>
        <time>2013-06-05T12:09:14Z</time>
      </trkpt>
      <trkpt lat="44.23224" lon="3.77758">
        <ele>909.54</ele>
        <time>2013-06-05T12:09:50Z</time>
      </trkpt>
      <trkpt lat="44.23224" lon="3.77757">
        <ele>908.1</ele>
        <time>2013-06-05T12:09:57Z</time>
      </trkpt>
      <trkpt lat="44.23226" lon="3.77755">
        <ele>909.06</ele>
        <time>2013-06-05T12:10:31Z</time>
      </trkpt>
      <trkpt lat="44.23228" lon="3.77749">
        <ele>910.03</ele>
        <time>2013-06-05T12:10:46Z</time>
      </trkpt>
      <trkpt lat="44.23228" lon="3.77749">
        <ele>908.58</ele>
        <time>2013-06-05T12:10:59Z</time>
      </trkpt>
      <trkpt lat="44.2323" lon="3.7775">
        <ele>908.1</ele>
        <time>2013-06-05T12:11:41Z</time>
      </trkpt>
      <trkpt lat="44.23231" lon="3.77751">
        <ele>909.54</ele>
        <time>2013-06-05T12:11:49Z</time>
      </trkpt>
      <trkpt lat="44.23236" lon="3.77755">
        <ele>909.06</ele>
        <time>2013-06-05T12:12:30Z</time>
      </trkpt>
      <trkpt lat="44.2323" lon="3.77747">
        <ele>907.62</ele>
        <time>2013-06-05T12:13:25Z</time>
      </trkpt>
      <trkpt lat="44.2323" lon="3.77747">
        <ele>907.62</ele>
        <time>2013-06-05T12:13:26Z</time>
      </trkpt>
      <trkpt lat="44.23231" lon="3.7775">
        <ele>909.06</ele>
        <time>2013-06-05T12:13:35Z</time>
      </trkpt>
      <trkpt lat="44.23231" lon="3.77755">
        <ele>908.58</ele>
        <time>2013-06-05T12:14:10Z</time>
      </trkpt>
      <trkpt lat="44.23229" lon="3.77752">
        <ele>909.06</ele>
        <time>2013-06-05T12:14:26Z</time>
      </trkpt>
      <trkpt lat="44.23229" lon="3.77751">
        <ele>909.06</ele>
        <time>2013-06-05T12:14:40Z</time>
      </trkpt>
      <trkpt lat="44.23228" lon="3.77751">
        <ele>908.58</ele>
        <time>2013-06-05T12:15:02Z</time>
      </trkpt>
      <trkpt lat="44.23229" lon="3.77754">
        <ele>908.58</ele>
        <time>2013-06-05T12:15:14Z</time>
      </trkpt>
      <trkpt lat="44.23227" lon="3.77754">
        <ele>907.14</ele>
        <time>2013-06-05T12:15:20Z</time>
      </trkpt>
      <trkpt lat="44.23225" lon="3.77753">
        <ele>907.14</ele>
        <time>2013-06-05T12:15:22Z</time>
      </trkpt>
      <trkpt lat="44.23207" lon="3.7775">
        <ele>906.66</ele>
        <time>2013-06-05T12:15:39Z</time>
      </trkpt>
      <trkpt lat="44.232" lon="3.7777">
        <ele>905.7</ele>
        <time>2013-06-05T12:15:52Z</time>
      </trkpt>
      <trkpt lat="44.23185" lon="3.77793">
        <ele>906.66</ele>
        <time>2013-06-05T12:16:08Z</time>
      </trkpt>
      <trkpt lat="44.23184" lon="3.77794">
        <ele>907.62</ele>
        <time>2013-06-05T12:16:09Z</time>
      </trkpt>
      <trkpt lat="44.2318" lon="3.77796">
        <ele>907.62</ele>
        <time>2013-06-05T12:16:12Z</time>
      </trkpt>
      <trkpt lat="44.23161" lon="3.77819">
        <ele>907.14</ele>
        <time>2013-06-05T12:16:32Z</time>
      </trkpt>
      <trkpt lat="44.23157" lon="3.77823">
        <ele>905.7</ele>
        <time>2013-06-05T12:16:36Z</time>
      </trkpt>
      <trkpt lat="44.23155" lon="3.77832">
        <ele>905.7</ele>
        <time>2013-06-05T12:16:43Z</time>
      </trkpt>
      <trkpt lat="44.23142" lon="3.77851">
        <ele>905.22</ele>
        <time>2013-06-05T12:16:58Z</time>
      </trkpt>
      <trkpt lat="44.23126" lon="3.77873">
        <ele>904.74</ele>
        <time>2013-06-05T12:17:10Z</time>
      </trkpt>
      <trkpt lat="44.23106" lon="3.779">
        <ele>904.74</ele>
        <time>2013-06-05T12:17:29Z</time>
      </trkpt>
      <trkpt lat="44.23091" lon="3.77925">
        <ele>905.22</ele>
        <time>2013-06-05T12:17:47Z</time>
      </trkpt>
      <trkpt lat="44.23078" lon="3.77947">
        <ele>903.78</ele>
        <time>2013-06-05T12:18:03Z</time>
      </trkpt>
      <trkpt lat="44.23065" lon="3.77975">
        <ele>901.37</ele>
        <time>2013-06-05T12:18:20Z</time>
      </trkpt>
      <trkpt lat="44.23064" lon="3.77995">
        <ele>900.41</ele>
        <time>2013-06-05T12:18:32Z</time>
      </trkpt>
      <trkpt lat="44.23067" lon="3.78022">
        <ele>898.97</ele>
        <time>2013-06-05T12:18:47Z</time>
      </trkpt>
      <trkpt lat="44.23069" lon="3.78031">
        <ele>898.01</ele>
        <time>2013-06-05T12:18:54Z</time>
      </trkpt>
      <trkpt lat="44.23076" lon="3.78046">
        <ele>895.12</ele>
        <time>2013-06-05T12:19:06Z</time>
      </trkpt>
      <trkpt lat="44.23081" lon="3.7807">
        <ele>894.16</ele>
        <time>2013-06-05T12:19:20Z</time>
      </trkpt>
      <trkpt lat="44.23087" lon="3.781">
        <ele>892.24</ele>
        <time>2013-06-05T12:19:34Z</time>
      </trkpt>
      <trkpt lat="44.23087" lon="3.78132">
        <ele>890.32</ele>
        <time>2013-06-05T12:19:48Z</time>
      </trkpt>
      <trkpt lat="44.23087" lon="3.78134">
        <ele>890.32</ele>
        <time>2013-06-05T12:19:49Z</time>
      </trkpt>
      <trkpt lat="44.23086" lon="3.78141">
        <ele>889.36</ele>
        <time>2013-06-05T12:19:53Z</time>
      </trkpt>
      <trkpt lat="44.23082" lon="3.78167">
        <ele>887.43</ele>
        <time>2013-06-05T12:20:07Z</time>
      </trkpt>
      <trkpt lat="44.23074" lon="3.78183">
        <ele>886.47</ele>
        <time>2013-06-05T12:20:17Z</time>
      </trkpt>
      <trkpt lat="44.2307" lon="3.78194">
        <ele>885.51</ele>
        <time>2013-06-05T12:20:23Z</time>
      </trkpt>
      <trkpt lat="44.23066" lon="3.78216">
        <ele>885.03</ele>
        <time>2013-06-05T12:20:35Z</time>
      </trkpt>
      <trkpt lat="44.23056" lon="3.7824">
        <ele>883.59</ele>
        <time>2013-06-05T12:20:51Z</time>
      </trkpt>
      <trkpt lat="44.23045" lon="3.78261">
        <ele>882.15</ele>
        <time>2013-06-05T12:21:07Z</time>
      </trkpt>
      <trkpt lat="44.23035" lon="3.78275">
        <ele>881.19</ele>
        <time>2013-06-05T12:21:20Z</time>
      </trkpt>
      <trkpt lat="44.23024" lon="3.78298">
        <ele>879.26</ele>
        <time>2013-06-05T12:21:36Z</time>
      </trkpt>
      <trkpt lat="44.23018" lon="3.78311">
        <ele>878.78</ele>
        <time>2013-06-05T12:21:44Z</time>
      </trkpt>
      <trkpt lat="44.23012" lon="3.78323">
        <ele>877.82</ele>
        <time>2013-06-05T12:21:51Z</time>
      </trkpt>
      <trkpt lat="44.22998" lon="3.78349">
        <ele>875.9</ele>
        <time>2013-06-05T12:22:08Z</time>
      </trkpt>
      <trkpt lat="44.22984" lon="3.78368">
        <ele>874.94</ele>
        <time>2013-06-05T12:22:21Z</time>
      </trkpt>
      <trkpt lat="44.22975" lon="3.78383">
        <ele>874.46</ele>
        <time>2013-06-05T12:22:32Z</time>
      </trkpt>
      <trkpt lat="44.22967" lon="3.78393">
        <ele>873.5</ele>
        <time>2013-06-05T12:22:37Z</time>
      </trkpt>
      <trkpt lat="44.22959" lon="3.78406">
        <ele>872.53</ele>
        <time>2013-06-05T12:22:44Z</time>
      </trkpt>
      <trkpt lat="44.22934" lon="3.78441">
        <ele>870.13</ele>
        <time>2013-06-05T12:23:00Z</time>
      </trkpt>
      <trkpt lat="44.22926" lon="3.78448">
        <ele>870.61</ele>
        <time>2013-06-05T12:23:17Z</time>
      </trkpt>
      <trkpt lat="44.22912" lon="3.78456">
        <ele>870.13</ele>
        <time>2013-06-05T12:23:32Z</time>
      </trkpt>
      <trkpt lat="44.22891" lon="3.78465">
        <ele>869.65</ele>
        <time>2013-06-05T12:23:48Z</time>
      </trkpt>
      <trkpt lat="44.22885" lon="3.78471">
        <ele>868.69</ele>
        <time>2013-06-05T12:24:02Z</time>
      </trkpt>
      <trkpt lat="44.22887" lon="3.78472">
        <ele>869.17</ele>
        <time>2013-06-05T12:24:26Z</time>
      </trkpt>
      <trkpt lat="44.22887" lon="3.78471">
        <ele>869.17</ele>
        <time>2013-06-05T12:24:28Z</time>
      </trkpt>
      <trkpt lat="44.22901" lon="3.7846">
        <ele>869.17</ele>
        <time>2013-06-05T12:24:40Z</time>
      </trkpt>
      <trkpt lat="44.22904" lon="3.78456">
        <ele>870.61</ele>
        <time>2013-06-05T12:24:43Z</time>
      </trkpt>
      <trkpt lat="44.22905" lon="3.78455">
        <ele>870.61</ele>
        <time>2013-06-05T12:24:45Z</time>
      </trkpt>
      <trkpt lat="44.2292" lon="3.78449">
        <ele>871.57</ele>
        <time>2013-06-05T12:24:59Z</time>
      </trkpt>
      <trkpt lat="44.22928" lon="3.78446">
        <ele>873.01</ele>
        <time>2013-06-05T12:25:04Z</time>
      </trkpt>
      <trkpt lat="44.22938" lon="3.78441">
        <ele>874.46</ele>
        <time>2013-06-05T12:25:11Z</time>
      </trkpt>
      <trkpt lat="44.22947" lon="3.78433">
        <ele>874.94</ele>
        <time>2013-06-05T12:25:18Z</time>
      </trkpt>
      <trkpt lat="44.22968" lon="3.78414">
        <ele>877.34</ele>
        <time>2013-06-05T12:25:35Z</time>
      </trkpt>
      <trkpt lat="44.22972" lon="3.78411">
        <ele>877.34</ele>
        <time>2013-06-05T12:25:38Z</time>
      </trkpt>
      <trkpt lat="44.22986" lon="3.78392">
        <ele>879.26</ele>
        <time>2013-06-05T12:25:53Z</time>
      </trkpt>
      <trkpt lat="44.22988" lon="3.78387">
        <ele>879.74</ele>
        <time>2013-06-05T12:25:56Z</time>
      </trkpt>
      <trkpt lat="44.23" lon="3.78369">
        <ele>881.19</ele>
        <time>2013-06-05T12:26:09Z</time>
      </trkpt>
      <trkpt lat="44.23001" lon="3.78366">
        <ele>881.19</ele>
        <time>2013-06-05T12:26:11Z</time>
      </trkpt>
      <trkpt lat="44.23004" lon="3.78358">
        <ele>882.15</ele>
        <time>2013-06-05T12:26:15Z</time>
      </trkpt>
      <trkpt lat="44.23011" lon="3.78343">
        <ele>883.11</ele>
        <time>2013-06-05T12:26:26Z</time>
      </trkpt>
      <trkpt lat="44.23019" lon="3.78317">
        <ele>884.07</ele>
        <time>2013-06-05T12:26:39Z</time>
      </trkpt>
      <trkpt lat="44.23029" lon="3.7829">
        <ele>885.51</ele>
        <time>2013-06-05T12:26:54Z</time>
      </trkpt>
      <trkpt lat="44.2304" lon="3.78269">
        <ele>886.47</ele>
        <time>2013-06-05T12:27:07Z</time>
      </trkpt>
      <trkpt lat="44.23044" lon="3.78259">
        <ele>887.43</ele>
        <time>2013-06-05T12:27:13Z</time>
      </trkpt>
      <trkpt lat="44.23053" lon="3.78229">
        <ele>888.4</ele>
        <time>2013-06-05T12:27:28Z</time>
      </trkpt>
      <trkpt lat="44.23054" lon="3.78225">
        <ele>888.4</ele>
        <time>2013-06-05T12:27:30Z</time>
      </trkpt>
      <trkpt lat="44.23063" lon="3.78199">
        <ele>889.84</ele>
        <time>2013-06-05T12:27:42Z</time>
      </trkpt>
      <trkpt lat="44.23069" lon="3.78183">
        <ele>891.28</ele>
        <time>2013-06-05T12:27:53Z</time>
      </trkpt>
      <trkpt lat="44.23072" lon="3.78167">
        <ele>892.72</ele>
        <time>2013-06-05T12:28:04Z</time>
      </trkpt>
      <trkpt lat="44.23073" lon="3.78154">
        <ele>894.16</ele>
        <time>2013-06-05T12:28:16Z</time>
      </trkpt>
      <trkpt lat="44.23073" lon="3.78141">
        <ele>896.57</ele>
        <time>2013-06-05T12:28:29Z</time>
      </trkpt>
      <trkpt lat="44.23068" lon="3.78121">
        <ele>898.01</ele>
        <time>2013-06-05T12:28:45Z</time>
      </trkpt>
      <trkpt lat="44.23064" lon="3.78106">
        <ele>899.93</ele>
        <time>2013-06-05T12:28:57Z</time>
      </trkpt>
      <trkpt lat="44.2306" lon="3.78086">
        <ele>902.82</ele>
        <time>2013-06-05T12:29:10Z</time>
      </trkpt>
      <trkpt lat="44.2306" lon="3.78067">
        <ele>903.3</ele>
        <time>2013-06-05T12:29:18Z</time>
      </trkpt>
      <trkpt lat="44.23058" lon="3.78056">
        <ele>903.78</ele>
        <time>2013-06-05T12:29:23Z</time>
      </trkpt>
      <trkpt lat="44.23053" lon="3.78044">
        <ele>904.74</ele>
        <time>2013-06-05T12:29:31Z</time>
      </trkpt>
      <trkpt lat="44.2306" lon="3.78005">
        <ele>905.7</ele>
        <time>2013-06-05T12:29:39Z</time>
      </trkpt>
      <trkpt lat="44.23072" lon="3.77963">
        <ele>907.62</ele>
        <time>2013-06-05T12:29:55Z</time>
      </trkpt>
      <trkpt lat="44.23081" lon="3.77937">
        <ele>909.06</ele>
        <time>2013-06-05T12:30:07Z</time>
      </trkpt>
      <trkpt lat="44.23081" lon="3.77934">
        <ele>910.03</ele>
        <time>2013-06-05T12:30:10Z</time>
      </trkpt>
      <trkpt lat="44.23069" lon="3.77944">
        <ele>911.95</ele>
        <time>2013-06-05T12:30:23Z</time>
      </trkpt>
      <trkpt lat="44.23057" lon="3.77953">
        <ele>912.43</ele>
        <time>2013-06-05T12:30:36Z</time>
      </trkpt>
      <trkpt lat="44.23046" lon="3.77961">
        <ele>912.43</ele>
        <time>2013-06-05T12:30:49Z</time>
      </trkpt>
      <trkpt lat="44.23032" lon="3.77969">
        <ele>914.35</ele>
        <time>2013-06-05T12:31:02Z</time>
      </trkpt>
      <trkpt lat="44.23028" lon="3.77973">
        <ele>914.83</ele>
        <time>2013-06-05T12:31:09Z</time>
      </trkpt>
      <trkpt lat="44.23014" lon="3.77997">
        <ele>914.83</ele>
        <time>2013-06-05T12:31:24Z</time>
      </trkpt>
      <trkpt lat="44.2301" lon="3.78016">
        <ele>915.31</ele>
        <time>2013-06-05T12:31:31Z</time>
      </trkpt>
      <trkpt lat="44.23007" lon="3.78022">
        <ele>915.79</ele>
        <time>2013-06-05T12:31:46Z</time>
      </trkpt>
      <trkpt lat="44.23008" lon="3.78023">
        <ele>916.27</ele>
        <time>2013-06-05T12:31:51Z</time>
      </trkpt>
      <trkpt lat="44.23002" lon="3.78039">
        <ele>917.24</ele>
        <time>2013-06-05T12:32:03Z</time>
      </trkpt>
      <trkpt lat="44.2299" lon="3.78059">
        <ele>919.16</ele>
        <time>2013-06-05T12:32:15Z</time>
      </trkpt>
      <trkpt lat="44.22978" lon="3.78083">
        <ele>917.72</ele>
        <time>2013-06-05T12:32:32Z</time>
      </trkpt>
      <trkpt lat="44.22978" lon="3.78085">
        <ele>917.72</ele>
        <time>2013-06-05T12:32:33Z</time>
      </trkpt>
      <trkpt lat="44.22972" lon="3.78109">
        <ele>915.79</ele>
        <time>2013-06-05T12:32:47Z</time>
      </trkpt>
      <trkpt lat="44.22958" lon="3.78134">
        <ele>912.91</ele>
        <time>2013-06-05T12:33:04Z</time>
      </trkpt>
      <trkpt lat="44.22946" lon="3.78152">
        <ele>910.51</ele>
        <time>2013-06-05T12:33:18Z</time>
      </trkpt>
      <trkpt lat="44.22942" lon="3.78156">
        <ele>910.51</ele>
        <time>2013-06-05T12:33:21Z</time>
      </trkpt>
      <trkpt lat="44.22927" lon="3.78173">
        <ele>909.06</ele>
        <time>2013-06-05T12:33:36Z</time>
      </trkpt>
      <trkpt lat="44.22918" lon="3.78188">
        <ele>908.58</ele>
        <time>2013-06-05T12:33:48Z</time>
      </trkpt>
      <trkpt lat="44.22909" lon="3.78208">
        <ele>910.99</ele>
        <time>2013-06-05T12:34:03Z</time>
      </trkpt>
      <trkpt lat="44.22897" lon="3.78226">
        <ele>913.39</ele>
        <time>2013-06-05T12:34:16Z</time>
      </trkpt>
      <trkpt lat="44.22892" lon="3.78238">
        <ele>915.79</ele>
        <time>2013-06-05T12:34:28Z</time>
      </trkpt>
      <trkpt lat="44.22885" lon="3.78256">
        <ele>919.64</ele>
        <time>2013-06-05T12:34:41Z</time>
      </trkpt>
      <trkpt lat="44.22869" lon="3.7827">
        <ele>923</ele>
        <time>2013-06-05T12:34:50Z</time>
      </trkpt>
      <trkpt lat="44.22847" lon="3.78282">
        <ele>925.89</ele>
        <time>2013-06-05T12:35:02Z</time>
      </trkpt>
      <trkpt lat="44.22843" lon="3.78285">
        <ele>925.89</ele>
        <time>2013-06-05T12:35:04Z</time>
      </trkpt>
      <trkpt lat="44.22839" lon="3.78289">
        <ele>926.85</ele>
        <time>2013-06-05T12:35:07Z</time>
      </trkpt>
      <trkpt lat="44.2283" lon="3.78298">
        <ele>927.81</ele>
        <time>2013-06-05T12:35:18Z</time>
      </trkpt>
      <trkpt lat="44.22828" lon="3.78299">
        <ele>927.81</ele>
        <time>2013-06-05T12:35:20Z</time>
      </trkpt>
      <trkpt lat="44.22811" lon="3.78306">
        <ele>924.93</ele>
        <time>2013-06-05T12:35:34Z</time>
      </trkpt>
      <trkpt lat="44.22798" lon="3.78314">
        <ele>923.96</ele>
        <time>2013-06-05T12:35:48Z</time>
      </trkpt>
      <trkpt lat="44.22788" lon="3.78314">
        <ele>920.12</ele>
        <time>2013-06-05T12:36:00Z</time>
      </trkpt>
      <trkpt lat="44.22785" lon="3.78315">
        <ele>919.64</ele>
        <time>2013-06-05T12:36:02Z</time>
      </trkpt>
      <trkpt lat="44.22783" lon="3.7832">
        <ele>919.64</ele>
        <time>2013-06-05T12:36:07Z</time>
      </trkpt>
      <trkpt lat="44.2278" lon="3.78324">
        <ele>919.64</ele>
        <time>2013-06-05T12:36:10Z</time>
      </trkpt>
      <trkpt lat="44.22775" lon="3.78332">
        <ele>917.24</ele>
        <time>2013-06-05T12:36:23Z</time>
      </trkpt>
      <trkpt lat="44.22767" lon="3.78334">
        <ele>913.87</ele>
        <time>2013-06-05T12:36:35Z</time>
      </trkpt>
      <trkpt lat="44.22766" lon="3.78335">
        <ele>913.87</ele>
        <time>2013-06-05T12:36:36Z</time>
      </trkpt>
      <trkpt lat="44.2275" lon="3.7834">
        <ele>910.03</ele>
        <time>2013-06-05T12:36:51Z</time>
      </trkpt>
      <trkpt lat="44.22735" lon="3.78347">
        <ele>909.06</ele>
        <time>2013-06-05T12:37:05Z</time>
      </trkpt>
      <trkpt lat="44.22734" lon="3.78347">
        <ele>909.06</ele>
        <time>2013-06-05T12:37:06Z</time>
      </trkpt>
      <trkpt lat="44.22719" lon="3.78359">
        <ele>908.58</ele>
        <time>2013-06-05T12:37:21Z</time>
      </trkpt>
      <trkpt lat="44.22711" lon="3.78369">
        <ele>910.51</ele>
        <time>2013-06-05T12:37:34Z</time>
      </trkpt>
      <trkpt lat="44.2271" lon="3.78371">
        <ele>910.51</ele>
        <time>2013-06-05T12:37:36Z</time>
      </trkpt>
      <trkpt lat="44.22704" lon="3.78388">
        <ele>908.58</ele>
        <time>2013-06-05T12:37:50Z</time>
      </trkpt>
      <trkpt lat="44.22695" lon="3.78399">
        <ele>911.95</ele>
        <time>2013-06-05T12:38:02Z</time>
      </trkpt>
      <trkpt lat="44.22684" lon="3.7841">
        <ele>914.83</ele>
        <time>2013-06-05T12:38:11Z</time>
      </trkpt>
      <trkpt lat="44.22682" lon="3.78411">
        <ele>914.83</ele>
        <time>2013-06-05T12:38:12Z</time>
      </trkpt>
      <trkpt lat="44.22667" lon="3.78423">
        <ele>916.75</ele>
        <time>2013-06-05T12:38:25Z</time>
      </trkpt>
      <trkpt lat="44.22662" lon="3.78428">
        <ele>916.75</ele>
        <time>2013-06-05T12:38:30Z</time>
      </trkpt>
      <trkpt lat="44.22656" lon="3.78434">
        <ele>916.75</ele>
        <time>2013-06-05T12:38:38Z</time>
      </trkpt>
      <trkpt lat="44.22649" lon="3.78439">
        <ele>916.75</ele>
        <time>2013-06-05T12:38:44Z</time>
      </trkpt>
      <trkpt lat="44.22637" lon="3.78454">
        <ele>916.75</ele>
        <time>2013-06-05T12:38:58Z</time>
      </trkpt>
      <trkpt lat="44.22623" lon="3.78463">
        <ele>917.24</ele>
        <time>2013-06-05T12:39:13Z</time>
      </trkpt>
      <trkpt lat="44.22616" lon="3.78466">
        <ele>916.75</ele>
        <time>2013-06-05T12:39:25Z</time>
      </trkpt>
      <trkpt lat="44.22607" lon="3.78472">
        <ele>915.31</ele>
        <time>2013-06-05T12:39:34Z</time>
      </trkpt>
      <trkpt lat="44.22603" lon="3.78474">
        <ele>915.31</ele>
        <time>2013-06-05T12:39:37Z</time>
      </trkpt>
      <trkpt lat="44.2259" lon="3.78482">
        <ele>915.31</ele>
        <time>2013-06-05T12:39:48Z</time>
      </trkpt>
      <trkpt lat="44.22576" lon="3.78489">
        <ele>917.72</ele>
        <time>2013-06-05T12:40:03Z</time>
      </trkpt>
      <trkpt lat="44.22561" lon="3.785">
        <ele>920.6</ele>
        <time>2013-06-05T12:40:15Z</time>
      </trkpt>
      <trkpt lat="44.2255" lon="3.78524">
        <ele>923.48</ele>
        <time>2013-06-05T12:40:30Z</time>
      </trkpt>
      <trkpt lat="44.22547" lon="3.78546">
        <ele>923.96</ele>
        <time>2013-06-05T12:40:44Z</time>
      </trkpt>
      <trkpt lat="44.22541" lon="3.78562">
        <ele>926.85</ele>
        <time>2013-06-05T12:40:55Z</time>
      </trkpt>
      <trkpt lat="44.22532" lon="3.78572">
        <ele>930.21</ele>
        <time>2013-06-05T12:41:05Z</time>
      </trkpt>
      <trkpt lat="44.22526" lon="3.78581">
        <ele>933.58</ele>
        <time>2013-06-05T12:41:17Z</time>
      </trkpt>
      <trkpt lat="44.22517" lon="3.78594">
        <ele>936.94</ele>
        <time>2013-06-05T12:41:29Z</time>
      </trkpt>
      <trkpt lat="44.22517" lon="3.78594">
        <ele>936.94</ele>
        <time>2013-06-05T12:41:30Z</time>
      </trkpt>
      <trkpt lat="44.22509" lon="3.78596">
        <ele>940.31</ele>
        <time>2013-06-05T12:41:42Z</time>
      </trkpt>
      <trkpt lat="44.22501" lon="3.78604">
        <ele>943.19</ele>
        <time>2013-06-05T12:41:56Z</time>
      </trkpt>
      <trkpt lat="44.22492" lon="3.78609">
        <ele>944.63</ele>
        <time>2013-06-05T12:42:10Z</time>
      </trkpt>
      <trkpt lat="44.22476" lon="3.78605">
        <ele>945.11</ele>
        <time>2013-06-05T12:42:24Z</time>
      </trkpt>
      <trkpt lat="44.22473" lon="3.78604">
        <ele>945.11</ele>
        <time>2013-06-05T12:42:27Z</time>
      </trkpt>
      <trkpt lat="44.22465" lon="3.78596">
        <ele>948.48</ele>
        <time>2013-06-05T12:42:41Z</time>
      </trkpt>
      <trkpt lat="44.22465" lon="3.78595">
        <ele>947.52</ele>
        <time>2013-06-05T12:42:55Z</time>
      </trkpt>
      <trkpt lat="44.22464" lon="3.78595">
        <ele>949.44</ele>
        <time>2013-06-05T12:43:00Z</time>
      </trkpt>
      <trkpt lat="44.22465" lon="3.78594">
        <ele>948</ele>
        <time>2013-06-05T12:43:03Z</time>
      </trkpt>
      <trkpt lat="44.22469" lon="3.78597">
        <ele>945.59</ele>
        <time>2013-06-05T12:43:14Z</time>
      </trkpt>
      <trkpt lat="44.22469" lon="3.78598">
        <ele>945.59</ele>
        <time>2013-06-05T12:43:15Z</time>
      </trkpt>
      <trkpt lat="44.22469" lon="3.786">
        <ele>944.63</ele>
        <time>2013-06-05T12:43:17Z</time>
      </trkpt>
      <trkpt lat="44.22466" lon="3.78604">
        <ele>943.67</ele>
        <time>2013-06-05T12:43:22Z</time>
      </trkpt>
      <trkpt lat="44.22459" lon="3.78616">
        <ele>945.11</ele>
        <time>2013-06-05T12:43:35Z</time>
      </trkpt>
      <trkpt lat="44.22455" lon="3.78634">
        <ele>946.56</ele>
        <time>2013-06-05T12:43:50Z</time>
      </trkpt>
      <trkpt lat="44.22453" lon="3.78644">
        <ele>944.63</ele>
        <time>2013-06-05T12:43:55Z</time>
      </trkpt>
      <trkpt lat="44.22448" lon="3.78647">
        <ele>945.59</ele>
        <time>2013-06-05T12:44:00Z</time>
      </trkpt>
      <trkpt lat="44.22444" lon="3.78657">
        <ele>944.15</ele>
        <time>2013-06-05T12:44:14Z</time>
      </trkpt>
      <trkpt lat="44.22441" lon="3.78661">
        <ele>944.15</ele>
        <time>2013-06-05T12:44:20Z</time>
      </trkpt>
      <trkpt lat="44.22433" lon="3.78675">
        <ele>946.07</ele>
        <time>2013-06-05T12:44:33Z</time>
      </trkpt>
      <trkpt lat="44.22425" lon="3.78681">
        <ele>943.67</ele>
        <time>2013-06-05T12:44:45Z</time>
      </trkpt>
      <trkpt lat="44.22421" lon="3.78684">
        <ele>942.23</ele>
        <time>2013-06-05T12:44:51Z</time>
      </trkpt>
      <trkpt lat="44.22419" lon="3.78685">
        <ele>941.75</ele>
        <time>2013-06-05T12:44:54Z</time>
      </trkpt>
      <trkpt lat="44.22415" lon="3.78692">
        <ele>937.9</ele>
        <time>2013-06-05T12:45:05Z</time>
      </trkpt>
      <trkpt lat="44.2241" lon="3.78706">
        <ele>935.98</ele>
        <time>2013-06-05T12:45:18Z</time>
      </trkpt>
      <trkpt lat="44.22404" lon="3.78716">
        <ele>935.98</ele>
        <time>2013-06-05T12:45:27Z</time>
      </trkpt>
      <trkpt lat="44.22399" lon="3.78726">
        <ele>939.83</ele>
        <time>2013-06-05T12:45:38Z</time>
      </trkpt>
      <trkpt lat="44.224" lon="3.78728">
        <ele>939.83</ele>
        <time>2013-06-05T12:45:39Z</time>
      </trkpt>
      <trkpt lat="44.22396" lon="3.78743">
        <ele>942.71</ele>
        <time>2013-06-05T12:45:50Z</time>
      </trkpt>
      <trkpt lat="44.22389" lon="3.78756">
        <ele>944.63</ele>
        <time>2013-06-05T12:46:01Z</time>
      </trkpt>
      <trkpt lat="44.22377" lon="3.78768">
        <ele>946.07</ele>
        <time>2013-06-05T12:46:14Z</time>
      </trkpt>
      <trkpt lat="44.22377" lon="3.78775">
        <ele>947.04</ele>
        <time>2013-06-05T12:46:27Z</time>
      </trkpt>
      <trkpt lat="44.22368" lon="3.78783">
        <ele>945.11</ele>
        <time>2013-06-05T12:46:41Z</time>
      </trkpt>
      <trkpt lat="44.22362" lon="3.78781">
        <ele>943.19</ele>
        <time>2013-06-05T12:46:49Z</time>
      </trkpt>
      <trkpt lat="44.22356" lon="3.78787">
        <ele>943.67</ele>
        <time>2013-06-05T12:46:56Z</time>
      </trkpt>
      <trkpt lat="44.22348" lon="3.78799">
        <ele>944.63</ele>
        <time>2013-06-05T12:47:08Z</time>
      </trkpt>
      <trkpt lat="44.2234" lon="3.7881">
        <ele>943.67</ele>
        <time>2013-06-05T12:47:20Z</time>
      </trkpt>
      <trkpt lat="44.22337" lon="3.78811">
        <ele>945.11</ele>
        <time>2013-06-05T12:47:26Z</time>
      </trkpt>
      <trkpt lat="44.22336" lon="3.78811">
        <ele>943.67</ele>
        <time>2013-06-05T12:47:33Z</time>
      </trkpt>
      <trkpt lat="44.22336" lon="3.78813">
        <ele>943.67</ele>
        <time>2013-06-05T12:47:59Z</time>
      </trkpt>
      <trkpt lat="44.22338" lon="3.78817">
        <ele>943.67</ele>
        <time>2013-06-05T12:48:17Z</time>
      </trkpt>
      <trkpt lat="44.22338" lon="3.78818">
        <ele>943.19</ele>
        <time>2013-06-05T12:48:26Z</time>
      </trkpt>
      <trkpt lat="44.22338" lon="3.78822">
        <ele>942.23</ele>
        <time>2013-06-05T12:48:38Z</time>
      </trkpt>
      <trkpt lat="44.22339" lon="3.78828">
        <ele>939.83</ele>
        <time>2013-06-05T12:48:50Z</time>
      </trkpt>
      <trkpt lat="44.22338" lon="3.78831">
        <ele>938.86</ele>
        <time>2013-06-05T12:48:55Z</time>
      </trkpt>
      <trkpt lat="44.22333" lon="3.78837">
        <ele>935.98</ele>
        <time>2013-06-05T12:49:10Z</time>
      </trkpt>
      <trkpt lat="44.22331" lon="3.78845">
        <ele>933.1</ele>
        <time>2013-06-05T12:49:22Z</time>
      </trkpt>
      <trkpt lat="44.22322" lon="3.78858">
        <ele>931.17</ele>
        <time>2013-06-05T12:49:34Z</time>
      </trkpt>
      <trkpt lat="44.22315" lon="3.78868">
        <ele>930.69</ele>
        <time>2013-06-05T12:49:48Z</time>
      </trkpt>
      <trkpt lat="44.22307" lon="3.78875">
        <ele>929.25</ele>
        <time>2013-06-05T12:50:02Z</time>
      </trkpt>
      <trkpt lat="44.223" lon="3.78885">
        <ele>928.29</ele>
        <time>2013-06-05T12:50:11Z</time>
      </trkpt>
      <trkpt lat="44.22291" lon="3.78896">
        <ele>925.41</ele>
        <time>2013-06-05T12:50:24Z</time>
      </trkpt>
      <trkpt lat="44.22289" lon="3.78903">
        <ele>923.96</ele>
        <time>2013-06-05T12:50:31Z</time>
      </trkpt>
      <trkpt lat="44.2229" lon="3.78914">
        <ele>920.6</ele>
        <time>2013-06-05T12:50:42Z</time>
      </trkpt>
      <trkpt lat="44.2229" lon="3.78924">
        <ele>917.72</ele>
        <time>2013-06-05T12:50:54Z</time>
      </trkpt>
      <trkpt lat="44.22288" lon="3.78938">
        <ele>914.83</ele>
        <time>2013-06-05T12:51:07Z</time>
      </trkpt>
      <trkpt lat="44.22285" lon="3.78957">
        <ele>913.39</ele>
        <time>2013-06-05T12:51:21Z</time>
      </trkpt>
      <trkpt lat="44.22282" lon="3.7896">
        <ele>912.43</ele>
        <time>2013-06-05T12:51:25Z</time>
      </trkpt>
      <trkpt lat="44.2228" lon="3.78962">
        <ele>912.43</ele>
        <time>2013-06-05T12:51:27Z</time>
      </trkpt>
      <trkpt lat="44.22268" lon="3.78976">
        <ele>910.99</ele>
        <time>2013-06-05T12:51:40Z</time>
      </trkpt>
      <trkpt lat="44.22262" lon="3.7899">
        <ele>910.03</ele>
        <time>2013-06-05T12:51:55Z</time>
      </trkpt>
      <trkpt lat="44.22256" lon="3.79">
        <ele>909.54</ele>
        <time>2013-06-05T12:52:08Z</time>
      </trkpt>
      <trkpt lat="44.22244" lon="3.79013">
        <ele>907.14</ele>
        <time>2013-06-05T12:52:23Z</time>
      </trkpt>
      <trkpt lat="44.22236" lon="3.79033">
        <ele>905.22</ele>
        <time>2013-06-05T12:52:34Z</time>
      </trkpt>
      <trkpt lat="44.22228" lon="3.79062">
        <ele>902.82</ele>
        <time>2013-06-05T12:52:49Z</time>
      </trkpt>
      <trkpt lat="44.22223" lon="3.79071">
        <ele>900.89</ele>
        <time>2013-06-05T12:52:56Z</time>
      </trkpt>
      <trkpt lat="44.22222" lon="3.79078">
        <ele>899.93</ele>
        <time>2013-06-05T12:53:01Z</time>
      </trkpt>
      <trkpt lat="44.22225" lon="3.79091">
        <ele>896.57</ele>
        <time>2013-06-05T12:53:12Z</time>
      </trkpt>
      <trkpt lat="44.22227" lon="3.79096">
        <ele>895.61</ele>
        <time>2013-06-05T12:53:20Z</time>
      </trkpt>
      <trkpt lat="44.22224" lon="3.79108">
        <ele>892.24</ele>
        <time>2013-06-05T12:53:33Z</time>
      </trkpt>
      <trkpt lat="44.22223" lon="3.79112">
        <ele>890.8</ele>
        <time>2013-06-05T12:53:38Z</time>
      </trkpt>
      <trkpt lat="44.22224" lon="3.79117">
        <ele>889.36</ele>
        <time>2013-06-05T12:53:43Z</time>
      </trkpt>
      <trkpt lat="44.2222" lon="3.79128">
        <ele>885.99</ele>
        <time>2013-06-05T12:53:55Z</time>
      </trkpt>
      <trkpt lat="44.2222" lon="3.79129">
        <ele>885.99</ele>
        <time>2013-06-05T12:53:56Z</time>
      </trkpt>
      <trkpt lat="44.22219" lon="3.79136">
        <ele>885.03</ele>
        <time>2013-06-05T12:54:01Z</time>
      </trkpt>
      <trkpt lat="44.22216" lon="3.79141">
        <ele>884.55</ele>
        <time>2013-06-05T12:54:05Z</time>
      </trkpt>
      <trkpt lat="44.22213" lon="3.79152">
        <ele>884.07</ele>
        <time>2013-06-05T12:54:19Z</time>
      </trkpt>
      <trkpt lat="44.22211" lon="3.79154">
        <ele>884.07</ele>
        <time>2013-06-05T12:54:21Z</time>
      </trkpt>
      <trkpt lat="44.22203" lon="3.79168">
        <ele>884.07</ele>
        <time>2013-06-05T12:54:34Z</time>
      </trkpt>
      <trkpt lat="44.22197" lon="3.79183">
        <ele>883.11</ele>
        <time>2013-06-05T12:54:50Z</time>
      </trkpt>
      <trkpt lat="44.22191" lon="3.79195">
        <ele>882.15</ele>
        <time>2013-06-05T12:55:00Z</time>
      </trkpt>
      <trkpt lat="44.22182" lon="3.79221">
        <ele>881.67</ele>
        <time>2013-06-05T12:55:13Z</time>
      </trkpt>
      <trkpt lat="44.22181" lon="3.79235">
        <ele>881.67</ele>
        <time>2013-06-05T12:55:17Z</time>
      </trkpt>
      <trkpt lat="44.22183" lon="3.79255">
        <ele>880.71</ele>
        <time>2013-06-05T12:55:27Z</time>
      </trkpt>
      <trkpt lat="44.22193" lon="3.79277">
        <ele>878.3</ele>
        <time>2013-06-05T12:55:38Z</time>
      </trkpt>
      <trkpt lat="44.22197" lon="3.79282">
        <ele>877.82</ele>
        <time>2013-06-05T12:55:41Z</time>
      </trkpt>
      <trkpt lat="44.22207" lon="3.79308">
        <ele>874.94</ele>
        <time>2013-06-05T12:55:57Z</time>
      </trkpt>
      <trkpt lat="44.22215" lon="3.79325">
        <ele>872.53</ele>
        <time>2013-06-05T12:56:08Z</time>
      </trkpt>
      <trkpt lat="44.22224" lon="3.79341">
        <ele>870.13</ele>
        <time>2013-06-05T12:56:20Z</time>
      </trkpt>
      <trkpt lat="44.22234" lon="3.79357">
        <ele>867.73</ele>
        <time>2013-06-05T12:56:34Z</time>
      </trkpt>
      <trkpt lat="44.22247" lon="3.79381">
        <ele>864.84</ele>
        <time>2013-06-05T12:56:50Z</time>
      </trkpt>
      <trkpt lat="44.22252" lon="3.79391">
        <ele>863.88</ele>
        <time>2013-06-05T12:56:55Z</time>
      </trkpt>
      <trkpt lat="44.22259" lon="3.79396">
        <ele>862.92</ele>
        <time>2013-06-05T12:57:00Z</time>
      </trkpt>
      <trkpt lat="44.22274" lon="3.79408">
        <ele>859.08</ele>
        <time>2013-06-05T12:57:12Z</time>
      </trkpt>
      <trkpt lat="44.2229" lon="3.79421">
        <ele>855.71</ele>
        <time>2013-06-05T12:57:26Z</time>
      </trkpt>
      <trkpt lat="44.22299" lon="3.7943">
        <ele>852.35</ele>
        <time>2013-06-05T12:57:38Z</time>
      </trkpt>
      <trkpt lat="44.22307" lon="3.79439">
        <ele>849.46</ele>
        <time>2013-06-05T12:57:47Z</time>
      </trkpt>
      <trkpt lat="44.22316" lon="3.79448">
        <ele>846.1</ele>
        <time>2013-06-05T12:57:57Z</time>
      </trkpt>
      <trkpt lat="44.22324" lon="3.79457">
        <ele>843.21</ele>
        <time>2013-06-05T12:58:07Z</time>
      </trkpt>
      <trkpt lat="44.22337" lon="3.79465">
        <ele>839.85</ele>
        <time>2013-06-05T12:58:20Z</time>
      </trkpt>
      <trkpt lat="44.22357" lon="3.79472">
        <ele>837.93</ele>
        <time>2013-06-05T12:58:34Z</time>
      </trkpt>
      <trkpt lat="44.22362" lon="3.79474">
        <ele>837.93</ele>
        <time>2013-06-05T12:58:37Z</time>
      </trkpt>
      <trkpt lat="44.22367" lon="3.79479">
        <ele>837.93</ele>
        <time>2013-06-05T12:58:41Z</time>
      </trkpt>
      <trkpt lat="44.22393" lon="3.79493">
        <ele>836</ele>
        <time>2013-06-05T12:58:55Z</time>
      </trkpt>
      <trkpt lat="44.2241" lon="3.7951">
        <ele>832.64</ele>
        <time>2013-06-05T12:59:09Z</time>
      </trkpt>
      <trkpt lat="44.22411" lon="3.79515">
        <ele>832.64</ele>
        <time>2013-06-05T12:59:14Z</time>
      </trkpt>
      <trkpt lat="44.22414" lon="3.79528">
        <ele>831.2</ele>
        <time>2013-06-05T12:59:20Z</time>
      </trkpt>
      <trkpt lat="44.22423" lon="3.79551">
        <ele>828.31</ele>
        <time>2013-06-05T12:59:35Z</time>
      </trkpt>
      <trkpt lat="44.22431" lon="3.79572">
        <ele>825.43</ele>
        <time>2013-06-05T12:59:49Z</time>
      </trkpt>
      <trkpt lat="44.22436" lon="3.79588">
        <ele>823.51</ele>
        <time>2013-06-05T12:59:59Z</time>
      </trkpt>
      <trkpt lat="44.22442" lon="3.79598">
        <ele>821.58</ele>
        <time>2013-06-05T13:00:07Z</time>
      </trkpt>
      <trkpt lat="44.22446" lon="3.79618">
        <ele>818.7</ele>
        <time>2013-06-05T13:00:20Z</time>
      </trkpt>
      <trkpt lat="44.22454" lon="3.79644">
        <ele>816.78</ele>
        <time>2013-06-05T13:00:34Z</time>
      </trkpt>
      <trkpt lat="44.22459" lon="3.79661">
        <ele>814.37</ele>
        <time>2013-06-05T13:00:44Z</time>
      </trkpt>
      <trkpt lat="44.22457" lon="3.79677">
        <ele>813.41</ele>
        <time>2013-06-05T13:00:59Z</time>
      </trkpt>
      <trkpt lat="44.22454" lon="3.79694">
        <ele>809.57</ele>
        <time>2013-06-05T13:01:11Z</time>
      </trkpt>
      <trkpt lat="44.22454" lon="3.797">
        <ele>808.13</ele>
        <time>2013-06-05T13:01:16Z</time>
      </trkpt>
      <trkpt lat="44.22455" lon="3.79712">
        <ele>806.2</ele>
        <time>2013-06-05T13:01:26Z</time>
      </trkpt>
      <trkpt lat="44.22457" lon="3.79725">
        <ele>803.32</ele>
        <time>2013-06-05T13:01:39Z</time>
      </trkpt>
      <trkpt lat="44.22455" lon="3.7975">
        <ele>799.95</ele>
        <time>2013-06-05T13:01:53Z</time>
      </trkpt>
      <trkpt lat="44.22455" lon="3.79769">
        <ele>797.55</ele>
        <time>2013-06-05T13:02:03Z</time>
      </trkpt>
      <trkpt lat="44.22454" lon="3.79785">
        <ele>794.19</ele>
        <time>2013-06-05T13:02:14Z</time>
      </trkpt>
      <trkpt lat="44.22447" lon="3.79804">
        <ele>791.3</ele>
        <time>2013-06-05T13:02:25Z</time>
      </trkpt>
      <trkpt lat="44.22447" lon="3.7982">
        <ele>788.9</ele>
        <time>2013-06-05T13:02:36Z</time>
      </trkpt>
      <trkpt lat="44.22442" lon="3.79838">
        <ele>786.5</ele>
        <time>2013-06-05T13:02:47Z</time>
      </trkpt>
      <trkpt lat="44.22442" lon="3.79861">
        <ele>782.65</ele>
        <time>2013-06-05T13:03:00Z</time>
      </trkpt>
      <trkpt lat="44.22437" lon="3.79883">
        <ele>781.21</ele>
        <time>2013-06-05T13:03:12Z</time>
      </trkpt>
      <trkpt lat="44.22436" lon="3.79889">
        <ele>781.21</ele>
        <time>2013-06-05T13:03:25Z</time>
      </trkpt>
      <trkpt lat="44.22424" lon="3.79899">
        <ele>779.29</ele>
        <time>2013-06-05T13:03:41Z</time>
      </trkpt>
      <trkpt lat="44.22405" lon="3.79909">
        <ele>776.88</ele>
        <time>2013-06-05T13:03:55Z</time>
      </trkpt>
      <trkpt lat="44.22391" lon="3.79906">
        <ele>774.48</ele>
        <time>2013-06-05T13:04:07Z</time>
      </trkpt>
      <trkpt lat="44.22378" lon="3.79899">
        <ele>771.6</ele>
        <time>2013-06-05T13:04:20Z</time>
      </trkpt>
      <trkpt lat="44.22364" lon="3.7989">
        <ele>769.67</ele>
        <time>2013-06-05T13:04:33Z</time>
      </trkpt>
      <trkpt lat="44.22362" lon="3.79889">
        <ele>769.67</ele>
        <time>2013-06-05T13:04:35Z</time>
      </trkpt>
      <trkpt lat="44.22361" lon="3.79887">
        <ele>768.71</ele>
        <time>2013-06-05T13:04:37Z</time>
      </trkpt>
      <trkpt lat="44.22354" lon="3.79879">
        <ele>768.23</ele>
        <time>2013-06-05T13:04:43Z</time>
      </trkpt>
      <trkpt lat="44.22349" lon="3.79875">
        <ele>767.27</ele>
        <time>2013-06-05T13:04:47Z</time>
      </trkpt>
      <trkpt lat="44.22347" lon="3.79869">
        <ele>766.79</ele>
        <time>2013-06-05T13:04:50Z</time>
      </trkpt>
      <trkpt lat="44.22343" lon="3.79859">
        <ele>765.83</ele>
        <time>2013-06-05T13:04:57Z</time>
      </trkpt>
      <trkpt lat="44.22334" lon="3.79841">
        <ele>763.9</ele>
        <time>2013-06-05T13:05:10Z</time>
      </trkpt>
      <trkpt lat="44.22322" lon="3.79832">
        <ele>762.46</ele>
        <time>2013-06-05T13:05:22Z</time>
      </trkpt>
      <trkpt lat="44.22309" lon="3.79831">
        <ele>761.98</ele>
        <time>2013-06-05T13:05:37Z</time>
      </trkpt>
      <trkpt lat="44.22296" lon="3.79836">
        <ele>759.58</ele>
        <time>2013-06-05T13:05:50Z</time>
      </trkpt>
      <trkpt lat="44.22285" lon="3.79843">
        <ele>757.18</ele>
        <time>2013-06-05T13:06:03Z</time>
      </trkpt>
      <trkpt lat="44.2227" lon="3.79849">
        <ele>755.73</ele>
        <time>2013-06-05T13:06:16Z</time>
      </trkpt>
      <trkpt lat="44.22266" lon="3.79853">
        <ele>754.77</ele>
        <time>2013-06-05T13:06:21Z</time>
      </trkpt>
      <trkpt lat="44.22267" lon="3.79855">
        <ele>753.81</ele>
        <time>2013-06-05T13:06:28Z</time>
      </trkpt>
      <trkpt lat="44.22271" lon="3.7986">
        <ele>752.37</ele>
        <time>2013-06-05T13:06:42Z</time>
      </trkpt>
      <trkpt lat="44.22273" lon="3.79861">
        <ele>752.37</ele>
        <time>2013-06-05T13:06:44Z</time>
      </trkpt>
      <trkpt lat="44.22275" lon="3.79863">
        <ele>752.37</ele>
        <time>2013-06-05T13:06:46Z</time>
      </trkpt>
      <trkpt lat="44.22274" lon="3.79871">
        <ele>751.41</ele>
        <time>2013-06-05T13:06:52Z</time>
      </trkpt>
      <trkpt lat="44.22258" lon="3.79882">
        <ele>747.56</ele>
        <time>2013-06-05T13:07:09Z</time>
      </trkpt>
      <trkpt lat="44.22245" lon="3.7989">
        <ele>745.16</ele>
        <time>2013-06-05T13:07:22Z</time>
      </trkpt>
      <trkpt lat="44.22234" lon="3.79895">
        <ele>742.76</ele>
        <time>2013-06-05T13:07:35Z</time>
      </trkpt>
      <trkpt lat="44.22222" lon="3.79901">
        <ele>741.31</ele>
        <time>2013-06-05T13:07:50Z</time>
      </trkpt>
      <trkpt lat="44.22215" lon="3.79905">
        <ele>740.35</ele>
        <time>2013-06-05T13:08:03Z</time>
      </trkpt>
      <trkpt lat="44.22206" lon="3.79908">
        <ele>738.91</ele>
        <time>2013-06-05T13:08:19Z</time>
      </trkpt>
      <trkpt lat="44.22197" lon="3.79911">
        <ele>737.47</ele>
        <time>2013-06-05T13:08:33Z</time>
      </trkpt>
      <trkpt lat="44.22189" lon="3.79913">
        <ele>735.55</ele>
        <time>2013-06-05T13:08:46Z</time>
      </trkpt>
      <trkpt lat="44.2218" lon="3.79912">
        <ele>734.58</ele>
        <time>2013-06-05T13:09:01Z</time>
      </trkpt>
      <trkpt lat="44.22175" lon="3.79909">
        <ele>733.14</ele>
        <time>2013-06-05T13:09:12Z</time>
      </trkpt>
      <trkpt lat="44.22171" lon="3.79909">
        <ele>733.14</ele>
        <time>2013-06-05T13:09:15Z</time>
      </trkpt>
      <trkpt lat="44.22159" lon="3.79902">
        <ele>731.7</ele>
        <time>2013-06-05T13:09:30Z</time>
      </trkpt>
      <trkpt lat="44.22147" lon="3.7989">
        <ele>729.78</ele>
        <time>2013-06-05T13:09:44Z</time>
      </trkpt>
      <trkpt lat="44.22138" lon="3.79886">
        <ele>727.86</ele>
        <time>2013-06-05T13:09:51Z</time>
      </trkpt>
      <trkpt lat="44.22123" lon="3.79879">
        <ele>724.97</ele>
        <time>2013-06-05T13:10:01Z</time>
      </trkpt>
      <trkpt lat="44.22097" lon="3.79871">
        <ele>723.05</ele>
        <time>2013-06-05T13:10:15Z</time>
      </trkpt>
      <trkpt lat="44.22094" lon="3.79866">
        <ele>722.09</ele>
        <time>2013-06-05T13:10:18Z</time>
      </trkpt>
      <trkpt lat="44.22086" lon="3.79855">
        <ele>721.13</ele>
        <time>2013-06-05T13:10:24Z</time>
      </trkpt>
      <trkpt lat="44.22074" lon="3.79845">
        <ele>719.68</ele>
        <time>2013-06-05T13:10:34Z</time>
      </trkpt>
      <trkpt lat="44.22066" lon="3.79844">
        <ele>718.72</ele>
        <time>2013-06-05T13:10:39Z</time>
      </trkpt>
      <trkpt lat="44.22039" lon="3.79837">
        <ele>715.84</ele>
        <time>2013-06-05T13:10:54Z</time>
      </trkpt>
      <trkpt lat="44.22027" lon="3.79835">
        <ele>713.44</ele>
        <time>2013-06-05T13:11:06Z</time>
      </trkpt>
      <trkpt lat="44.22024" lon="3.79842">
        <ele>712.47</ele>
        <time>2013-06-05T13:11:13Z</time>
      </trkpt>
      <trkpt lat="44.2201" lon="3.79862">
        <ele>709.11</ele>
        <time>2013-06-05T13:11:26Z</time>
      </trkpt>
      <trkpt lat="44.22008" lon="3.79867">
        <ele>706.23</ele>
        <time>2013-06-05T13:11:34Z</time>
      </trkpt>
      <trkpt lat="44.22005" lon="3.79882">
        <ele>703.34</ele>
        <time>2013-06-05T13:11:46Z</time>
      </trkpt>
      <trkpt lat="44.2199" lon="3.79906">
        <ele>699.5</ele>
        <time>2013-06-05T13:11:57Z</time>
      </trkpt>
      <trkpt lat="44.21979" lon="3.79914">
        <ele>696.61</ele>
        <time>2013-06-05T13:12:07Z</time>
      </trkpt>
      <trkpt lat="44.21961" lon="3.79933">
        <ele>693.73</ele>
        <time>2013-06-05T13:12:19Z</time>
      </trkpt>
      <trkpt lat="44.21954" lon="3.79945">
        <ele>690.84</ele>
        <time>2013-06-05T13:12:30Z</time>
      </trkpt>
      <trkpt lat="44.21947" lon="3.79954">
        <ele>687.96</ele>
        <time>2013-06-05T13:12:40Z</time>
      </trkpt>
      <trkpt lat="44.21944" lon="3.79956">
        <ele>687.96</ele>
        <time>2013-06-05T13:12:41Z</time>
      </trkpt>
      <trkpt lat="44.21938" lon="3.79964">
        <ele>687</ele>
        <time>2013-06-05T13:12:45Z</time>
      </trkpt>
      <trkpt lat="44.21923" lon="3.79991">
        <ele>684.12</ele>
        <time>2013-06-05T13:12:58Z</time>
      </trkpt>
      <trkpt lat="44.21923" lon="3.79993">
        <ele>683.63</ele>
        <time>2013-06-05T13:12:59Z</time>
      </trkpt>
      <trkpt lat="44.21922" lon="3.80014">
        <ele>680.27</ele>
        <time>2013-06-05T13:13:10Z</time>
      </trkpt>
      <trkpt lat="44.21928" lon="3.80048">
        <ele>677.39</ele>
        <time>2013-06-05T13:13:24Z</time>
      </trkpt>
      <trkpt lat="44.21927" lon="3.80066">
        <ele>674.98</ele>
        <time>2013-06-05T13:13:34Z</time>
      </trkpt>
      <trkpt lat="44.21935" lon="3.80087">
        <ele>673.06</ele>
        <time>2013-06-05T13:13:47Z</time>
      </trkpt>
      <trkpt lat="44.2194" lon="3.80105">
        <ele>671.62</ele>
        <time>2013-06-05T13:13:57Z</time>
      </trkpt>
      <trkpt lat="44.21942" lon="3.80131">
        <ele>669.7</ele>
        <time>2013-06-05T13:14:11Z</time>
      </trkpt>
      <trkpt lat="44.21941" lon="3.80135">
        <ele>669.22</ele>
        <time>2013-06-05T13:14:14Z</time>
      </trkpt>
      <trkpt lat="44.21942" lon="3.80174">
        <ele>668.73</ele>
        <time>2013-06-05T13:14:30Z</time>
      </trkpt>
      <trkpt lat="44.2194" lon="3.80201">
        <ele>667.77</ele>
        <time>2013-06-05T13:14:42Z</time>
      </trkpt>
      <trkpt lat="44.21935" lon="3.80223">
        <ele>665.37</ele>
        <time>2013-06-05T13:14:55Z</time>
      </trkpt>
      <trkpt lat="44.21929" lon="3.80248">
        <ele>662.49</ele>
        <time>2013-06-05T13:15:09Z</time>
      </trkpt>
      <trkpt lat="44.21924" lon="3.80267">
        <ele>660.56</ele>
        <time>2013-06-05T13:15:22Z</time>
      </trkpt>
      <trkpt lat="44.21915" lon="3.80299">
        <ele>660.08</ele>
        <time>2013-06-05T13:15:37Z</time>
      </trkpt>
      <trkpt lat="44.21911" lon="3.80323">
        <ele>659.6</ele>
        <time>2013-06-05T13:15:47Z</time>
      </trkpt>
      <trkpt lat="44.21907" lon="3.80331">
        <ele>659.6</ele>
        <time>2013-06-05T13:15:51Z</time>
      </trkpt>
      <trkpt lat="44.21897" lon="3.80351">
        <ele>656.72</ele>
        <time>2013-06-05T13:16:04Z</time>
      </trkpt>
      <trkpt lat="44.21886" lon="3.80381">
        <ele>653.35</ele>
        <time>2013-06-05T13:16:17Z</time>
      </trkpt>
      <trkpt lat="44.2188" lon="3.80396">
        <ele>650.95</ele>
        <time>2013-06-05T13:16:29Z</time>
      </trkpt>
      <trkpt lat="44.21876" lon="3.80398">
        <ele>649.99</ele>
        <time>2013-06-05T13:16:34Z</time>
      </trkpt>
      <trkpt lat="44.21858" lon="3.80397">
        <ele>647.59</ele>
        <time>2013-06-05T13:16:45Z</time>
      </trkpt>
      <trkpt lat="44.2183" lon="3.80396">
        <ele>645.66</ele>
        <time>2013-06-05T13:16:56Z</time>
      </trkpt>
      <trkpt lat="44.21819" lon="3.80401">
        <ele>643.26</ele>
        <time>2013-06-05T13:17:08Z</time>
      </trkpt>
      <trkpt lat="44.21818" lon="3.80416">
        <ele>640.38</ele>
        <time>2013-06-05T13:17:19Z</time>
      </trkpt>
      <trkpt lat="44.21824" lon="3.8044">
        <ele>637.49</ele>
        <time>2013-06-05T13:17:32Z</time>
      </trkpt>
      <trkpt lat="44.21832" lon="3.8045">
        <ele>635.09</ele>
        <time>2013-06-05T13:17:43Z</time>
      </trkpt>
      <trkpt lat="44.21848" lon="3.8046">
        <ele>632.2</ele>
        <time>2013-06-05T13:17:56Z</time>
      </trkpt>
      <trkpt lat="44.21865" lon="3.80475">
        <ele>629.8</ele>
        <time>2013-06-05T13:18:08Z</time>
      </trkpt>
      <trkpt lat="44.21889" lon="3.80481">
        <ele>627.4</ele>
        <time>2013-06-05T13:18:23Z</time>
      </trkpt>
      <trkpt lat="44.21902" lon="3.80481">
        <ele>624.51</ele>
        <time>2013-06-05T13:18:33Z</time>
      </trkpt>
      <trkpt lat="44.21923" lon="3.80478">
        <ele>622.59</ele>
        <time>2013-06-05T13:18:48Z</time>
      </trkpt>
      <trkpt lat="44.21937" lon="3.80466">
        <ele>620.19</ele>
        <time>2013-06-05T13:18:59Z</time>
      </trkpt>
      <trkpt lat="44.21955" lon="3.80448">
        <ele>616.82</ele>
        <time>2013-06-05T13:19:13Z</time>
      </trkpt>
      <trkpt lat="44.2197" lon="3.80427">
        <ele>614.42</ele>
        <time>2013-06-05T13:19:25Z</time>
      </trkpt>
      <trkpt lat="44.21993" lon="3.80416">
        <ele>612.5</ele>
        <time>2013-06-05T13:19:33Z</time>
      </trkpt>
      <trkpt lat="44.22" lon="3.80411">
        <ele>611.06</ele>
        <time>2013-06-05T13:19:41Z</time>
      </trkpt>
      <trkpt lat="44.22001" lon="3.8042">
        <ele>607.69</ele>
        <time>2013-06-05T13:19:54Z</time>
      </trkpt>
      <trkpt lat="44.22" lon="3.80421">
        <ele>607.69</ele>
        <time>2013-06-05T13:19:55Z</time>
      </trkpt>
      <trkpt lat="44.22002" lon="3.80432">
        <ele>606.25</ele>
        <time>2013-06-05T13:20:02Z</time>
      </trkpt>
      <trkpt lat="44.22005" lon="3.80441">
        <ele>602.88</ele>
        <time>2013-06-05T13:20:15Z</time>
      </trkpt>
      <trkpt lat="44.22014" lon="3.80432">
        <ele>600.48</ele>
        <time>2013-06-05T13:20:25Z</time>
      </trkpt>
      <trkpt lat="44.2202" lon="3.80429">
        <ele>597.12</ele>
        <time>2013-06-05T13:20:36Z</time>
      </trkpt>
      <trkpt lat="44.22021" lon="3.80428">
        <ele>597.12</ele>
        <time>2013-06-05T13:20:37Z</time>
      </trkpt>
      <trkpt lat="44.22027" lon="3.80422">
        <ele>596.64</ele>
        <time>2013-06-05T13:20:42Z</time>
      </trkpt>
      <trkpt lat="44.22035" lon="3.80413">
        <ele>595.19</ele>
        <time>2013-06-05T13:20:47Z</time>
      </trkpt>
      <trkpt lat="44.22043" lon="3.80385">
        <ele>592.79</ele>
        <time>2013-06-05T13:20:59Z</time>
      </trkpt>
      <trkpt lat="44.22049" lon="3.80382">
        <ele>591.83</ele>
        <time>2013-06-05T13:21:04Z</time>
      </trkpt>
      <trkpt lat="44.22058" lon="3.80391">
        <ele>587.5</ele>
        <time>2013-06-05T13:21:14Z</time>
      </trkpt>
      <trkpt lat="44.22057" lon="3.80398">
        <ele>587.02</ele>
        <time>2013-06-05T13:21:21Z</time>
      </trkpt>
      <trkpt lat="44.22057" lon="3.80401">
        <ele>586.06</ele>
        <time>2013-06-05T13:21:25Z</time>
      </trkpt>
      <trkpt lat="44.22057" lon="3.80421">
        <ele>583.18</ele>
        <time>2013-06-05T13:21:36Z</time>
      </trkpt>
      <trkpt lat="44.22057" lon="3.80422">
        <ele>583.18</ele>
        <time>2013-06-05T13:21:37Z</time>
      </trkpt>
      <trkpt lat="44.22055" lon="3.80449">
        <ele>579.81</ele>
        <time>2013-06-05T13:21:52Z</time>
      </trkpt>
      <trkpt lat="44.22054" lon="3.80455">
        <ele>578.85</ele>
        <time>2013-06-05T13:21:55Z</time>
      </trkpt>
      <trkpt lat="44.22053" lon="3.80459">
        <ele>578.37</ele>
        <time>2013-06-05T13:21:57Z</time>
      </trkpt>
      <trkpt lat="44.22049" lon="3.8048">
        <ele>575.97</ele>
        <time>2013-06-05T13:22:10Z</time>
      </trkpt>
      <trkpt lat="44.22047" lon="3.80504">
        <ele>574.04</ele>
        <time>2013-06-05T13:22:23Z</time>
      </trkpt>
      <trkpt lat="44.22043" lon="3.80515">
        <ele>573.08</ele>
        <time>2013-06-05T13:22:28Z</time>
      </trkpt>
      <trkpt lat="44.2204" lon="3.8052">
        <ele>572.6</ele>
        <time>2013-06-05T13:22:30Z</time>
      </trkpt>
      <trkpt lat="44.22042" lon="3.80526">
        <ele>571.16</ele>
        <time>2013-06-05T13:22:39Z</time>
      </trkpt>
      <trkpt lat="44.22046" lon="3.80524">
        <ele>570.2</ele>
        <time>2013-06-05T13:22:43Z</time>
      </trkpt>
      <trkpt lat="44.22054" lon="3.80523">
        <ele>567.32</ele>
        <time>2013-06-05T13:22:56Z</time>
      </trkpt>
      <trkpt lat="44.22055" lon="3.80523">
        <ele>566.83</ele>
        <time>2013-06-05T13:22:57Z</time>
      </trkpt>
      <trkpt lat="44.22067" lon="3.80521">
        <ele>564.91</ele>
        <time>2013-06-05T13:23:09Z</time>
      </trkpt>
      <trkpt lat="44.22074" lon="3.8052">
        <ele>562.03</ele>
        <time>2013-06-05T13:23:21Z</time>
      </trkpt>
      <trkpt lat="44.22077" lon="3.8052">
        <ele>561.55</ele>
        <time>2013-06-05T13:23:26Z</time>
      </trkpt>
      <trkpt lat="44.2207" lon="3.80524">
        <ele>560.11</ele>
        <time>2013-06-05T13:23:35Z</time>
      </trkpt>
      <trkpt lat="44.22067" lon="3.80528">
        <ele>559.14</ele>
        <time>2013-06-05T13:23:39Z</time>
      </trkpt>
      <trkpt lat="44.22064" lon="3.80547">
        <ele>556.26</ele>
        <time>2013-06-05T13:23:53Z</time>
      </trkpt>
      <trkpt lat="44.22064" lon="3.8055">
        <ele>555.78</ele>
        <time>2013-06-05T13:23:55Z</time>
      </trkpt>
      <trkpt lat="44.22061" lon="3.80557">
        <ele>554.82</ele>
        <time>2013-06-05T13:23:59Z</time>
      </trkpt>
      <trkpt lat="44.22054" lon="3.80581">
        <ele>551.93</ele>
        <time>2013-06-05T13:24:14Z</time>
      </trkpt>
      <trkpt lat="44.22053" lon="3.80593">
        <ele>550.97</ele>
        <time>2013-06-05T13:24:33Z</time>
      </trkpt>
      <trkpt lat="44.22045" lon="3.80608">
        <ele>549.05</ele>
        <time>2013-06-05T13:24:43Z</time>
      </trkpt>
      <trkpt lat="44.22047" lon="3.80618">
        <ele>548.57</ele>
        <time>2013-06-05T13:24:47Z</time>
      </trkpt>
      <trkpt lat="44.22041" lon="3.80642">
        <ele>546.17</ele>
        <time>2013-06-05T13:25:01Z</time>
      </trkpt>
      <trkpt lat="44.22032" lon="3.80667">
        <ele>544.24</ele>
        <time>2013-06-05T13:25:15Z</time>
      </trkpt>
      <trkpt lat="44.22029" lon="3.80673">
        <ele>543.76</ele>
        <time>2013-06-05T13:25:18Z</time>
      </trkpt>
      <trkpt lat="44.22024" lon="3.8068">
        <ele>540.88</ele>
        <time>2013-06-05T13:25:31Z</time>
      </trkpt>
      <trkpt lat="44.22022" lon="3.80691">
        <ele>540.4</ele>
        <time>2013-06-05T13:25:38Z</time>
      </trkpt>
      <trkpt lat="44.2201" lon="3.80723">
        <ele>538.48</ele>
        <time>2013-06-05T13:25:52Z</time>
      </trkpt>
      <trkpt lat="44.21999" lon="3.80747">
        <ele>537.03</ele>
        <time>2013-06-05T13:26:05Z</time>
      </trkpt>
      <trkpt lat="44.21983" lon="3.80774">
        <ele>535.59</ele>
        <time>2013-06-05T13:26:22Z</time>
      </trkpt>
      <trkpt lat="44.21974" lon="3.8079">
        <ele>534.15</ele>
        <time>2013-06-05T13:26:34Z</time>
      </trkpt>
      <trkpt lat="44.21969" lon="3.80804">
        <ele>532.71</ele>
        <time>2013-06-05T13:26:47Z</time>
      </trkpt>
      <trkpt lat="44.21961" lon="3.80819">
        <ele>532.23</ele>
        <time>2013-06-05T13:26:57Z</time>
      </trkpt>
      <trkpt lat="44.21952" lon="3.80836">
        <ele>530.3</ele>
        <time>2013-06-05T13:27:10Z</time>
      </trkpt>
      <trkpt lat="44.21938" lon="3.80856">
        <ele>528.86</ele>
        <time>2013-06-05T13:27:25Z</time>
      </trkpt>
      <trkpt lat="44.21933" lon="3.80864">
        <ele>528.38</ele>
        <time>2013-06-05T13:27:31Z</time>
      </trkpt>
      <trkpt lat="44.21914" lon="3.80875">
        <ele>525.98</ele>
        <time>2013-06-05T13:27:47Z</time>
      </trkpt>
      <trkpt lat="44.21902" lon="3.80885">
        <ele>523.58</ele>
        <time>2013-06-05T13:28:03Z</time>
      </trkpt>
      <trkpt lat="44.21904" lon="3.80913">
        <ele>521.65</ele>
        <time>2013-06-05T13:28:20Z</time>
      </trkpt>
      <trkpt lat="44.21902" lon="3.80929">
        <ele>521.65</ele>
        <time>2013-06-05T13:28:42Z</time>
      </trkpt>
      <trkpt lat="44.21887" lon="3.80937">
        <ele>521.65</ele>
        <time>2013-06-05T13:29:07Z</time>
      </trkpt>
      <trkpt lat="44.21877" lon="3.80934">
        <ele>521.17</ele>
        <time>2013-06-05T13:29:22Z</time>
      </trkpt>
      <trkpt lat="44.21856" lon="3.8093">
        <ele>521.17</ele>
        <time>2013-06-05T13:29:37Z</time>
      </trkpt>
      <trkpt lat="44.21854" lon="3.80915">
        <ele>520.21</ele>
        <time>2013-06-05T13:29:51Z</time>
      </trkpt>
      <trkpt lat="44.21851" lon="3.80911">
        <ele>519.25</ele>
        <time>2013-06-05T13:30:02Z</time>
      </trkpt>
      <trkpt lat="44.21828" lon="3.80889">
        <ele>518.77</ele>
        <time>2013-06-05T13:30:16Z</time>
      </trkpt>
      <trkpt lat="44.21806" lon="3.80869">
        <ele>518.29</ele>
        <time>2013-06-05T13:30:30Z</time>
      </trkpt>
      <trkpt lat="44.21791" lon="3.8085">
        <ele>518.77</ele>
        <time>2013-06-05T13:30:43Z</time>
      </trkpt>
      <trkpt lat="44.21772" lon="3.80837">
        <ele>518.77</ele>
        <time>2013-06-05T13:30:57Z</time>
      </trkpt>
      <trkpt lat="44.21751" lon="3.80837">
        <ele>517.33</ele>
        <time>2013-06-05T13:31:11Z</time>
      </trkpt>
      <trkpt lat="44.21713" lon="3.80837">
        <ele>516.85</ele>
        <time>2013-06-05T13:31:27Z</time>
      </trkpt>
      <trkpt lat="44.21697" lon="3.80828">
        <ele>516.85</ele>
        <time>2013-06-05T13:31:35Z</time>
      </trkpt>
      <trkpt lat="44.21684" lon="3.80814">
        <ele>518.29</ele>
        <time>2013-06-05T13:31:51Z</time>
      </trkpt>
      <trkpt lat="44.21661" lon="3.80803">
        <ele>519.25</ele>
        <time>2013-06-05T13:32:05Z</time>
      </trkpt>
      <trkpt lat="44.21646" lon="3.80789">
        <ele>520.21</ele>
        <time>2013-06-05T13:32:20Z</time>
      </trkpt>
      <trkpt lat="44.21624" lon="3.80777">
        <ele>522.13</ele>
        <time>2013-06-05T13:32:35Z</time>
      </trkpt>
      <trkpt lat="44.21609" lon="3.80765">
        <ele>523.09</ele>
        <time>2013-06-05T13:32:50Z</time>
      </trkpt>
      <trkpt lat="44.21599" lon="3.80754">
        <ele>524.06</ele>
        <time>2013-06-05T13:33:02Z</time>
      </trkpt>
      <trkpt lat="44.21595" lon="3.80724">
        <ele>525.5</ele>
        <time>2013-06-05T13:33:21Z</time>
      </trkpt>
      <trkpt lat="44.21602" lon="3.807">
        <ele>526.46</ele>
        <time>2013-06-05T13:33:39Z</time>
      </trkpt>
      <trkpt lat="44.21604" lon="3.80679">
        <ele>527.9</ele>
        <time>2013-06-05T13:33:53Z</time>
      </trkpt>
      <trkpt lat="44.21598" lon="3.80675">
        <ele>529.34</ele>
        <time>2013-06-05T13:34:04Z</time>
      </trkpt>
      <trkpt lat="44.2158" lon="3.80679">
        <ele>530.3</ele>
        <time>2013-06-05T13:34:23Z</time>
      </trkpt>
      <trkpt lat="44.21561" lon="3.80695">
        <ele>531.27</ele>
        <time>2013-06-05T13:34:43Z</time>
      </trkpt>
      <trkpt lat="44.21547" lon="3.80716">
        <ele>530.79</ele>
        <time>2013-06-05T13:35:00Z</time>
      </trkpt>
      <trkpt lat="44.21527" lon="3.80724">
        <ele>530.79</ele>
        <time>2013-06-05T13:35:18Z</time>
      </trkpt>
      <trkpt lat="44.21507" lon="3.80734">
        <ele>529.82</ele>
        <time>2013-06-05T13:35:34Z</time>
      </trkpt>
      <trkpt lat="44.215" lon="3.80752">
        <ele>528.86</ele>
        <time>2013-06-05T13:35:47Z</time>
      </trkpt>
      <trkpt lat="44.21491" lon="3.80762">
        <ele>529.34</ele>
        <time>2013-06-05T13:36:01Z</time>
      </trkpt>
      <trkpt lat="44.21484" lon="3.80772">
        <ele>530.79</ele>
        <time>2013-06-05T13:36:13Z</time>
      </trkpt>
      <trkpt lat="44.21488" lon="3.80783">
        <ele>532.23</ele>
        <time>2013-06-05T13:36:26Z</time>
      </trkpt>
      <trkpt lat="44.21491" lon="3.80785">
        <ele>532.71</ele>
        <time>2013-06-05T13:36:32Z</time>
      </trkpt>
      <trkpt lat="44.21484" lon="3.808">
        <ele>535.59</ele>
        <time>2013-06-05T13:36:48Z</time>
      </trkpt>
      <trkpt lat="44.21477" lon="3.80803">
        <ele>536.07</ele>
        <time>2013-06-05T13:36:51Z</time>
      </trkpt>
      <trkpt lat="44.21443" lon="3.8081">
        <ele>539.44</ele>
        <time>2013-06-05T13:37:07Z</time>
      </trkpt>
      <trkpt lat="44.21436" lon="3.8081">
        <ele>539.44</ele>
        <time>2013-06-05T13:37:11Z</time>
      </trkpt>
      <trkpt lat="44.21387" lon="3.80818">
        <ele>542.8</ele>
        <time>2013-06-05T13:37:27Z</time>
      </trkpt>
      <trkpt lat="44.21357" lon="3.8081">
        <ele>544.24</ele>
        <time>2013-06-05T13:37:41Z</time>
      </trkpt>
      <trkpt lat="44.21341" lon="3.80806">
        <ele>546.17</ele>
        <time>2013-06-05T13:37:52Z</time>
      </trkpt>
      <trkpt lat="44.21324" lon="3.80806">
        <ele>548.57</ele>
        <time>2013-06-05T13:38:07Z</time>
      </trkpt>
      <trkpt lat="44.21306" lon="3.80806">
        <ele>551.45</ele>
        <time>2013-06-05T13:38:25Z</time>
      </trkpt>
      <trkpt lat="44.21288" lon="3.80796">
        <ele>553.38</ele>
        <time>2013-06-05T13:38:38Z</time>
      </trkpt>
      <trkpt lat="44.21276" lon="3.80796">
        <ele>554.82</ele>
        <time>2013-06-05T13:38:46Z</time>
      </trkpt>
      <trkpt lat="44.21256" lon="3.80789">
        <ele>558.18</ele>
        <time>2013-06-05T13:39:01Z</time>
      </trkpt>
      <trkpt lat="44.21236" lon="3.80789">
        <ele>559.62</ele>
        <time>2013-06-05T13:39:16Z</time>
      </trkpt>
      <trkpt lat="44.2122" lon="3.80791">
        <ele>560.11</ele>
        <time>2013-06-05T13:39:30Z</time>
      </trkpt>
      <trkpt lat="44.21215" lon="3.8078">
        <ele>561.07</ele>
        <time>2013-06-05T13:39:42Z</time>
      </trkpt>
      <trkpt lat="44.21201" lon="3.80773">
        <ele>562.99</ele>
        <time>2013-06-05T13:39:57Z</time>
      </trkpt>
      <trkpt lat="44.21199" lon="3.80773">
        <ele>564.91</ele>
        <time>2013-06-05T13:40:10Z</time>
      </trkpt>
      <trkpt lat="44.21186" lon="3.80784">
        <ele>566.35</ele>
        <time>2013-06-05T13:40:21Z</time>
      </trkpt>
      <trkpt lat="44.21173" lon="3.80791">
        <ele>566.83</ele>
        <time>2013-06-05T13:40:33Z</time>
      </trkpt>
      <trkpt lat="44.21165" lon="3.80799">
        <ele>568.28</ele>
        <time>2013-06-05T13:40:48Z</time>
      </trkpt>
      <trkpt lat="44.21145" lon="3.80819">
        <ele>570.68</ele>
        <time>2013-06-05T13:41:01Z</time>
      </trkpt>
      <trkpt lat="44.21123" lon="3.80839">
        <ele>573.56</ele>
        <time>2013-06-05T13:41:16Z</time>
      </trkpt>
      <trkpt lat="44.21107" lon="3.8085">
        <ele>575.97</ele>
        <time>2013-06-05T13:41:30Z</time>
      </trkpt>
      <trkpt lat="44.21099" lon="3.80864">
        <ele>578.85</ele>
        <time>2013-06-05T13:41:42Z</time>
      </trkpt>
      <trkpt lat="44.21083" lon="3.80888">
        <ele>580.77</ele>
        <time>2013-06-05T13:41:57Z</time>
      </trkpt>
      <trkpt lat="44.21071" lon="3.80908">
        <ele>582.22</ele>
        <time>2013-06-05T13:42:12Z</time>
      </trkpt>
      <trkpt lat="44.2107" lon="3.80909">
        <ele>582.7</ele>
        <time>2013-06-05T13:42:13Z</time>
      </trkpt>
      <trkpt lat="44.21055" lon="3.80923">
        <ele>584.14</ele>
        <time>2013-06-05T13:42:28Z</time>
      </trkpt>
      <trkpt lat="44.21042" lon="3.80927">
        <ele>586.06</ele>
        <time>2013-06-05T13:42:41Z</time>
      </trkpt>
      <trkpt lat="44.21018" lon="3.80931">
        <ele>587.02</ele>
        <time>2013-06-05T13:42:54Z</time>
      </trkpt>
      <trkpt lat="44.2099" lon="3.80934">
        <ele>587.98</ele>
        <time>2013-06-05T13:43:08Z</time>
      </trkpt>
      <trkpt lat="44.20981" lon="3.8093">
        <ele>587.98</ele>
        <time>2013-06-05T13:43:18Z</time>
      </trkpt>
      <trkpt lat="44.20969" lon="3.80915">
        <ele>587.98</ele>
        <time>2013-06-05T13:43:22Z</time>
      </trkpt>
      <trkpt lat="44.20938" lon="3.80878">
        <ele>587.98</ele>
        <time>2013-06-05T13:43:38Z</time>
      </trkpt>
      <trkpt lat="44.20917" lon="3.80866">
        <ele>586.06</ele>
        <time>2013-06-05T13:43:54Z</time>
      </trkpt>
      <trkpt lat="44.20902" lon="3.80864">
        <ele>584.62</ele>
        <time>2013-06-05T13:44:07Z</time>
      </trkpt>
      <trkpt lat="44.20893" lon="3.8087">
        <ele>584.62</ele>
        <time>2013-06-05T13:44:20Z</time>
      </trkpt>
      <trkpt lat="44.20892" lon="3.80882">
        <ele>584.62</ele>
        <time>2013-06-05T13:44:31Z</time>
      </trkpt>
      <trkpt lat="44.20891" lon="3.80898">
        <ele>584.14</ele>
        <time>2013-06-05T13:44:47Z</time>
      </trkpt>
      <trkpt lat="44.20886" lon="3.8092">
        <ele>583.18</ele>
        <time>2013-06-05T13:45:05Z</time>
      </trkpt>
      <trkpt lat="44.20866" lon="3.80946">
        <ele>582.7</ele>
        <time>2013-06-05T13:45:18Z</time>
      </trkpt>
      <trkpt lat="44.20855" lon="3.80954">
        <ele>582.7</ele>
        <time>2013-06-05T13:45:23Z</time>
      </trkpt>
      <trkpt lat="44.20836" lon="3.80976">
        <ele>581.25</ele>
        <time>2013-06-05T13:45:37Z</time>
      </trkpt>
      <trkpt lat="44.20821" lon="3.80992">
        <ele>579.81</ele>
        <time>2013-06-05T13:45:50Z</time>
      </trkpt>
      <trkpt lat="44.20813" lon="3.81008">
        <ele>578.85</ele>
        <time>2013-06-05T13:46:00Z</time>
      </trkpt>
      <trkpt lat="44.20801" lon="3.81035">
        <ele>576.45</ele>
        <time>2013-06-05T13:46:17Z</time>
      </trkpt>
      <trkpt lat="44.20799" lon="3.81037">
        <ele>576.45</ele>
        <time>2013-06-05T13:46:19Z</time>
      </trkpt>
      <trkpt lat="44.20792" lon="3.81054">
        <ele>575.49</ele>
        <time>2013-06-05T13:46:33Z</time>
      </trkpt>
      <trkpt lat="44.2079" lon="3.81065">
        <ele>575.49</ele>
        <time>2013-06-05T13:46:55Z</time>
      </trkpt>
      <trkpt lat="44.20787" lon="3.81073">
        <ele>575.01</ele>
        <time>2013-06-05T13:47:02Z</time>
      </trkpt>
      <trkpt lat="44.20784" lon="3.81081">
        <ele>575.01</ele>
        <time>2013-06-05T13:47:08Z</time>
      </trkpt>
      <trkpt lat="44.20775" lon="3.81097">
        <ele>574.53</ele>
        <time>2013-06-05T13:47:18Z</time>
      </trkpt>
      <trkpt lat="44.20764" lon="3.81121">
        <ele>573.56</ele>
        <time>2013-06-05T13:47:35Z</time>
      </trkpt>
      <trkpt lat="44.2075" lon="3.81142">
        <ele>571.64</ele>
        <time>2013-06-05T13:47:51Z</time>
      </trkpt>
      <trkpt lat="44.20745" lon="3.81159">
        <ele>570.2</ele>
        <time>2013-06-05T13:48:05Z</time>
      </trkpt>
      <trkpt lat="44.20736" lon="3.81178">
        <ele>567.32</ele>
        <time>2013-06-05T13:48:20Z</time>
      </trkpt>
      <trkpt lat="44.2073" lon="3.81196">
        <ele>566.35</ele>
        <time>2013-06-05T13:48:32Z</time>
      </trkpt>
      <trkpt lat="44.20727" lon="3.81209">
        <ele>565.39</ele>
        <time>2013-06-05T13:48:39Z</time>
      </trkpt>
      <trkpt lat="44.20721" lon="3.81233">
        <ele>564.43</ele>
        <time>2013-06-05T13:48:49Z</time>
      </trkpt>
      <trkpt lat="44.20721" lon="3.81236">
        <ele>564.43</ele>
        <time>2013-06-05T13:48:50Z</time>
      </trkpt>
      <trkpt lat="44.20722" lon="3.81265">
        <ele>562.99</ele>
        <time>2013-06-05T13:49:03Z</time>
      </trkpt>
      <trkpt lat="44.20721" lon="3.81269">
        <ele>562.51</ele>
        <time>2013-06-05T13:49:05Z</time>
      </trkpt>
      <trkpt lat="44.20716" lon="3.81291">
        <ele>560.11</ele>
        <time>2013-06-05T13:49:19Z</time>
      </trkpt>
      <trkpt lat="44.20698" lon="3.81303">
        <ele>558.66</ele>
        <time>2013-06-05T13:49:33Z</time>
      </trkpt>
      <trkpt lat="44.20675" lon="3.81306">
        <ele>555.78</ele>
        <time>2013-06-05T13:49:48Z</time>
      </trkpt>
      <trkpt lat="44.20665" lon="3.81306">
        <ele>553.86</ele>
        <time>2013-06-05T13:49:59Z</time>
      </trkpt>
      <trkpt lat="44.20664" lon="3.81306">
        <ele>553.86</ele>
        <time>2013-06-05T13:50:00Z</time>
      </trkpt>
      <trkpt lat="44.20648" lon="3.81314">
        <ele>550.97</ele>
        <time>2013-06-05T13:50:12Z</time>
      </trkpt>
      <trkpt lat="44.20639" lon="3.81329">
        <ele>550.01</ele>
        <time>2013-06-05T13:50:24Z</time>
      </trkpt>
      <trkpt lat="44.20637" lon="3.81334">
        <ele>549.53</ele>
        <time>2013-06-05T13:50:29Z</time>
      </trkpt>
      <trkpt lat="44.20637" lon="3.81341">
        <ele>548.57</ele>
        <time>2013-06-05T13:50:33Z</time>
      </trkpt>
      <trkpt lat="44.2064" lon="3.81359">
        <ele>545.69</ele>
        <time>2013-06-05T13:50:47Z</time>
      </trkpt>
      <trkpt lat="44.20649" lon="3.81385">
        <ele>543.28</ele>
        <time>2013-06-05T13:51:02Z</time>
      </trkpt>
      <trkpt lat="44.20649" lon="3.81403">
        <ele>541.36</ele>
        <time>2013-06-05T13:51:13Z</time>
      </trkpt>
      <trkpt lat="44.20646" lon="3.81417">
        <ele>540.88</ele>
        <time>2013-06-05T13:51:18Z</time>
      </trkpt>
      <trkpt lat="44.20646" lon="3.81428">
        <ele>540.4</ele>
        <time>2013-06-05T13:51:21Z</time>
      </trkpt>
      <trkpt lat="44.20644" lon="3.81436">
        <ele>540.4</ele>
        <time>2013-06-05T13:51:24Z</time>
      </trkpt>
      <trkpt lat="44.20641" lon="3.81444">
        <ele>539.44</ele>
        <time>2013-06-05T13:51:28Z</time>
      </trkpt>
      <trkpt lat="44.2063" lon="3.8147">
        <ele>538.96</ele>
        <time>2013-06-05T13:51:39Z</time>
      </trkpt>
      <trkpt lat="44.20625" lon="3.81494">
        <ele>539.44</ele>
        <time>2013-06-05T13:51:51Z</time>
      </trkpt>
      <trkpt lat="44.20624" lon="3.81495">
        <ele>539.44</ele>
        <time>2013-06-05T13:51:52Z</time>
      </trkpt>
      <trkpt lat="44.20619" lon="3.81505">
        <ele>539.44</ele>
        <time>2013-06-05T13:51:57Z</time>
      </trkpt>
      <trkpt lat="44.20615" lon="3.8152">
        <ele>539.44</ele>
        <time>2013-06-05T13:52:05Z</time>
      </trkpt>
      <trkpt lat="44.20615" lon="3.81521">
        <ele>540.4</ele>
        <time>2013-06-05T13:52:06Z</time>
      </trkpt>
      <trkpt lat="44.20609" lon="3.81534">
        <ele>540.88</ele>
        <time>2013-06-05T13:52:14Z</time>
      </trkpt>
      <trkpt lat="44.20606" lon="3.81568">
        <ele>542.8</ele>
        <time>2013-06-05T13:52:30Z</time>
      </trkpt>
      <trkpt lat="44.20597" lon="3.81593">
        <ele>543.28</ele>
        <time>2013-06-05T13:52:45Z</time>
      </trkpt>
      <trkpt lat="44.20594" lon="3.81599">
        <ele>543.28</ele>
        <time>2013-06-05T13:52:49Z</time>
      </trkpt>
      <trkpt lat="44.20586" lon="3.81628">
        <ele>543.28</ele>
        <time>2013-06-05T13:53:05Z</time>
      </trkpt>
      <trkpt lat="44.20577" lon="3.81645">
        <ele>542.32</ele>
        <time>2013-06-05T13:53:18Z</time>
      </trkpt>
      <trkpt lat="44.20552" lon="3.81673">
        <ele>540.88</ele>
        <time>2013-06-05T13:53:32Z</time>
      </trkpt>
      <trkpt lat="44.20543" lon="3.81693">
        <ele>539.92</ele>
        <time>2013-06-05T13:53:46Z</time>
      </trkpt>
      <trkpt lat="44.20532" lon="3.81698">
        <ele>539.92</ele>
        <time>2013-06-05T13:53:59Z</time>
      </trkpt>
      <trkpt lat="44.20529" lon="3.81703">
        <ele>539.44</ele>
        <time>2013-06-05T13:54:03Z</time>
      </trkpt>
      <trkpt lat="44.20522" lon="3.81706">
        <ele>537.99</ele>
        <time>2013-06-05T13:54:09Z</time>
      </trkpt>
      <trkpt lat="44.20512" lon="3.81716">
        <ele>536.55</ele>
        <time>2013-06-05T13:54:23Z</time>
      </trkpt>
      <trkpt lat="44.20507" lon="3.81718">
        <ele>535.59</ele>
        <time>2013-06-05T13:54:29Z</time>
      </trkpt>
      <trkpt lat="44.20491" lon="3.81725">
        <ele>535.59</ele>
        <time>2013-06-05T13:54:42Z</time>
      </trkpt>
      <trkpt lat="44.20486" lon="3.81739">
        <ele>535.59</ele>
        <time>2013-06-05T13:54:56Z</time>
      </trkpt>
      <trkpt lat="44.20476" lon="3.81765">
        <ele>534.15</ele>
        <time>2013-06-05T13:55:10Z</time>
      </trkpt>
      <trkpt lat="44.20472" lon="3.81783">
        <ele>533.19</ele>
        <time>2013-06-05T13:55:24Z</time>
      </trkpt>
      <trkpt lat="44.20471" lon="3.81786">
        <ele>532.71</ele>
        <time>2013-06-05T13:55:26Z</time>
      </trkpt>
      <trkpt lat="44.20463" lon="3.81796">
        <ele>532.71</ele>
        <time>2013-06-05T13:55:30Z</time>
      </trkpt>
      <trkpt lat="44.20457" lon="3.81819">
        <ele>531.27</ele>
        <time>2013-06-05T13:55:43Z</time>
      </trkpt>
      <trkpt lat="44.20449" lon="3.81842">
        <ele>529.82</ele>
        <time>2013-06-05T13:55:54Z</time>
      </trkpt>
      <trkpt lat="44.20445" lon="3.81849">
        <ele>529.34</ele>
        <time>2013-06-05T13:55:57Z</time>
      </trkpt>
      <trkpt lat="44.20442" lon="3.81858">
        <ele>528.38</ele>
        <time>2013-06-05T13:56:02Z</time>
      </trkpt>
      <trkpt lat="44.20441" lon="3.81865">
        <ele>528.38</ele>
        <time>2013-06-05T13:56:06Z</time>
      </trkpt>
      <trkpt lat="44.20443" lon="3.81898">
        <ele>528.38</ele>
        <time>2013-06-05T13:56:23Z</time>
      </trkpt>
      <trkpt lat="44.20441" lon="3.81914">
        <ele>528.38</ele>
        <time>2013-06-05T13:56:32Z</time>
      </trkpt>
      <trkpt lat="44.20438" lon="3.81923">
        <ele>528.38</ele>
        <time>2013-06-05T13:56:36Z</time>
      </trkpt>
      <trkpt lat="44.20431" lon="3.81935">
        <ele>527.9</ele>
        <time>2013-06-05T13:56:42Z</time>
      </trkpt>
      <trkpt lat="44.2042" lon="3.8196">
        <ele>527.42</ele>
        <time>2013-06-05T13:56:55Z</time>
      </trkpt>
      <trkpt lat="44.20419" lon="3.81967">
        <ele>527.42</ele>
        <time>2013-06-05T13:56:58Z</time>
      </trkpt>
      <trkpt lat="44.20404" lon="3.81987">
        <ele>526.94</ele>
        <time>2013-06-05T13:57:12Z</time>
      </trkpt>
      <trkpt lat="44.20402" lon="3.82001">
        <ele>525.98</ele>
        <time>2013-06-05T13:57:22Z</time>
      </trkpt>
      <trkpt lat="44.20402" lon="3.82008">
        <ele>525.98</ele>
        <time>2013-06-05T13:57:27Z</time>
      </trkpt>
      <trkpt lat="44.20401" lon="3.82016">
        <ele>525.5</ele>
        <time>2013-06-05T13:57:31Z</time>
      </trkpt>
      <trkpt lat="44.204" lon="3.82029">
        <ele>525.02</ele>
        <time>2013-06-05T13:57:39Z</time>
      </trkpt>
      <trkpt lat="44.20399" lon="3.82056">
        <ele>522.13</ele>
        <time>2013-06-05T13:57:54Z</time>
      </trkpt>
      <trkpt lat="44.204" lon="3.82081">
        <ele>520.21</ele>
        <time>2013-06-05T13:58:07Z</time>
      </trkpt>
      <trkpt lat="44.20395" lon="3.82104">
        <ele>518.29</ele>
        <time>2013-06-05T13:58:19Z</time>
      </trkpt>
      <trkpt lat="44.20394" lon="3.82117">
        <ele>517.81</ele>
        <time>2013-06-05T13:58:26Z</time>
      </trkpt>
      <trkpt lat="44.2039" lon="3.82126">
        <ele>516.85</ele>
        <time>2013-06-05T13:58:30Z</time>
      </trkpt>
      <trkpt lat="44.20388" lon="3.8213">
        <ele>516.85</ele>
        <time>2013-06-05T13:58:32Z</time>
      </trkpt>
      <trkpt lat="44.2037" lon="3.82146">
        <ele>514.92</ele>
        <time>2013-06-05T13:58:45Z</time>
      </trkpt>
      <trkpt lat="44.20361" lon="3.82168">
        <ele>513</ele>
        <time>2013-06-05T13:58:58Z</time>
      </trkpt>
      <trkpt lat="44.2036" lon="3.82171">
        <ele>512.52</ele>
        <time>2013-06-05T13:59:01Z</time>
      </trkpt>
      <trkpt lat="44.20345" lon="3.82181">
        <ele>510.6</ele>
        <time>2013-06-05T13:59:15Z</time>
      </trkpt>
      <trkpt lat="44.20329" lon="3.82189">
        <ele>509.16</ele>
        <time>2013-06-05T13:59:26Z</time>
      </trkpt>
      <trkpt lat="44.20329" lon="3.8219">
        <ele>509.16</ele>
        <time>2013-06-05T13:59:27Z</time>
      </trkpt>
      <trkpt lat="44.20323" lon="3.82199">
        <ele>508.19</ele>
        <time>2013-06-05T13:59:33Z</time>
      </trkpt>
      <trkpt lat="44.20309" lon="3.82213">
        <ele>507.23</ele>
        <time>2013-06-05T13:59:44Z</time>
      </trkpt>
      <trkpt lat="44.20296" lon="3.8224">
        <ele>506.27</ele>
        <time>2013-06-05T13:59:59Z</time>
      </trkpt>
      <trkpt lat="44.20292" lon="3.82248">
        <ele>505.79</ele>
        <time>2013-06-05T14:00:04Z</time>
      </trkpt>
      <trkpt lat="44.20288" lon="3.82251">
        <ele>504.83</ele>
        <time>2013-06-05T14:00:07Z</time>
      </trkpt>
      <trkpt lat="44.20289" lon="3.82279">
        <ele>503.39</ele>
        <time>2013-06-05T14:00:19Z</time>
      </trkpt>
      <trkpt lat="44.20287" lon="3.82286">
        <ele>502.91</ele>
        <time>2013-06-05T14:00:23Z</time>
      </trkpt>
      <trkpt lat="44.20285" lon="3.82288">
        <ele>502.43</ele>
        <time>2013-06-05T14:00:25Z</time>
      </trkpt>
      <trkpt lat="44.20285" lon="3.82293">
        <ele>502.43</ele>
        <time>2013-06-05T14:00:27Z</time>
      </trkpt>
      <trkpt lat="44.20283" lon="3.82296">
        <ele>502.43</ele>
        <time>2013-06-05T14:00:29Z</time>
      </trkpt>
      <trkpt lat="44.20282" lon="3.823">
        <ele>502.43</ele>
        <time>2013-06-05T14:00:31Z</time>
      </trkpt>
      <trkpt lat="44.20281" lon="3.82323">
        <ele>500.98</ele>
        <time>2013-06-05T14:00:44Z</time>
      </trkpt>
      <trkpt lat="44.2027" lon="3.82346">
        <ele>498.1</ele>
        <time>2013-06-05T14:01:00Z</time>
      </trkpt>
      <trkpt lat="44.20258" lon="3.82363">
        <ele>496.66</ele>
        <time>2013-06-05T14:01:15Z</time>
      </trkpt>
      <trkpt lat="44.20257" lon="3.82365">
        <ele>496.66</ele>
        <time>2013-06-05T14:01:16Z</time>
      </trkpt>
      <trkpt lat="44.20249" lon="3.82385">
        <ele>496.18</ele>
        <time>2013-06-05T14:01:29Z</time>
      </trkpt>
      <trkpt lat="44.20246" lon="3.82391">
        <ele>496.18</ele>
        <time>2013-06-05T14:01:34Z</time>
      </trkpt>
      <trkpt lat="44.20246" lon="3.82397">
        <ele>496.18</ele>
        <time>2013-06-05T14:01:38Z</time>
      </trkpt>
      <trkpt lat="44.2025" lon="3.82425">
        <ele>497.14</ele>
        <time>2013-06-05T14:01:52Z</time>
      </trkpt>
      <trkpt lat="44.20251" lon="3.82427">
        <ele>497.14</ele>
        <time>2013-06-05T14:01:53Z</time>
      </trkpt>
      <trkpt lat="44.20251" lon="3.82459">
        <ele>498.58</ele>
        <time>2013-06-05T14:02:08Z</time>
      </trkpt>
      <trkpt lat="44.20253" lon="3.82495">
        <ele>499.06</ele>
        <time>2013-06-05T14:02:25Z</time>
      </trkpt>
      <trkpt lat="44.20258" lon="3.82521">
        <ele>500.02</ele>
        <time>2013-06-05T14:02:38Z</time>
      </trkpt>
      <trkpt lat="44.20263" lon="3.82554">
        <ele>500.5</ele>
        <time>2013-06-05T14:02:56Z</time>
      </trkpt>
      <trkpt lat="44.20266" lon="3.82576">
        <ele>501.46</ele>
        <time>2013-06-05T14:03:08Z</time>
      </trkpt>
      <trkpt lat="44.20266" lon="3.82579">
        <ele>500.98</ele>
        <time>2013-06-05T14:03:10Z</time>
      </trkpt>
      <trkpt lat="44.20268" lon="3.82587">
        <ele>501.46</ele>
        <time>2013-06-05T14:03:15Z</time>
      </trkpt>
      <trkpt lat="44.20264" lon="3.8261">
        <ele>501.46</ele>
        <time>2013-06-05T14:03:27Z</time>
      </trkpt>
      <trkpt lat="44.20263" lon="3.8262">
        <ele>501.46</ele>
        <time>2013-06-05T14:03:32Z</time>
      </trkpt>
      <trkpt lat="44.20261" lon="3.82635">
        <ele>501.46</ele>
        <time>2013-06-05T14:03:41Z</time>
      </trkpt>
      <trkpt lat="44.20255" lon="3.82651">
        <ele>501.46</ele>
        <time>2013-06-05T14:03:52Z</time>
      </trkpt>
      <trkpt lat="44.20252" lon="3.82662">
        <ele>501.46</ele>
        <time>2013-06-05T14:03:58Z</time>
      </trkpt>
      <trkpt lat="44.20249" lon="3.82664">
        <ele>500.02</ele>
        <time>2013-06-05T14:04:00Z</time>
      </trkpt>
      <trkpt lat="44.2024" lon="3.82683">
        <ele>499.06</ele>
        <time>2013-06-05T14:04:12Z</time>
      </trkpt>
      <trkpt lat="44.20232" lon="3.82698">
        <ele>498.58</ele>
        <time>2013-06-05T14:04:19Z</time>
      </trkpt>
      <trkpt lat="44.2023" lon="3.82704">
        <ele>498.58</ele>
        <time>2013-06-05T14:04:22Z</time>
      </trkpt>
      <trkpt lat="44.2023" lon="3.82708">
        <ele>498.58</ele>
        <time>2013-06-05T14:04:24Z</time>
      </trkpt>
      <trkpt lat="44.20228" lon="3.82716">
        <ele>498.58</ele>
        <time>2013-06-05T14:04:29Z</time>
      </trkpt>
      <trkpt lat="44.20228" lon="3.82724">
        <ele>498.58</ele>
        <time>2013-06-05T14:04:33Z</time>
      </trkpt>
      <trkpt lat="44.20227" lon="3.82727">
        <ele>498.58</ele>
        <time>2013-06-05T14:04:35Z</time>
      </trkpt>
      <trkpt lat="44.20228" lon="3.82731">
        <ele>498.58</ele>
        <time>2013-06-05T14:04:37Z</time>
      </trkpt>
      <trkpt lat="44.20227" lon="3.82735">
        <ele>500.02</ele>
        <time>2013-06-05T14:04:39Z</time>
      </trkpt>
      <trkpt lat="44.20233" lon="3.82768">
        <ele>501.95</ele>
        <time>2013-06-05T14:04:55Z</time>
      </trkpt>
      <trkpt lat="44.20234" lon="3.8278">
        <ele>502.43</ele>
        <time>2013-06-05T14:05:03Z</time>
      </trkpt>
      <trkpt lat="44.20231" lon="3.82785">
        <ele>500.98</ele>
        <time>2013-06-05T14:05:07Z</time>
      </trkpt>
      <trkpt lat="44.20223" lon="3.82786">
        <ele>500.5</ele>
        <time>2013-06-05T14:05:12Z</time>
      </trkpt>
      <trkpt lat="44.20207" lon="3.82789">
        <ele>498.1</ele>
        <time>2013-06-05T14:05:26Z</time>
      </trkpt>
      <trkpt lat="44.20195" lon="3.82792">
        <ele>495.22</ele>
        <time>2013-06-05T14:05:40Z</time>
      </trkpt>
      <trkpt lat="44.2018" lon="3.82804">
        <ele>492.81</ele>
        <time>2013-06-05T14:05:53Z</time>
      </trkpt>
      <trkpt lat="44.20182" lon="3.82816">
        <ele>490.89</ele>
        <time>2013-06-05T14:06:04Z</time>
      </trkpt>
      <trkpt lat="44.20191" lon="3.82812">
        <ele>488.01</ele>
        <time>2013-06-05T14:06:17Z</time>
      </trkpt>
      <trkpt lat="44.202" lon="3.82814">
        <ele>487.53</ele>
        <time>2013-06-05T14:06:22Z</time>
      </trkpt>
      <trkpt lat="44.20201" lon="3.82819">
        <ele>486.56</ele>
        <time>2013-06-05T14:06:25Z</time>
      </trkpt>
      <trkpt lat="44.20196" lon="3.8283">
        <ele>485.12</ele>
        <time>2013-06-05T14:06:38Z</time>
      </trkpt>
      <trkpt lat="44.20189" lon="3.82833">
        <ele>483.68</ele>
        <time>2013-06-05T14:06:44Z</time>
      </trkpt>
      <trkpt lat="44.20183" lon="3.82836">
        <ele>483.2</ele>
        <time>2013-06-05T14:06:47Z</time>
      </trkpt>
      <trkpt lat="44.20179" lon="3.8284">
        <ele>481.76</ele>
        <time>2013-06-05T14:06:51Z</time>
      </trkpt>
      <trkpt lat="44.20175" lon="3.82844">
        <ele>481.28</ele>
        <time>2013-06-05T14:07:05Z</time>
      </trkpt>
      <trkpt lat="44.2017" lon="3.8286">
        <ele>478.87</ele>
        <time>2013-06-05T14:07:18Z</time>
      </trkpt>
      <trkpt lat="44.20164" lon="3.82877">
        <ele>477.91</ele>
        <time>2013-06-05T14:07:31Z</time>
      </trkpt>
      <trkpt lat="44.20162" lon="3.82881">
        <ele>477.91</ele>
        <time>2013-06-05T14:07:34Z</time>
      </trkpt>
      <trkpt lat="44.20142" lon="3.82902">
        <ele>477.91</ele>
        <time>2013-06-05T14:07:45Z</time>
      </trkpt>
      <trkpt lat="44.20138" lon="3.82905">
        <ele>477.91</ele>
        <time>2013-06-05T14:07:47Z</time>
      </trkpt>
      <trkpt lat="44.20115" lon="3.82916">
        <ele>477.91</ele>
        <time>2013-06-05T14:08:03Z</time>
      </trkpt>
      <trkpt lat="44.2011" lon="3.82918">
        <ele>479.35</ele>
        <time>2013-06-05T14:08:06Z</time>
      </trkpt>
      <trkpt lat="44.20095" lon="3.82923">
        <ele>478.87</ele>
        <time>2013-06-05T14:08:17Z</time>
      </trkpt>
      <trkpt lat="44.20092" lon="3.82924">
        <ele>477.91</ele>
        <time>2013-06-05T14:08:21Z</time>
      </trkpt>
      <trkpt lat="44.20079" lon="3.82925">
        <ele>475.99</ele>
        <time>2013-06-05T14:08:34Z</time>
      </trkpt>
      <trkpt lat="44.20058" lon="3.82942">
        <ele>473.11</ele>
        <time>2013-06-05T14:08:50Z</time>
      </trkpt>
      <trkpt lat="44.20053" lon="3.82953">
        <ele>473.11</ele>
        <time>2013-06-05T14:08:59Z</time>
      </trkpt>
      <trkpt lat="44.20053" lon="3.8296">
        <ele>472.63</ele>
        <time>2013-06-05T14:09:03Z</time>
      </trkpt>
      <trkpt lat="44.20055" lon="3.82968">
        <ele>472.63</ele>
        <time>2013-06-05T14:09:08Z</time>
      </trkpt>
      <trkpt lat="44.20058" lon="3.82976">
        <ele>472.14</ele>
        <time>2013-06-05T14:09:15Z</time>
      </trkpt>
      <trkpt lat="44.20057" lon="3.8298">
        <ele>471.18</ele>
        <time>2013-06-05T14:09:18Z</time>
      </trkpt>
      <trkpt lat="44.20056" lon="3.82987">
        <ele>471.18</ele>
        <time>2013-06-05T14:09:23Z</time>
      </trkpt>
      <trkpt lat="44.20056" lon="3.82993">
        <ele>471.18</ele>
        <time>2013-06-05T14:09:26Z</time>
      </trkpt>
      <trkpt lat="44.20053" lon="3.83011">
        <ele>469.74</ele>
        <time>2013-06-05T14:09:34Z</time>
      </trkpt>
      <trkpt lat="44.20051" lon="3.83026">
        <ele>468.78</ele>
        <time>2013-06-05T14:09:42Z</time>
      </trkpt>
      <trkpt lat="44.2005" lon="3.83034">
        <ele>468.3</ele>
        <time>2013-06-05T14:09:46Z</time>
      </trkpt>
      <trkpt lat="44.2005" lon="3.83046">
        <ele>467.82</ele>
        <time>2013-06-05T14:09:51Z</time>
      </trkpt>
      <trkpt lat="44.2005" lon="3.83053">
        <ele>467.82</ele>
        <time>2013-06-05T14:09:55Z</time>
      </trkpt>
      <trkpt lat="44.20044" lon="3.83084">
        <ele>466.86</ele>
        <time>2013-06-05T14:10:11Z</time>
      </trkpt>
      <trkpt lat="44.2004" lon="3.83106">
        <ele>466.38</ele>
        <time>2013-06-05T14:10:24Z</time>
      </trkpt>
      <trkpt lat="44.2004" lon="3.83107">
        <ele>466.38</ele>
        <time>2013-06-05T14:10:25Z</time>
      </trkpt>
      <trkpt lat="44.20035" lon="3.83121">
        <ele>466.38</ele>
        <time>2013-06-05T14:10:33Z</time>
      </trkpt>
      <trkpt lat="44.20033" lon="3.83124">
        <ele>466.38</ele>
        <time>2013-06-05T14:10:36Z</time>
      </trkpt>
      <trkpt lat="44.20024" lon="3.83136">
        <ele>466.38</ele>
        <time>2013-06-05T14:10:43Z</time>
      </trkpt>
      <trkpt lat="44.20021" lon="3.83142">
        <ele>466.38</ele>
        <time>2013-06-05T14:10:47Z</time>
      </trkpt>
      <trkpt lat="44.20019" lon="3.83145">
        <ele>465.9</ele>
        <time>2013-06-05T14:10:49Z</time>
      </trkpt>
      <trkpt lat="44.2001" lon="3.83163">
        <ele>465.9</ele>
        <time>2013-06-05T14:11:01Z</time>
      </trkpt>
      <trkpt lat="44.20005" lon="3.83167">
        <ele>465.42</ele>
        <time>2013-06-05T14:11:04Z</time>
      </trkpt>
      <trkpt lat="44.19999" lon="3.83176">
        <ele>464.93</ele>
        <time>2013-06-05T14:11:10Z</time>
      </trkpt>
      <trkpt lat="44.19987" lon="3.83187">
        <ele>463.01</ele>
        <time>2013-06-05T14:11:25Z</time>
      </trkpt>
      <trkpt lat="44.19975" lon="3.83193">
        <ele>461.09</ele>
        <time>2013-06-05T14:11:39Z</time>
      </trkpt>
      <trkpt lat="44.19948" lon="3.83196">
        <ele>459.17</ele>
        <time>2013-06-05T14:11:54Z</time>
      </trkpt>
      <trkpt lat="44.19937" lon="3.83197">
        <ele>456.76</ele>
        <time>2013-06-05T14:12:06Z</time>
      </trkpt>
      <trkpt lat="44.19918" lon="3.83199">
        <ele>455.32</ele>
        <time>2013-06-05T14:12:22Z</time>
      </trkpt>
      <trkpt lat="44.19898" lon="3.83192">
        <ele>452.44</ele>
        <time>2013-06-05T14:12:38Z</time>
      </trkpt>
      <trkpt lat="44.19895" lon="3.83192">
        <ele>451.96</ele>
        <time>2013-06-05T14:12:43Z</time>
      </trkpt>
      <trkpt lat="44.19892" lon="3.83194">
        <ele>451.96</ele>
        <time>2013-06-05T14:12:46Z</time>
      </trkpt>
      <trkpt lat="44.19893" lon="3.83194">
        <ele>451.96</ele>
        <time>2013-06-05T14:12:48Z</time>
      </trkpt>
      <trkpt lat="44.1989" lon="3.83196">
        <ele>451</ele>
        <time>2013-06-05T14:12:52Z</time>
      </trkpt>
      <trkpt lat="44.19881" lon="3.83215">
        <ele>449.55</ele>
        <time>2013-06-05T14:13:06Z</time>
      </trkpt>
      <trkpt lat="44.19881" lon="3.83217">
        <ele>449.55</ele>
        <time>2013-06-05T14:13:07Z</time>
      </trkpt>
      <trkpt lat="44.19879" lon="3.83232">
        <ele>448.11</ele>
        <time>2013-06-05T14:13:15Z</time>
      </trkpt>
      <trkpt lat="44.19873" lon="3.83254">
        <ele>446.19</ele>
        <time>2013-06-05T14:13:29Z</time>
      </trkpt>
      <trkpt lat="44.19872" lon="3.83256">
        <ele>446.19</ele>
        <time>2013-06-05T14:13:30Z</time>
      </trkpt>
      <trkpt lat="44.19873" lon="3.83264">
        <ele>445.23</ele>
        <time>2013-06-05T14:13:36Z</time>
      </trkpt>
      <trkpt lat="44.19864" lon="3.83282">
        <ele>442.82</ele>
        <time>2013-06-05T14:13:50Z</time>
      </trkpt>
      <trkpt lat="44.19864" lon="3.83291">
        <ele>442.82</ele>
        <time>2013-06-05T14:14:00Z</time>
      </trkpt>
      <trkpt lat="44.19865" lon="3.83308">
        <ele>441.38</ele>
        <time>2013-06-05T14:14:14Z</time>
      </trkpt>
      <trkpt lat="44.1985" lon="3.83317">
        <ele>438.98</ele>
        <time>2013-06-05T14:14:28Z</time>
      </trkpt>
      <trkpt lat="44.19849" lon="3.83318">
        <ele>438.5</ele>
        <time>2013-06-05T14:14:29Z</time>
      </trkpt>
      <trkpt lat="44.19814" lon="3.83328">
        <ele>437.06</ele>
        <time>2013-06-05T14:14:43Z</time>
      </trkpt>
      <trkpt lat="44.19795" lon="3.83329">
        <ele>435.13</ele>
        <time>2013-06-05T14:14:55Z</time>
      </trkpt>
      <trkpt lat="44.19782" lon="3.83322">
        <ele>434.17</ele>
        <time>2013-06-05T14:15:08Z</time>
      </trkpt>
      <trkpt lat="44.19767" lon="3.8331">
        <ele>432.73</ele>
        <time>2013-06-05T14:15:22Z</time>
      </trkpt>
      <trkpt lat="44.19751" lon="3.83293">
        <ele>431.29</ele>
        <time>2013-06-05T14:15:37Z</time>
      </trkpt>
      <trkpt lat="44.19743" lon="3.83283">
        <ele>429.85</ele>
        <time>2013-06-05T14:15:44Z</time>
      </trkpt>
      <trkpt lat="44.19736" lon="3.83277">
        <ele>429.37</ele>
        <time>2013-06-05T14:15:50Z</time>
      </trkpt>
      <trkpt lat="44.19729" lon="3.83275">
        <ele>428.89</ele>
        <time>2013-06-05T14:15:55Z</time>
      </trkpt>
      <trkpt lat="44.1972" lon="3.83262">
        <ele>428.4</ele>
        <time>2013-06-05T14:16:09Z</time>
      </trkpt>
      <trkpt lat="44.19715" lon="3.83262">
        <ele>428.4</ele>
        <time>2013-06-05T14:16:15Z</time>
      </trkpt>
      <trkpt lat="44.19715" lon="3.83263">
        <ele>428.4</ele>
        <time>2013-06-05T14:16:16Z</time>
      </trkpt>
      <trkpt lat="44.19714" lon="3.83266">
        <ele>428.4</ele>
        <time>2013-06-05T14:16:19Z</time>
      </trkpt>
      <trkpt lat="44.19712" lon="3.83266">
        <ele>427.92</ele>
        <time>2013-06-05T14:16:21Z</time>
      </trkpt>
      <trkpt lat="44.19707" lon="3.83272">
        <ele>427.92</ele>
        <time>2013-06-05T14:16:29Z</time>
      </trkpt>
      <trkpt lat="44.19706" lon="3.83282">
        <ele>427.44</ele>
        <time>2013-06-05T14:16:34Z</time>
      </trkpt>
      <trkpt lat="44.19704" lon="3.83284">
        <ele>427.44</ele>
        <time>2013-06-05T14:16:35Z</time>
      </trkpt>
      <trkpt lat="44.19705" lon="3.83286">
        <ele>427.44</ele>
        <time>2013-06-05T14:16:36Z</time>
      </trkpt>
      <trkpt lat="44.19702" lon="3.833">
        <ele>426.96</ele>
        <time>2013-06-05T14:16:47Z</time>
      </trkpt>
      <trkpt lat="44.197" lon="3.83327">
        <ele>425.52</ele>
        <time>2013-06-05T14:17:01Z</time>
      </trkpt>
      <trkpt lat="44.19692" lon="3.83336">
        <ele>425.52</ele>
        <time>2013-06-05T14:17:15Z</time>
      </trkpt>
      <trkpt lat="44.19679" lon="3.83347">
        <ele>424.08</ele>
        <time>2013-06-05T14:17:28Z</time>
      </trkpt>
      <trkpt lat="44.19668" lon="3.83352">
        <ele>424.08</ele>
        <time>2013-06-05T14:17:33Z</time>
      </trkpt>
      <trkpt lat="44.19649" lon="3.83356">
        <ele>423.12</ele>
        <time>2013-06-05T14:17:39Z</time>
      </trkpt>
      <trkpt lat="44.19633" lon="3.83359">
        <ele>422.64</ele>
        <time>2013-06-05T14:17:53Z</time>
      </trkpt>
      <trkpt lat="44.19632" lon="3.83368">
        <ele>421.68</ele>
        <time>2013-06-05T14:18:03Z</time>
      </trkpt>
      <trkpt lat="44.19616" lon="3.83378">
        <ele>420.71</ele>
        <time>2013-06-05T14:18:15Z</time>
      </trkpt>
      <trkpt lat="44.19605" lon="3.83389">
        <ele>419.27</ele>
        <time>2013-06-05T14:18:28Z</time>
      </trkpt>
      <trkpt lat="44.19584" lon="3.83399">
        <ele>418.31</ele>
        <time>2013-06-05T14:18:38Z</time>
      </trkpt>
      <trkpt lat="44.19578" lon="3.83403">
        <ele>418.31</ele>
        <time>2013-06-05T14:18:41Z</time>
      </trkpt>
      <trkpt lat="44.19569" lon="3.83419">
        <ele>416.87</ele>
        <time>2013-06-05T14:18:52Z</time>
      </trkpt>
      <trkpt lat="44.19569" lon="3.83426">
        <ele>416.87</ele>
        <time>2013-06-05T14:18:56Z</time>
      </trkpt>
      <trkpt lat="44.19559" lon="3.8346">
        <ele>416.87</ele>
        <time>2013-06-05T14:19:11Z</time>
      </trkpt>
      <trkpt lat="44.19541" lon="3.8348">
        <ele>416.87</ele>
        <time>2013-06-05T14:19:27Z</time>
      </trkpt>
      <trkpt lat="44.19538" lon="3.83483">
        <ele>416.87</ele>
        <time>2013-06-05T14:19:29Z</time>
      </trkpt>
      <trkpt lat="44.19516" lon="3.835">
        <ele>417.83</ele>
        <time>2013-06-05T14:19:46Z</time>
      </trkpt>
      <trkpt lat="44.19494" lon="3.8352">
        <ele>417.35</ele>
        <time>2013-06-05T14:20:05Z</time>
      </trkpt>
      <trkpt lat="44.19491" lon="3.83532">
        <ele>416.39</ele>
        <time>2013-06-05T14:20:11Z</time>
      </trkpt>
      <trkpt lat="44.195" lon="3.83555">
        <ele>413.5</ele>
        <time>2013-06-05T14:20:27Z</time>
      </trkpt>
      <trkpt lat="44.19515" lon="3.83576">
        <ele>411.1</ele>
        <time>2013-06-05T14:20:43Z</time>
      </trkpt>
      <trkpt lat="44.19529" lon="3.83589">
        <ele>410.14</ele>
        <time>2013-06-05T14:20:55Z</time>
      </trkpt>
      <trkpt lat="44.19544" lon="3.83611">
        <ele>407.26</ele>
        <time>2013-06-05T14:21:10Z</time>
      </trkpt>
      <trkpt lat="44.19547" lon="3.83639">
        <ele>405.33</ele>
        <time>2013-06-05T14:21:23Z</time>
      </trkpt>
      <trkpt lat="44.19546" lon="3.83649">
        <ele>403.41</ele>
        <time>2013-06-05T14:21:30Z</time>
      </trkpt>
      <trkpt lat="44.19534" lon="3.83671">
        <ele>401.49</ele>
        <time>2013-06-05T14:21:46Z</time>
      </trkpt>
      <trkpt lat="44.19521" lon="3.83697">
        <ele>400.53</ele>
        <time>2013-06-05T14:22:00Z</time>
      </trkpt>
      <trkpt lat="44.19517" lon="3.83704">
        <ele>400.53</ele>
        <time>2013-06-05T14:22:04Z</time>
      </trkpt>
      <trkpt lat="44.19514" lon="3.83719">
        <ele>399.08</ele>
        <time>2013-06-05T14:22:12Z</time>
      </trkpt>
      <trkpt lat="44.19504" lon="3.8375">
        <ele>396.2</ele>
        <time>2013-06-05T14:22:28Z</time>
      </trkpt>
      <trkpt lat="44.19496" lon="3.83762">
        <ele>395.24</ele>
        <time>2013-06-05T14:22:36Z</time>
      </trkpt>
      <trkpt lat="44.19495" lon="3.8377">
        <ele>395.24</ele>
        <time>2013-06-05T14:22:40Z</time>
      </trkpt>
      <trkpt lat="44.19494" lon="3.83793">
        <ele>394.28</ele>
        <time>2013-06-05T14:22:52Z</time>
      </trkpt>
      <trkpt lat="44.19492" lon="3.83799">
        <ele>394.28</ele>
        <time>2013-06-05T14:22:55Z</time>
      </trkpt>
      <trkpt lat="44.19481" lon="3.83832">
        <ele>392.36</ele>
        <time>2013-06-05T14:23:12Z</time>
      </trkpt>
      <trkpt lat="44.19477" lon="3.83858">
        <ele>389.95</ele>
        <time>2013-06-05T14:23:25Z</time>
      </trkpt>
      <trkpt lat="44.19471" lon="3.8388">
        <ele>388.51</ele>
        <time>2013-06-05T14:23:36Z</time>
      </trkpt>
      <trkpt lat="44.19463" lon="3.83906">
        <ele>386.59</ele>
        <time>2013-06-05T14:23:50Z</time>
      </trkpt>
      <trkpt lat="44.19452" lon="3.83922">
        <ele>384.18</ele>
        <time>2013-06-05T14:24:05Z</time>
      </trkpt>
      <trkpt lat="44.19441" lon="3.83933">
        <ele>383.22</ele>
        <time>2013-06-05T14:24:20Z</time>
      </trkpt>
      <trkpt lat="44.1943" lon="3.83938">
        <ele>382.26</ele>
        <time>2013-06-05T14:24:27Z</time>
      </trkpt>
      <trkpt lat="44.19415" lon="3.83938">
        <ele>381.3</ele>
        <time>2013-06-05T14:24:40Z</time>
      </trkpt>
      <trkpt lat="44.19383" lon="3.83934">
        <ele>380.34</ele>
        <time>2013-06-05T14:24:55Z</time>
      </trkpt>
      <trkpt lat="44.19366" lon="3.83923">
        <ele>379.38</ele>
        <time>2013-06-05T14:25:08Z</time>
      </trkpt>
      <trkpt lat="44.19361" lon="3.83918">
        <ele>378.42</ele>
        <time>2013-06-05T14:25:13Z</time>
      </trkpt>
      <trkpt lat="44.19347" lon="3.83919">
        <ele>377.45</ele>
        <time>2013-06-05T14:25:26Z</time>
      </trkpt>
      <trkpt lat="44.19346" lon="3.83922">
        <ele>377.45</ele>
        <time>2013-06-05T14:25:28Z</time>
      </trkpt>
      <trkpt lat="44.19345" lon="3.83923">
        <ele>377.45</ele>
        <time>2013-06-05T14:25:29Z</time>
      </trkpt>
      <trkpt lat="44.19344" lon="3.83925">
        <ele>377.45</ele>
        <time>2013-06-05T14:25:30Z</time>
      </trkpt>
      <trkpt lat="44.19336" lon="3.83944">
        <ele>375.53</ele>
        <time>2013-06-05T14:25:43Z</time>
      </trkpt>
      <trkpt lat="44.19328" lon="3.83956">
        <ele>374.09</ele>
        <time>2013-06-05T14:25:57Z</time>
      </trkpt>
      <trkpt lat="44.19314" lon="3.83964">
        <ele>372.17</ele>
        <time>2013-06-05T14:26:08Z</time>
      </trkpt>
      <trkpt lat="44.19292" lon="3.83972">
        <ele>370.73</ele>
        <time>2013-06-05T14:26:21Z</time>
      </trkpt>
      <trkpt lat="44.19283" lon="3.83973">
        <ele>369.76</ele>
        <time>2013-06-05T14:26:26Z</time>
      </trkpt>
      <trkpt lat="44.19266" lon="3.83971">
        <ele>367.84</ele>
        <time>2013-06-05T14:26:41Z</time>
      </trkpt>
      <trkpt lat="44.19247" lon="3.83974">
        <ele>365.44</ele>
        <time>2013-06-05T14:26:56Z</time>
      </trkpt>
      <trkpt lat="44.19223" lon="3.8397">
        <ele>364</ele>
        <time>2013-06-05T14:27:07Z</time>
      </trkpt>
      <trkpt lat="44.19211" lon="3.83958">
        <ele>362.55</ele>
        <time>2013-06-05T14:27:17Z</time>
      </trkpt>
      <trkpt lat="44.19197" lon="3.8395">
        <ele>361.59</ele>
        <time>2013-06-05T14:27:28Z</time>
      </trkpt>
      <trkpt lat="44.19185" lon="3.83938">
        <ele>360.63</ele>
        <time>2013-06-05T14:27:37Z</time>
      </trkpt>
      <trkpt lat="44.19176" lon="3.83918">
        <ele>359.19</ele>
        <time>2013-06-05T14:27:49Z</time>
      </trkpt>
      <trkpt lat="44.19165" lon="3.83898">
        <ele>357.75</ele>
        <time>2013-06-05T14:28:02Z</time>
      </trkpt>
      <trkpt lat="44.19152" lon="3.83884">
        <ele>355.83</ele>
        <time>2013-06-05T14:28:13Z</time>
      </trkpt>
      <trkpt lat="44.19137" lon="3.83862">
        <ele>353.9</ele>
        <time>2013-06-05T14:28:26Z</time>
      </trkpt>
      <trkpt lat="44.19124" lon="3.83842">
        <ele>351.98</ele>
        <time>2013-06-05T14:28:40Z</time>
      </trkpt>
      <trkpt lat="44.19109" lon="3.83822">
        <ele>350.54</ele>
        <time>2013-06-05T14:28:53Z</time>
      </trkpt>
      <trkpt lat="44.19104" lon="3.83816">
        <ele>350.06</ele>
        <time>2013-06-05T14:28:57Z</time>
      </trkpt>
      <trkpt lat="44.19094" lon="3.83788">
        <ele>348.13</ele>
        <time>2013-06-05T14:29:13Z</time>
      </trkpt>
      <trkpt lat="44.19094" lon="3.8377">
        <ele>346.69</ele>
        <time>2013-06-05T14:29:19Z</time>
      </trkpt>
      <trkpt lat="44.19101" lon="3.83744">
        <ele>345.73</ele>
        <time>2013-06-05T14:29:33Z</time>
      </trkpt>
      <trkpt lat="44.19114" lon="3.83717">
        <ele>344.77</ele>
        <time>2013-06-05T14:29:46Z</time>
      </trkpt>
      <trkpt lat="44.19121" lon="3.83704">
        <ele>343.33</ele>
        <time>2013-06-05T14:29:59Z</time>
      </trkpt>
      <trkpt lat="44.19125" lon="3.83696">
        <ele>342.85</ele>
        <time>2013-06-05T14:30:04Z</time>
      </trkpt>
      <trkpt lat="44.19124" lon="3.8369">
        <ele>342.85</ele>
        <time>2013-06-05T14:30:07Z</time>
      </trkpt>
      <trkpt lat="44.19115" lon="3.83693">
        <ele>341.89</ele>
        <time>2013-06-05T14:30:16Z</time>
      </trkpt>
      <trkpt lat="44.19104" lon="3.83695">
        <ele>340.44</ele>
        <time>2013-06-05T14:30:27Z</time>
      </trkpt>
      <trkpt lat="44.19099" lon="3.83695">
        <ele>338.52</ele>
        <time>2013-06-05T14:30:30Z</time>
      </trkpt>
      <trkpt lat="44.19095" lon="3.83695">
        <ele>338.52</ele>
        <time>2013-06-05T14:30:32Z</time>
      </trkpt>
      <trkpt lat="44.1909" lon="3.83697">
        <ele>338.04</ele>
        <time>2013-06-05T14:30:35Z</time>
      </trkpt>
      <trkpt lat="44.19087" lon="3.837">
        <ele>337.56</ele>
        <time>2013-06-05T14:30:37Z</time>
      </trkpt>
      <trkpt lat="44.19064" lon="3.83705">
        <ele>336.12</ele>
        <time>2013-06-05T14:30:53Z</time>
      </trkpt>
      <trkpt lat="44.19045" lon="3.837">
        <ele>335.16</ele>
        <time>2013-06-05T14:31:09Z</time>
      </trkpt>
      <trkpt lat="44.19042" lon="3.83698">
        <ele>335.16</ele>
        <time>2013-06-05T14:31:13Z</time>
      </trkpt>
      <trkpt lat="44.19018" lon="3.83668">
        <ele>333.23</ele>
        <time>2013-06-05T14:31:30Z</time>
      </trkpt>
      <trkpt lat="44.19014" lon="3.83661">
        <ele>332.75</ele>
        <time>2013-06-05T14:31:34Z</time>
      </trkpt>
      <trkpt lat="44.19002" lon="3.83641">
        <ele>331.79</ele>
        <time>2013-06-05T14:31:48Z</time>
      </trkpt>
      <trkpt lat="44.18988" lon="3.83605">
        <ele>329.39</ele>
        <time>2013-06-05T14:32:07Z</time>
      </trkpt>
      <trkpt lat="44.18979" lon="3.83579">
        <ele>327.95</ele>
        <time>2013-06-05T14:32:22Z</time>
      </trkpt>
      <trkpt lat="44.1896" lon="3.8356">
        <ele>326.02</ele>
        <time>2013-06-05T14:32:40Z</time>
      </trkpt>
      <trkpt lat="44.18942" lon="3.83538">
        <ele>324.1</ele>
        <time>2013-06-05T14:32:57Z</time>
      </trkpt>
      <trkpt lat="44.18921" lon="3.83509">
        <ele>322.66</ele>
        <time>2013-06-05T14:33:16Z</time>
      </trkpt>
      <trkpt lat="44.18907" lon="3.83469">
        <ele>320.74</ele>
        <time>2013-06-05T14:33:36Z</time>
      </trkpt>
      <trkpt lat="44.18898" lon="3.83435">
        <ele>318.33</ele>
        <time>2013-06-05T14:33:55Z</time>
      </trkpt>
      <trkpt lat="44.18892" lon="3.83402">
        <ele>316.89</ele>
        <time>2013-06-05T14:34:11Z</time>
      </trkpt>
      <trkpt lat="44.18881" lon="3.83379">
        <ele>314.97</ele>
        <time>2013-06-05T14:34:25Z</time>
      </trkpt>
      <trkpt lat="44.18869" lon="3.83357">
        <ele>313.53</ele>
        <time>2013-06-05T14:34:38Z</time>
      </trkpt>
      <trkpt lat="44.18853" lon="3.83337">
        <ele>312.09</ele>
        <time>2013-06-05T14:34:53Z</time>
      </trkpt>
      <trkpt lat="44.18837" lon="3.83328">
        <ele>310.64</ele>
        <time>2013-06-05T14:35:09Z</time>
      </trkpt>
      <trkpt lat="44.18822" lon="3.83333">
        <ele>309.2</ele>
        <time>2013-06-05T14:35:24Z</time>
      </trkpt>
      <trkpt lat="44.18819" lon="3.83334">
        <ele>308.24</ele>
        <time>2013-06-05T14:35:28Z</time>
      </trkpt>
      <trkpt lat="44.18812" lon="3.83336">
        <ele>308.24</ele>
        <time>2013-06-05T14:35:30Z</time>
      </trkpt>
      <trkpt lat="44.18784" lon="3.83355">
        <ele>307.28</ele>
        <time>2013-06-05T14:35:43Z</time>
      </trkpt>
      <trkpt lat="44.18767" lon="3.83367">
        <ele>306.32</ele>
        <time>2013-06-05T14:35:57Z</time>
      </trkpt>
      <trkpt lat="44.18766" lon="3.83368">
        <ele>306.32</ele>
        <time>2013-06-05T14:35:58Z</time>
      </trkpt>
      <trkpt lat="44.18763" lon="3.83372">
        <ele>305.36</ele>
        <time>2013-06-05T14:36:01Z</time>
      </trkpt>
      <trkpt lat="44.1875" lon="3.83392">
        <ele>303.91</ele>
        <time>2013-06-05T14:36:18Z</time>
      </trkpt>
      <trkpt lat="44.18737" lon="3.83408">
        <ele>302.95</ele>
        <time>2013-06-05T14:36:32Z</time>
      </trkpt>
      <trkpt lat="44.18736" lon="3.8341">
        <ele>302.47</ele>
        <time>2013-06-05T14:36:35Z</time>
      </trkpt>
      <trkpt lat="44.18727" lon="3.83411">
        <ele>301.99</ele>
        <time>2013-06-05T14:36:38Z</time>
      </trkpt>
      <trkpt lat="44.18704" lon="3.83415">
        <ele>301.51</ele>
        <time>2013-06-05T14:36:43Z</time>
      </trkpt>
      <trkpt lat="44.18682" lon="3.83408">
        <ele>300.07</ele>
        <time>2013-06-05T14:36:57Z</time>
      </trkpt>
      <trkpt lat="44.18682" lon="3.83416">
        <ele>300.07</ele>
        <time>2013-06-05T14:37:02Z</time>
      </trkpt>
      <trkpt lat="44.18693" lon="3.83419">
        <ele>299.59</ele>
        <time>2013-06-05T14:37:13Z</time>
      </trkpt>
      <trkpt lat="44.18686" lon="3.83422">
        <ele>299.59</ele>
        <time>2013-06-05T14:37:19Z</time>
      </trkpt>
      <trkpt lat="44.18675" lon="3.83411">
        <ele>299.59</ele>
        <time>2013-06-05T14:37:30Z</time>
      </trkpt>
      <trkpt lat="44.18676" lon="3.83394">
        <ele>299.11</ele>
        <time>2013-06-05T14:37:41Z</time>
      </trkpt>
      <trkpt lat="44.18676" lon="3.83369">
        <ele>298.63</ele>
        <time>2013-06-05T14:37:56Z</time>
      </trkpt>
      <trkpt lat="44.18681" lon="3.83337">
        <ele>296.7</ele>
        <time>2013-06-05T14:38:13Z</time>
      </trkpt>
      <trkpt lat="44.18687" lon="3.83314">
        <ele>295.26</ele>
        <time>2013-06-05T14:38:26Z</time>
      </trkpt>
      <trkpt lat="44.18685" lon="3.83315">
        <ele>294.3</ele>
        <time>2013-06-05T14:38:40Z</time>
      </trkpt>
      <trkpt lat="44.18687" lon="3.83317">
        <ele>293.34</ele>
        <time>2013-06-05T14:39:04Z</time>
      </trkpt>
      <trkpt lat="44.18687" lon="3.83318">
        <ele>293.34</ele>
        <time>2013-06-05T14:39:19Z</time>
      </trkpt>
      <trkpt lat="44.18678" lon="3.83339">
        <ele>291.42</ele>
        <time>2013-06-05T14:39:35Z</time>
      </trkpt>
      <trkpt lat="44.18675" lon="3.83344">
        <ele>291.42</ele>
        <time>2013-06-05T14:39:38Z</time>
      </trkpt>
      <trkpt lat="44.18672" lon="3.83348">
        <ele>290.46</ele>
        <time>2013-06-05T14:39:41Z</time>
      </trkpt>
      <trkpt lat="44.18664" lon="3.83378">
        <ele>289.49</ele>
        <time>2013-06-05T14:39:58Z</time>
      </trkpt>
      <trkpt lat="44.18661" lon="3.83406">
        <ele>288.53</ele>
        <time>2013-06-05T14:40:13Z</time>
      </trkpt>
      <trkpt lat="44.18654" lon="3.83431">
        <ele>287.09</ele>
        <time>2013-06-05T14:40:28Z</time>
      </trkpt>
      <trkpt lat="44.18644" lon="3.83454">
        <ele>285.65</ele>
        <time>2013-06-05T14:40:42Z</time>
      </trkpt>
      <trkpt lat="44.18638" lon="3.83465">
        <ele>283.25</ele>
        <time>2013-06-05T14:40:59Z</time>
      </trkpt>
      <trkpt lat="44.18644" lon="3.83452">
        <ele>284.69</ele>
        <time>2013-06-05T14:41:10Z</time>
      </trkpt>
      <trkpt lat="44.18645" lon="3.83449">
        <ele>285.17</ele>
        <time>2013-06-05T14:41:12Z</time>
      </trkpt>
      <trkpt lat="44.1865" lon="3.83437">
        <ele>286.13</ele>
        <time>2013-06-05T14:41:18Z</time>
      </trkpt>
      <trkpt lat="44.18652" lon="3.83431">
        <ele>286.13</ele>
        <time>2013-06-05T14:41:22Z</time>
      </trkpt>
      <trkpt lat="44.18657" lon="3.83413">
        <ele>287.09</ele>
        <time>2013-06-05T14:41:34Z</time>
      </trkpt>
      <trkpt lat="44.18657" lon="3.83412">
        <ele>287.09</ele>
        <time>2013-06-05T14:41:35Z</time>
      </trkpt>
      <trkpt lat="44.1866" lon="3.83404">
        <ele>287.57</ele>
        <time>2013-06-05T14:41:41Z</time>
      </trkpt>
      <trkpt lat="44.18663" lon="3.83383">
        <ele>288.05</ele>
        <time>2013-06-05T14:41:54Z</time>
      </trkpt>
      <trkpt lat="44.18665" lon="3.83359">
        <ele>288.53</ele>
        <time>2013-06-05T14:42:08Z</time>
      </trkpt>
      <trkpt lat="44.18668" lon="3.83344">
        <ele>289.97</ele>
        <time>2013-06-05T14:42:18Z</time>
      </trkpt>
      <trkpt lat="44.18681" lon="3.83318">
        <ele>291.42</ele>
        <time>2013-06-05T14:42:32Z</time>
      </trkpt>
      <trkpt lat="44.18692" lon="3.83295">
        <ele>291.42</ele>
        <time>2013-06-05T14:42:46Z</time>
      </trkpt>
      <trkpt lat="44.18694" lon="3.83291">
        <ele>289.97</ele>
        <time>2013-06-05T14:42:49Z</time>
      </trkpt>
      <trkpt lat="44.18697" lon="3.83283">
        <ele>289.49</ele>
        <time>2013-06-05T14:42:54Z</time>
      </trkpt>
      <trkpt lat="44.187" lon="3.83264">
        <ele>289.01</ele>
        <time>2013-06-05T14:43:04Z</time>
      </trkpt>
      <trkpt lat="44.18685" lon="3.83244">
        <ele>289.49</ele>
        <time>2013-06-05T14:43:20Z</time>
      </trkpt>
      <trkpt lat="44.18661" lon="3.83237">
        <ele>289.49</ele>
        <time>2013-06-05T14:43:38Z</time>
      </trkpt>
      <trkpt lat="44.18647" lon="3.83242">
        <ele>289.49</ele>
        <time>2013-06-05T14:43:50Z</time>
      </trkpt>
      <trkpt lat="44.18631" lon="3.83257">
        <ele>289.97</ele>
        <time>2013-06-05T14:44:04Z</time>
      </trkpt>
      <trkpt lat="44.18616" lon="3.83284">
        <ele>289.49</ele>
        <time>2013-06-05T14:44:21Z</time>
      </trkpt>
      <trkpt lat="44.186" lon="3.83311">
        <ele>290.46</ele>
        <time>2013-06-05T14:44:39Z</time>
      </trkpt>
      <trkpt lat="44.18592" lon="3.83338">
        <ele>290.94</ele>
        <time>2013-06-05T14:44:55Z</time>
      </trkpt>
      <trkpt lat="44.18576" lon="3.83368">
        <ele>290.94</ele>
        <time>2013-06-05T14:45:13Z</time>
      </trkpt>
      <trkpt lat="44.18561" lon="3.83395">
        <ele>291.9</ele>
        <time>2013-06-05T14:45:29Z</time>
      </trkpt>
      <trkpt lat="44.18546" lon="3.83419">
        <ele>291.9</ele>
        <time>2013-06-05T14:45:45Z</time>
      </trkpt>
      <trkpt lat="44.18536" lon="3.83436">
        <ele>292.38</ele>
        <time>2013-06-05T14:45:59Z</time>
      </trkpt>
      <trkpt lat="44.18525" lon="3.8345">
        <ele>291.9</ele>
        <time>2013-06-05T14:46:09Z</time>
      </trkpt>
      <trkpt lat="44.18519" lon="3.83455">
        <ele>291.9</ele>
        <time>2013-06-05T14:46:13Z</time>
      </trkpt>
      <trkpt lat="44.18509" lon="3.83466">
        <ele>292.38</ele>
        <time>2013-06-05T14:46:22Z</time>
      </trkpt>
      <trkpt lat="44.18487" lon="3.83478">
        <ele>293.34</ele>
        <time>2013-06-05T14:46:35Z</time>
      </trkpt>
      <trkpt lat="44.1846" lon="3.83485">
        <ele>293.34</ele>
        <time>2013-06-05T14:46:52Z</time>
      </trkpt>
      <trkpt lat="44.18444" lon="3.83496">
        <ele>293.82</ele>
        <time>2013-06-05T14:47:09Z</time>
      </trkpt>
      <trkpt lat="44.18425" lon="3.83506">
        <ele>293.82</ele>
        <time>2013-06-05T14:47:23Z</time>
      </trkpt>
      <trkpt lat="44.18399" lon="3.83517">
        <ele>294.3</ele>
        <time>2013-06-05T14:47:40Z</time>
      </trkpt>
      <trkpt lat="44.18375" lon="3.83521">
        <ele>294.78</ele>
        <time>2013-06-05T14:47:57Z</time>
      </trkpt>
      <trkpt lat="44.18357" lon="3.83515">
        <ele>294.78</ele>
        <time>2013-06-05T14:48:10Z</time>
      </trkpt>
      <trkpt lat="44.18333" lon="3.83517">
        <ele>295.74</ele>
        <time>2013-06-05T14:48:26Z</time>
      </trkpt>
      <trkpt lat="44.18317" lon="3.83522">
        <ele>296.22</ele>
        <time>2013-06-05T14:48:39Z</time>
      </trkpt>
      <trkpt lat="44.18302" lon="3.83524">
        <ele>295.74</ele>
        <time>2013-06-05T14:48:54Z</time>
      </trkpt>
      <trkpt lat="44.18271" lon="3.83528">
        <ele>296.7</ele>
        <time>2013-06-05T14:49:12Z</time>
      </trkpt>
      <trkpt lat="44.18247" lon="3.83528">
        <ele>296.7</ele>
        <time>2013-06-05T14:49:28Z</time>
      </trkpt>
      <trkpt lat="44.1823" lon="3.83528">
        <ele>296.7</ele>
        <time>2013-06-05T14:49:41Z</time>
      </trkpt>
      <trkpt lat="44.18213" lon="3.83527">
        <ele>296.7</ele>
        <time>2013-06-05T14:49:55Z</time>
      </trkpt>
      <trkpt lat="44.18206" lon="3.83527">
        <ele>297.18</ele>
        <time>2013-06-05T14:50:00Z</time>
      </trkpt>
      <trkpt lat="44.18182" lon="3.8353">
        <ele>297.67</ele>
        <time>2013-06-05T14:50:15Z</time>
      </trkpt>
      <trkpt lat="44.18153" lon="3.83531">
        <ele>297.67</ele>
        <time>2013-06-05T14:50:31Z</time>
      </trkpt>
      <trkpt lat="44.18128" lon="3.8353">
        <ele>295.74</ele>
        <time>2013-06-05T14:50:47Z</time>
      </trkpt>
      <trkpt lat="44.18122" lon="3.83532">
        <ele>295.26</ele>
        <time>2013-06-05T14:50:51Z</time>
      </trkpt>
      <trkpt lat="44.18118" lon="3.83533">
        <ele>294.78</ele>
        <time>2013-06-05T14:50:56Z</time>
      </trkpt>
      <trkpt lat="44.18114" lon="3.83544">
        <ele>294.78</ele>
        <time>2013-06-05T14:51:03Z</time>
      </trkpt>
      <trkpt lat="44.18106" lon="3.83568">
        <ele>294.78</ele>
        <time>2013-06-05T14:51:19Z</time>
      </trkpt>
      <trkpt lat="44.18105" lon="3.83569">
        <ele>294.78</ele>
        <time>2013-06-05T14:51:20Z</time>
      </trkpt>
      <trkpt lat="44.18097" lon="3.836">
        <ele>293.82</ele>
        <time>2013-06-05T14:51:35Z</time>
      </trkpt>
      <trkpt lat="44.18097" lon="3.83601">
        <ele>293.82</ele>
        <time>2013-06-05T14:51:36Z</time>
      </trkpt>
      <trkpt lat="44.18089" lon="3.83626">
        <ele>293.34</ele>
        <time>2013-06-05T14:51:50Z</time>
      </trkpt>
      <trkpt lat="44.18089" lon="3.83628">
        <ele>293.34</ele>
        <time>2013-06-05T14:51:51Z</time>
      </trkpt>
      <trkpt lat="44.18072" lon="3.83649">
        <ele>293.34</ele>
        <time>2013-06-05T14:52:05Z</time>
      </trkpt>
      <trkpt lat="44.18046" lon="3.83657">
        <ele>293.34</ele>
        <time>2013-06-05T14:52:21Z</time>
      </trkpt>
      <trkpt lat="44.18025" lon="3.83659">
        <ele>292.86</ele>
        <time>2013-06-05T14:52:36Z</time>
      </trkpt>
      <trkpt lat="44.18007" lon="3.83655">
        <ele>291.9</ele>
        <time>2013-06-05T14:52:51Z</time>
      </trkpt>
      <trkpt lat="44.17991" lon="3.83657">
        <ele>291.42</ele>
        <time>2013-06-05T14:53:05Z</time>
      </trkpt>
      <trkpt lat="44.17978" lon="3.83658">
        <ele>290.46</ele>
        <time>2013-06-05T14:53:16Z</time>
      </trkpt>
      <trkpt lat="44.17977" lon="3.83658">
        <ele>290.46</ele>
        <time>2013-06-05T14:53:17Z</time>
      </trkpt>
      <trkpt lat="44.17955" lon="3.83664">
        <ele>290.46</ele>
        <time>2013-06-05T14:53:31Z</time>
      </trkpt>
      <trkpt lat="44.17934" lon="3.83681">
        <ele>290.46</ele>
        <time>2013-06-05T14:53:44Z</time>
      </trkpt>
      <trkpt lat="44.17918" lon="3.83699">
        <ele>289.97</ele>
        <time>2013-06-05T14:53:59Z</time>
      </trkpt>
      <trkpt lat="44.17899" lon="3.83716">
        <ele>289.97</ele>
        <time>2013-06-05T14:54:09Z</time>
      </trkpt>
      <trkpt lat="44.17875" lon="3.83735">
        <ele>289.49</ele>
        <time>2013-06-05T14:54:26Z</time>
      </trkpt>
      <trkpt lat="44.17865" lon="3.83756">
        <ele>289.01</ele>
        <time>2013-06-05T14:54:41Z</time>
      </trkpt>
      <trkpt lat="44.17851" lon="3.83782">
        <ele>289.97</ele>
        <time>2013-06-05T14:54:57Z</time>
      </trkpt>
      <trkpt lat="44.17836" lon="3.83801">
        <ele>289.97</ele>
        <time>2013-06-05T14:55:14Z</time>
      </trkpt>
      <trkpt lat="44.17828" lon="3.83807">
        <ele>289.49</ele>
        <time>2013-06-05T14:55:21Z</time>
      </trkpt>
      <trkpt lat="44.17817" lon="3.83813">
        <ele>290.46</ele>
        <time>2013-06-05T14:55:31Z</time>
      </trkpt>
      <trkpt lat="44.17808" lon="3.83813">
        <ele>291.9</ele>
        <time>2013-06-05T14:55:36Z</time>
      </trkpt>
      <trkpt lat="44.17785" lon="3.83819">
        <ele>293.34</ele>
        <time>2013-06-05T14:55:52Z</time>
      </trkpt>
      <trkpt lat="44.1778" lon="3.83819">
        <ele>293.82</ele>
        <time>2013-06-05T14:55:57Z</time>
      </trkpt>
      <trkpt lat="44.17777" lon="3.83822">
        <ele>293.82</ele>
        <time>2013-06-05T14:56:02Z</time>
      </trkpt>
      <trkpt lat="44.17767" lon="3.83831">
        <ele>295.26</ele>
        <time>2013-06-05T14:56:14Z</time>
      </trkpt>
      <trkpt lat="44.17755" lon="3.83839">
        <ele>297.18</ele>
        <time>2013-06-05T14:56:26Z</time>
      </trkpt>
      <trkpt lat="44.17743" lon="3.83844">
        <ele>298.63</ele>
        <time>2013-06-05T14:56:38Z</time>
      </trkpt>
      <trkpt lat="44.17713" lon="3.83856">
        <ele>299.59</ele>
        <time>2013-06-05T14:56:50Z</time>
      </trkpt>
      <trkpt lat="44.17689" lon="3.83864">
        <ele>300.55</ele>
        <time>2013-06-05T14:57:06Z</time>
      </trkpt>
      <trkpt lat="44.17674" lon="3.83877">
        <ele>300.55</ele>
        <time>2013-06-05T14:57:18Z</time>
      </trkpt>
      <trkpt lat="44.17667" lon="3.83884">
        <ele>301.03</ele>
        <time>2013-06-05T14:57:26Z</time>
      </trkpt>
      <trkpt lat="44.17666" lon="3.83887">
        <ele>301.51</ele>
        <time>2013-06-05T14:57:28Z</time>
      </trkpt>
      <trkpt lat="44.17665" lon="3.83893">
        <ele>301.99</ele>
        <time>2013-06-05T14:57:32Z</time>
      </trkpt>
      <trkpt lat="44.17649" lon="3.83914">
        <ele>302.95</ele>
        <time>2013-06-05T14:57:48Z</time>
      </trkpt>
      <trkpt lat="44.17648" lon="3.8392">
        <ele>302.95</ele>
        <time>2013-06-05T14:57:54Z</time>
      </trkpt>
      <trkpt lat="44.17646" lon="3.83925">
        <ele>302.95</ele>
        <time>2013-06-05T14:57:58Z</time>
      </trkpt>
      <trkpt lat="44.17645" lon="3.83929">
        <ele>302.95</ele>
        <time>2013-06-05T14:58:01Z</time>
      </trkpt>
      <trkpt lat="44.17639" lon="3.83944">
        <ele>303.91</ele>
        <time>2013-06-05T14:58:16Z</time>
      </trkpt>
      <trkpt lat="44.17638" lon="3.83946">
        <ele>303.91</ele>
        <time>2013-06-05T14:58:18Z</time>
      </trkpt>
      <trkpt lat="44.17635" lon="3.83964">
        <ele>303.91</ele>
        <time>2013-06-05T14:58:25Z</time>
      </trkpt>
      <trkpt lat="44.17624" lon="3.83996">
        <ele>304.39</ele>
        <time>2013-06-05T14:58:39Z</time>
      </trkpt>
      <trkpt lat="44.17623" lon="3.84001">
        <ele>304.88</ele>
        <time>2013-06-05T14:58:42Z</time>
      </trkpt>
      <trkpt lat="44.17612" lon="3.8402">
        <ele>306.8</ele>
        <time>2013-06-05T14:58:54Z</time>
      </trkpt>
      <trkpt lat="44.17598" lon="3.84043">
        <ele>308.24</ele>
        <time>2013-06-05T14:59:08Z</time>
      </trkpt>
      <trkpt lat="44.17594" lon="3.84069">
        <ele>310.64</ele>
        <time>2013-06-05T14:59:23Z</time>
      </trkpt>
      <trkpt lat="44.17594" lon="3.84072">
        <ele>311.12</ele>
        <time>2013-06-05T14:59:24Z</time>
      </trkpt>
      <trkpt lat="44.17583" lon="3.84097">
        <ele>312.57</ele>
        <time>2013-06-05T14:59:39Z</time>
      </trkpt>
      <trkpt lat="44.17576" lon="3.8412">
        <ele>313.53</ele>
        <time>2013-06-05T14:59:54Z</time>
      </trkpt>
      <trkpt lat="44.1757" lon="3.84151">
        <ele>315.45</ele>
        <time>2013-06-05T15:00:09Z</time>
      </trkpt>
      <trkpt lat="44.17569" lon="3.84155">
        <ele>315.93</ele>
        <time>2013-06-05T15:00:11Z</time>
      </trkpt>
      <trkpt lat="44.1757" lon="3.84161">
        <ele>315.93</ele>
        <time>2013-06-05T15:00:14Z</time>
      </trkpt>
      <trkpt lat="44.17569" lon="3.84171">
        <ele>316.41</ele>
        <time>2013-06-05T15:00:20Z</time>
      </trkpt>
      <trkpt lat="44.17561" lon="3.8419">
        <ele>318.33</ele>
        <time>2013-06-05T15:00:33Z</time>
      </trkpt>
      <trkpt lat="44.17552" lon="3.84218">
        <ele>320.74</ele>
        <time>2013-06-05T15:00:48Z</time>
      </trkpt>
      <trkpt lat="44.17552" lon="3.8422">
        <ele>320.74</ele>
        <time>2013-06-05T15:00:49Z</time>
      </trkpt>
      <trkpt lat="44.17538" lon="3.84239">
        <ele>321.22</ele>
        <time>2013-06-05T15:01:02Z</time>
      </trkpt>
      <trkpt lat="44.17537" lon="3.84241">
        <ele>321.22</ele>
        <time>2013-06-05T15:01:03Z</time>
      </trkpt>
      <trkpt lat="44.17518" lon="3.84267">
        <ele>322.18</ele>
        <time>2013-06-05T15:01:21Z</time>
      </trkpt>
      <trkpt lat="44.1751" lon="3.84271">
        <ele>322.18</ele>
        <time>2013-06-05T15:01:28Z</time>
      </trkpt>
      <trkpt lat="44.17487" lon="3.84272">
        <ele>322.66</ele>
        <time>2013-06-05T15:01:44Z</time>
      </trkpt>
      <trkpt lat="44.17484" lon="3.84272">
        <ele>321.22</ele>
        <time>2013-06-05T15:01:46Z</time>
      </trkpt>
      <trkpt lat="44.17478" lon="3.84271">
        <ele>320.74</ele>
        <time>2013-06-05T15:01:51Z</time>
      </trkpt>
      <trkpt lat="44.17457" lon="3.8427">
        <ele>317.85</ele>
        <time>2013-06-05T15:02:06Z</time>
      </trkpt>
      <trkpt lat="44.17433" lon="3.84263">
        <ele>315.45</ele>
        <time>2013-06-05T15:02:20Z</time>
      </trkpt>
      <trkpt lat="44.17416" lon="3.84252">
        <ele>313.53</ele>
        <time>2013-06-05T15:02:32Z</time>
      </trkpt>
      <trkpt lat="44.17395" lon="3.84239">
        <ele>311.6</ele>
        <time>2013-06-05T15:02:43Z</time>
      </trkpt>
      <trkpt lat="44.17377" lon="3.84237">
        <ele>310.16</ele>
        <time>2013-06-05T15:02:54Z</time>
      </trkpt>
      <trkpt lat="44.17366" lon="3.84229">
        <ele>307.76</ele>
        <time>2013-06-05T15:03:09Z</time>
      </trkpt>
      <trkpt lat="44.17351" lon="3.84219">
        <ele>305.84</ele>
        <time>2013-06-05T15:03:21Z</time>
      </trkpt>
      <trkpt lat="44.17325" lon="3.84213">
        <ele>304.39</ele>
        <time>2013-06-05T15:03:35Z</time>
      </trkpt>
      <trkpt lat="44.17324" lon="3.84212">
        <ele>304.39</ele>
        <time>2013-06-05T15:03:36Z</time>
      </trkpt>
      <trkpt lat="44.17305" lon="3.84217">
        <ele>303.43</ele>
        <time>2013-06-05T15:03:49Z</time>
      </trkpt>
      <trkpt lat="44.17296" lon="3.84218">
        <ele>304.39</ele>
        <time>2013-06-05T15:03:55Z</time>
      </trkpt>
      <trkpt lat="44.17294" lon="3.84219">
        <ele>304.39</ele>
        <time>2013-06-05T15:03:56Z</time>
      </trkpt>
      <trkpt lat="44.17295" lon="3.8422">
        <ele>304.88</ele>
        <time>2013-06-05T15:04:00Z</time>
      </trkpt>
      <trkpt lat="44.17273" lon="3.84214">
        <ele>304.88</ele>
        <time>2013-06-05T15:04:17Z</time>
      </trkpt>
      <trkpt lat="44.1727" lon="3.84209">
        <ele>303.43</ele>
        <time>2013-06-05T15:04:20Z</time>
      </trkpt>
      <trkpt lat="44.17256" lon="3.84191">
        <ele>301.51</ele>
        <time>2013-06-05T15:04:35Z</time>
      </trkpt>
      <trkpt lat="44.17249" lon="3.84181">
        <ele>301.03</ele>
        <time>2013-06-05T15:04:42Z</time>
      </trkpt>
      <trkpt lat="44.17238" lon="3.84164">
        <ele>300.07</ele>
        <time>2013-06-05T15:04:54Z</time>
      </trkpt>
      <trkpt lat="44.17227" lon="3.84147">
        <ele>298.15</ele>
        <time>2013-06-05T15:05:06Z</time>
      </trkpt>
      <trkpt lat="44.17211" lon="3.84136">
        <ele>294.3</ele>
        <time>2013-06-05T15:05:19Z</time>
      </trkpt>
      <trkpt lat="44.17208" lon="3.84133">
        <ele>293.82</ele>
        <time>2013-06-05T15:05:22Z</time>
      </trkpt>
      <trkpt lat="44.17205" lon="3.8413">
        <ele>292.86</ele>
        <time>2013-06-05T15:05:25Z</time>
      </trkpt>
      <trkpt lat="44.17202" lon="3.84122">
        <ele>292.38</ele>
        <time>2013-06-05T15:05:30Z</time>
      </trkpt>
      <trkpt lat="44.17214" lon="3.84104">
        <ele>289.49</ele>
        <time>2013-06-05T15:05:46Z</time>
      </trkpt>
      <trkpt lat="44.17226" lon="3.84094">
        <ele>286.13</ele>
        <time>2013-06-05T15:05:58Z</time>
      </trkpt>
      <trkpt lat="44.17229" lon="3.84089">
        <ele>286.13</ele>
        <time>2013-06-05T15:06:02Z</time>
      </trkpt>
      <trkpt lat="44.17222" lon="3.84062">
        <ele>282.77</ele>
        <time>2013-06-05T15:06:19Z</time>
      </trkpt>
      <trkpt lat="44.1722" lon="3.84057">
        <ele>281.8</ele>
        <time>2013-06-05T15:06:22Z</time>
      </trkpt>
      <trkpt lat="44.17209" lon="3.84042">
        <ele>280.36</ele>
        <time>2013-06-05T15:06:33Z</time>
      </trkpt>
      <trkpt lat="44.17196" lon="3.84027">
        <ele>277.96</ele>
        <time>2013-06-05T15:06:45Z</time>
      </trkpt>
      <trkpt lat="44.1719" lon="3.84018">
        <ele>277</ele>
        <time>2013-06-05T15:06:51Z</time>
      </trkpt>
      <trkpt lat="44.1717" lon="3.83997">
        <ele>274.11</ele>
        <time>2013-06-05T15:07:09Z</time>
      </trkpt>
      <trkpt lat="44.17155" lon="3.83973">
        <ele>271.23</ele>
        <time>2013-06-05T15:07:26Z</time>
      </trkpt>
      <trkpt lat="44.17155" lon="3.83972">
        <ele>271.23</ele>
        <time>2013-06-05T15:07:27Z</time>
      </trkpt>
      <trkpt lat="44.17148" lon="3.83964">
        <ele>270.75</ele>
        <time>2013-06-05T15:07:42Z</time>
      </trkpt>
      <trkpt lat="44.17148" lon="3.83964">
        <ele>270.75</ele>
        <time>2013-06-05T15:07:43Z</time>
      </trkpt>
      <trkpt lat="44.17138" lon="3.83942">
        <ele>270.75</ele>
        <time>2013-06-05T15:07:59Z</time>
      </trkpt>
      <trkpt lat="44.17123" lon="3.83917">
        <ele>270.27</ele>
        <time>2013-06-05T15:08:16Z</time>
      </trkpt>
      <trkpt lat="44.17109" lon="3.83905">
        <ele>269.79</ele>
        <time>2013-06-05T15:08:30Z</time>
      </trkpt>
      <trkpt lat="44.17095" lon="3.83897">
        <ele>269.79</ele>
        <time>2013-06-05T15:08:42Z</time>
      </trkpt>
      <trkpt lat="44.17075" lon="3.83894">
        <ele>268.83</ele>
        <time>2013-06-05T15:08:57Z</time>
      </trkpt>
      <trkpt lat="44.17058" lon="3.83892">
        <ele>268.35</ele>
        <time>2013-06-05T15:09:10Z</time>
      </trkpt>
      <trkpt lat="44.17039" lon="3.83893">
        <ele>267.86</ele>
        <time>2013-06-05T15:09:26Z</time>
      </trkpt>
      <trkpt lat="44.17022" lon="3.83902">
        <ele>267.38</ele>
        <time>2013-06-05T15:09:39Z</time>
      </trkpt>
      <trkpt lat="44.17006" lon="3.83922">
        <ele>266.9</ele>
        <time>2013-06-05T15:09:56Z</time>
      </trkpt>
      <trkpt lat="44.16985" lon="3.83937">
        <ele>266.9</ele>
        <time>2013-06-05T15:10:11Z</time>
      </trkpt>
      <trkpt lat="44.16967" lon="3.83946">
        <ele>266.9</ele>
        <time>2013-06-05T15:10:25Z</time>
      </trkpt>
      <trkpt lat="44.16943" lon="3.83965">
        <ele>268.35</ele>
        <time>2013-06-05T15:10:45Z</time>
      </trkpt>
      <trkpt lat="44.1692" lon="3.83991">
        <ele>269.31</ele>
        <time>2013-06-05T15:11:07Z</time>
      </trkpt>
      <trkpt lat="44.16907" lon="3.8402">
        <ele>270.27</ele>
        <time>2013-06-05T15:11:26Z</time>
      </trkpt>
      <trkpt lat="44.16889" lon="3.84051">
        <ele>270.27</ele>
        <time>2013-06-05T15:11:47Z</time>
      </trkpt>
      <trkpt lat="44.16868" lon="3.8408">
        <ele>271.23</ele>
        <time>2013-06-05T15:12:08Z</time>
      </trkpt>
      <trkpt lat="44.16851" lon="3.84103">
        <ele>271.71</ele>
        <time>2013-06-05T15:12:26Z</time>
      </trkpt>
      <trkpt lat="44.16835" lon="3.84126">
        <ele>273.63</ele>
        <time>2013-06-05T15:12:44Z</time>
      </trkpt>
      <trkpt lat="44.16831" lon="3.84133">
        <ele>273.63</ele>
        <time>2013-06-05T15:12:49Z</time>
      </trkpt>
      <trkpt lat="44.16824" lon="3.84144">
        <ele>274.59</ele>
        <time>2013-06-05T15:12:58Z</time>
      </trkpt>
      <trkpt lat="44.16817" lon="3.84163">
        <ele>276.04</ele>
        <time>2013-06-05T15:13:16Z</time>
      </trkpt>
      <trkpt lat="44.16808" lon="3.84182">
        <ele>277.96</ele>
        <time>2013-06-05T15:13:33Z</time>
      </trkpt>
      <trkpt lat="44.16793" lon="3.8419">
        <ele>278.44</ele>
        <time>2013-06-05T15:13:49Z</time>
      </trkpt>
      <trkpt lat="44.16791" lon="3.8419">
        <ele>278.44</ele>
        <time>2013-06-05T15:13:52Z</time>
      </trkpt>
      <trkpt lat="44.16782" lon="3.84204">
        <ele>278.92</ele>
        <time>2013-06-05T15:14:01Z</time>
      </trkpt>
      <trkpt lat="44.16779" lon="3.84207">
        <ele>277.48</ele>
        <time>2013-06-05T15:14:03Z</time>
      </trkpt>
      <trkpt lat="44.16761" lon="3.8421">
        <ele>277.48</ele>
        <time>2013-06-05T15:14:17Z</time>
      </trkpt>
      <trkpt lat="44.16737" lon="3.84236">
        <ele>276.04</ele>
        <time>2013-06-05T15:14:36Z</time>
      </trkpt>
      <trkpt lat="44.16731" lon="3.84232">
        <ele>276.04</ele>
        <time>2013-06-05T15:14:44Z</time>
      </trkpt>
      <trkpt lat="44.16729" lon="3.84233">
        <ele>275.56</ele>
        <time>2013-06-05T15:14:47Z</time>
      </trkpt>
      <trkpt lat="44.1671" lon="3.84228">
        <ele>275.07</ele>
        <time>2013-06-05T15:15:02Z</time>
      </trkpt>
      <trkpt lat="44.16691" lon="3.84228">
        <ele>274.59</ele>
        <time>2013-06-05T15:15:17Z</time>
      </trkpt>
      <trkpt lat="44.16671" lon="3.84227">
        <ele>274.11</ele>
        <time>2013-06-05T15:15:33Z</time>
      </trkpt>
      <trkpt lat="44.16666" lon="3.84224">
        <ele>273.63</ele>
        <time>2013-06-05T15:15:38Z</time>
      </trkpt>
      <trkpt lat="44.16647" lon="3.84226">
        <ele>274.11</ele>
        <time>2013-06-05T15:15:54Z</time>
      </trkpt>
      <trkpt lat="44.16643" lon="3.84226">
        <ele>273.63</ele>
        <time>2013-06-05T15:15:57Z</time>
      </trkpt>
      <trkpt lat="44.16633" lon="3.84225">
        <ele>273.63</ele>
        <time>2013-06-05T15:16:05Z</time>
      </trkpt>
      <trkpt lat="44.16628" lon="3.84231">
        <ele>272.67</ele>
        <time>2013-06-05T15:16:19Z</time>
      </trkpt>
      <trkpt lat="44.1662" lon="3.84228">
        <ele>272.67</ele>
        <time>2013-06-05T15:16:38Z</time>
      </trkpt>
      <trkpt lat="44.16598" lon="3.84222">
        <ele>272.19</ele>
        <time>2013-06-05T15:16:54Z</time>
      </trkpt>
      <trkpt lat="44.16577" lon="3.84222">
        <ele>271.71</ele>
        <time>2013-06-05T15:17:08Z</time>
      </trkpt>
      <trkpt lat="44.16562" lon="3.8422">
        <ele>271.23</ele>
        <time>2013-06-05T15:17:20Z</time>
      </trkpt>
      <trkpt lat="44.16549" lon="3.84222">
        <ele>270.75</ele>
        <time>2013-06-05T15:17:35Z</time>
      </trkpt>
      <trkpt lat="44.16552" lon="3.84223">
        <ele>270.75</ele>
        <time>2013-06-05T15:17:42Z</time>
      </trkpt>
      <trkpt lat="44.16556" lon="3.84224">
        <ele>270.75</ele>
        <time>2013-06-05T15:17:55Z</time>
      </trkpt>
      <trkpt lat="44.16557" lon="3.84219">
        <ele>270.75</ele>
        <time>2013-06-05T15:18:12Z</time>
      </trkpt>
      <trkpt lat="44.16555" lon="3.84213">
        <ele>270.27</ele>
        <time>2013-06-05T15:18:27Z</time>
      </trkpt>
      <trkpt lat="44.16553" lon="3.84214">
        <ele>270.27</ele>
        <time>2013-06-05T15:18:45Z</time>
      </trkpt>
      <trkpt lat="44.16557" lon="3.84226">
        <ele>270.27</ele>
        <time>2013-06-05T15:19:04Z</time>
      </trkpt>
      <trkpt lat="44.16541" lon="3.84227">
        <ele>270.27</ele>
        <time>2013-06-05T15:19:28Z</time>
      </trkpt>
      <trkpt lat="44.16549" lon="3.84232">
        <ele>269.79</ele>
        <time>2013-06-05T15:19:47Z</time>
      </trkpt>
      <trkpt lat="44.1655" lon="3.84232">
        <ele>269.79</ele>
        <time>2013-06-05T15:19:52Z</time>
      </trkpt>
      <trkpt lat="44.16556" lon="3.84215">
        <ele>270.75</ele>
        <time>2013-06-05T15:20:25Z</time>
      </trkpt>
      <trkpt lat="44.1655" lon="3.84204">
        <ele>269.31</ele>
        <time>2013-06-05T15:20:49Z</time>
      </trkpt>
      <trkpt lat="44.16548" lon="3.8422">
        <ele>269.31</ele>
        <time>2013-06-05T15:21:11Z</time>
      </trkpt>
      <trkpt lat="44.16555" lon="3.84221">
        <ele>269.31</ele>
        <time>2013-06-05T15:21:33Z</time>
      </trkpt>
      <trkpt lat="44.16559" lon="3.84231">
        <ele>269.31</ele>
        <time>2013-06-05T15:21:53Z</time>
      </trkpt>
      <trkpt lat="44.16568" lon="3.84245">
        <ele>269.31</ele>
        <time>2013-06-05T15:22:19Z</time>
      </trkpt>
      <trkpt lat="44.16563" lon="3.84247">
        <ele>269.31</ele>
        <time>2013-06-05T15:22:27Z</time>
      </trkpt>
      <trkpt lat="44.16555" lon="3.84231">
        <ele>269.31</ele>
        <time>2013-06-05T15:22:46Z</time>
      </trkpt>
      <trkpt lat="44.16559" lon="3.84232">
        <ele>269.31</ele>
        <time>2013-06-05T15:23:09Z</time>
      </trkpt>
      <trkpt lat="44.16571" lon="3.84224">
        <ele>269.31</ele>
        <time>2013-06-05T15:23:33Z</time>
      </trkpt>
      <trkpt lat="44.16553" lon="3.84236">
        <ele>269.31</ele>
        <time>2013-06-05T15:23:58Z</time>
      </trkpt>
      <trkpt lat="44.16549" lon="3.84234">
        <ele>268.35</ele>
        <time>2013-06-05T15:24:25Z</time>
      </trkpt>
      <trkpt lat="44.16551" lon="3.84238">
        <ele>269.79</ele>
        <time>2013-06-05T15:24:44Z</time>
      </trkpt>
      <trkpt lat="44.16554" lon="3.8423">
        <ele>269.79</ele>
        <time>2013-06-05T15:25:06Z</time>
      </trkpt>
      <trkpt lat="44.16552" lon="3.84219">
        <ele>269.79</ele>
        <time>2013-06-05T15:25:24Z</time>
      </trkpt>
      <trkpt lat="44.16542" lon="3.84239">
        <ele>269.31</ele>
        <time>2013-06-05T15:25:49Z</time>
      </trkpt>
      <trkpt lat="44.16556" lon="3.84228">
        <ele>269.31</ele>
        <time>2013-06-05T15:26:15Z</time>
      </trkpt>
      <trkpt lat="44.16557" lon="3.84209">
        <ele>269.31</ele>
        <time>2013-06-05T15:26:42Z</time>
      </trkpt>
      <trkpt lat="44.16557" lon="3.84204">
        <ele>267.86</ele>
        <time>2013-06-05T15:26:45Z</time>
      </trkpt>
      <trkpt lat="44.16558" lon="3.84203">
        <ele>269.31</ele>
        <time>2013-06-05T15:26:47Z</time>
      </trkpt>
      <trkpt lat="44.1656" lon="3.84208">
        <ele>265.46</ele>
        <time>2013-06-05T15:26:57Z</time>
      </trkpt>
      <trkpt lat="44.1656" lon="3.84209">
        <ele>265.46</ele>
        <time>2013-06-05T15:26:58Z</time>
      </trkpt>
      <trkpt lat="44.16559" lon="3.84209">
        <ele>272.67</ele>
        <time>2013-06-05T15:26:59Z</time>
      </trkpt>
      <trkpt lat="44.16558" lon="3.8421">
        <ele>268.35</ele>
        <time>2013-06-05T15:27:00Z</time>
      </trkpt>
      <trkpt lat="44.16569" lon="3.84212">
        <ele>268.35</ele>
        <time>2013-06-05T15:27:27Z</time>
      </trkpt>
      <trkpt lat="44.1657" lon="3.84211">
        <ele>271.23</ele>
        <time>2013-06-05T15:27:41Z</time>
      </trkpt>
      <trkpt lat="44.16569" lon="3.84211">
        <ele>271.23</ele>
        <time>2013-06-05T15:27:42Z</time>
      </trkpt>
      <trkpt lat="44.16569" lon="3.8421">
        <ele>267.86</ele>
        <time>2013-06-05T15:27:44Z</time>
      </trkpt>
      <trkpt lat="44.1656" lon="3.84207">
        <ele>268.83</ele>
        <time>2013-06-05T15:27:53Z</time>
      </trkpt>
      <trkpt lat="44.16542" lon="3.84217">
        <ele>267.86</ele>
        <time>2013-06-05T15:28:06Z</time>
      </trkpt>
      <trkpt lat="44.16523" lon="3.84216">
        <ele>266.9</ele>
        <time>2013-06-05T15:28:21Z</time>
      </trkpt>
      <trkpt lat="44.16506" lon="3.84213">
        <ele>266.42</ele>
        <time>2013-06-05T15:28:35Z</time>
      </trkpt>
      <trkpt lat="44.16492" lon="3.84213">
        <ele>265.94</ele>
        <time>2013-06-05T15:28:45Z</time>
      </trkpt>
      <trkpt lat="44.1649" lon="3.84213">
        <ele>265.46</ele>
        <time>2013-06-05T15:28:47Z</time>
      </trkpt>
      <trkpt lat="44.16472" lon="3.8421">
        <ele>265.46</ele>
        <time>2013-06-05T15:29:01Z</time>
      </trkpt>
      <trkpt lat="44.16454" lon="3.84209">
        <ele>264.98</ele>
        <time>2013-06-05T15:29:14Z</time>
      </trkpt>
      <trkpt lat="44.16447" lon="3.84207">
        <ele>264.98</ele>
        <time>2013-06-05T15:29:19Z</time>
      </trkpt>
      <trkpt lat="44.16424" lon="3.84207">
        <ele>263.54</ele>
        <time>2013-06-05T15:29:35Z</time>
      </trkpt>
      <trkpt lat="44.16417" lon="3.84206">
        <ele>263.54</ele>
        <time>2013-06-05T15:29:40Z</time>
      </trkpt>
      <trkpt lat="44.16397" lon="3.84206">
        <ele>263.06</ele>
        <time>2013-06-05T15:29:54Z</time>
      </trkpt>
      <trkpt lat="44.16383" lon="3.84204">
        <ele>262.58</ele>
        <time>2013-06-05T15:30:05Z</time>
      </trkpt>
      <trkpt lat="44.16362" lon="3.84202">
        <ele>262.58</ele>
        <time>2013-06-05T15:30:19Z</time>
      </trkpt>
      <trkpt lat="44.16354" lon="3.842">
        <ele>262.58</ele>
        <time>2013-06-05T15:30:25Z</time>
      </trkpt>
      <trkpt lat="44.16342" lon="3.84199">
        <ele>263.54</ele>
        <time>2013-06-05T15:30:36Z</time>
      </trkpt>
      <trkpt lat="44.16326" lon="3.84204">
        <ele>264.98</ele>
        <time>2013-06-05T15:30:48Z</time>
      </trkpt>
      <trkpt lat="44.16321" lon="3.84215">
        <ele>265.94</ele>
        <time>2013-06-05T15:31:00Z</time>
      </trkpt>
      <trkpt lat="44.16319" lon="3.84219">
        <ele>265.94</ele>
        <time>2013-06-05T15:31:03Z</time>
      </trkpt>
      <trkpt lat="44.16317" lon="3.84228">
        <ele>266.9</ele>
        <time>2013-06-05T15:31:19Z</time>
      </trkpt>
      <trkpt lat="44.16315" lon="3.84225">
        <ele>266.9</ele>
        <time>2013-06-05T15:31:28Z</time>
      </trkpt>
      <trkpt lat="44.16323" lon="3.84198">
        <ele>264.98</ele>
        <time>2013-06-05T15:31:45Z</time>
      </trkpt>
      <trkpt lat="44.16325" lon="3.84181">
        <ele>264.5</ele>
        <time>2013-06-05T15:31:57Z</time>
      </trkpt>
      <trkpt lat="44.16327" lon="3.84157">
        <ele>264.02</ele>
        <time>2013-06-05T15:32:09Z</time>
      </trkpt>
      <trkpt lat="44.16326" lon="3.84126">
        <ele>264.02</ele>
        <time>2013-06-05T15:32:25Z</time>
      </trkpt>
      <trkpt lat="44.16318" lon="3.84122">
        <ele>265.94</ele>
        <time>2013-06-05T15:32:37Z</time>
      </trkpt>
      <trkpt lat="44.1632" lon="3.84131">
        <ele>267.38</ele>
        <time>2013-06-05T15:32:42Z</time>
      </trkpt>
      <trkpt lat="44.16314" lon="3.84154">
        <ele>270.27</ele>
        <time>2013-06-05T15:32:57Z</time>
      </trkpt>
      <trkpt lat="44.16307" lon="3.84175">
        <ele>273.15</ele>
        <time>2013-06-05T15:33:12Z</time>
      </trkpt>
      <trkpt lat="44.163" lon="3.84189">
        <ele>275.07</ele>
        <time>2013-06-05T15:33:22Z</time>
      </trkpt>
      <trkpt lat="44.16294" lon="3.8421">
        <ele>278.44</ele>
        <time>2013-06-05T15:33:38Z</time>
      </trkpt>
      <trkpt lat="44.16293" lon="3.84214">
        <ele>278.44</ele>
        <time>2013-06-05T15:33:41Z</time>
      </trkpt>
      <trkpt lat="44.16279" lon="3.84225">
        <ele>280.84</ele>
        <time>2013-06-05T15:33:55Z</time>
      </trkpt>
      <trkpt lat="44.16285" lon="3.84191">
        <ele>283.25</ele>
        <time>2013-06-05T15:34:12Z</time>
      </trkpt>
      <trkpt lat="44.1628" lon="3.84163">
        <ele>285.17</ele>
        <time>2013-06-05T15:34:27Z</time>
      </trkpt>
      <trkpt lat="44.16278" lon="3.84152">
        <ele>285.17</ele>
        <time>2013-06-05T15:34:35Z</time>
      </trkpt>
      <trkpt lat="44.16277" lon="3.84149">
        <ele>285.17</ele>
        <time>2013-06-05T15:34:37Z</time>
      </trkpt>
      <trkpt lat="44.16271" lon="3.84119">
        <ele>285.65</ele>
        <time>2013-06-05T15:34:51Z</time>
      </trkpt>
      <trkpt lat="44.16269" lon="3.84114">
        <ele>285.65</ele>
        <time>2013-06-05T15:34:53Z</time>
      </trkpt>
      <trkpt lat="44.16262" lon="3.84105">
        <ele>286.13</ele>
        <time>2013-06-05T15:35:00Z</time>
      </trkpt>
      <trkpt lat="44.1625" lon="3.84097">
        <ele>289.49</ele>
        <time>2013-06-05T15:35:13Z</time>
      </trkpt>
      <trkpt lat="44.16235" lon="3.84098">
        <ele>292.86</ele>
        <time>2013-06-05T15:35:27Z</time>
      </trkpt>
      <trkpt lat="44.16226" lon="3.84102">
        <ele>294.3</ele>
        <time>2013-06-05T15:35:37Z</time>
      </trkpt>
      <trkpt lat="44.16207" lon="3.84104">
        <ele>297.18</ele>
        <time>2013-06-05T15:35:54Z</time>
      </trkpt>
      <trkpt lat="44.16188" lon="3.84107">
        <ele>299.59</ele>
        <time>2013-06-05T15:36:08Z</time>
      </trkpt>
      <trkpt lat="44.1618" lon="3.8411">
        <ele>300.07</ele>
        <time>2013-06-05T15:36:15Z</time>
      </trkpt>
      <trkpt lat="44.16162" lon="3.8411">
        <ele>300.07</ele>
        <time>2013-06-05T15:36:28Z</time>
      </trkpt>
      <trkpt lat="44.16143" lon="3.84112">
        <ele>297.18</ele>
        <time>2013-06-05T15:36:45Z</time>
      </trkpt>
      <trkpt lat="44.16118" lon="3.84113">
        <ele>294.78</ele>
        <time>2013-06-05T15:37:02Z</time>
      </trkpt>
      <trkpt lat="44.16098" lon="3.84116">
        <ele>292.86</ele>
        <time>2013-06-05T15:37:16Z</time>
      </trkpt>
      <trkpt lat="44.16074" lon="3.84115">
        <ele>290.46</ele>
        <time>2013-06-05T15:37:31Z</time>
      </trkpt>
      <trkpt lat="44.16055" lon="3.8412">
        <ele>288.53</ele>
        <time>2013-06-05T15:37:44Z</time>
      </trkpt>
      <trkpt lat="44.16039" lon="3.84121">
        <ele>287.09</ele>
        <time>2013-06-05T15:37:54Z</time>
      </trkpt>
      <trkpt lat="44.16023" lon="3.84131">
        <ele>286.13</ele>
        <time>2013-06-05T15:38:06Z</time>
      </trkpt>
      <trkpt lat="44.16008" lon="3.84143">
        <ele>283.25</ele>
        <time>2013-06-05T15:38:20Z</time>
      </trkpt>
      <trkpt lat="44.16001" lon="3.84152">
        <ele>279.88</ele>
        <time>2013-06-05T15:38:34Z</time>
      </trkpt>
      <trkpt lat="44.15997" lon="3.8416">
        <ele>277.96</ele>
        <time>2013-06-05T15:38:42Z</time>
      </trkpt>
      <trkpt lat="44.15993" lon="3.84164">
        <ele>277.48</ele>
        <time>2013-06-05T15:38:45Z</time>
      </trkpt>
      <trkpt lat="44.15967" lon="3.84179">
        <ele>274.59</ele>
        <time>2013-06-05T15:38:58Z</time>
      </trkpt>
      <trkpt lat="44.15959" lon="3.84203">
        <ele>272.67</ele>
        <time>2013-06-05T15:39:12Z</time>
      </trkpt>
      <trkpt lat="44.15956" lon="3.8421">
        <ele>269.31</ele>
        <time>2013-06-05T15:39:27Z</time>
      </trkpt>
      <trkpt lat="44.15958" lon="3.8419">
        <ele>266.9</ele>
        <time>2013-06-05T15:39:40Z</time>
      </trkpt>
      <trkpt lat="44.15953" lon="3.84169">
        <ele>264.5</ele>
        <time>2013-06-05T15:39:54Z</time>
      </trkpt>
      <trkpt lat="44.15952" lon="3.84166">
        <ele>264.02</ele>
        <time>2013-06-05T15:39:56Z</time>
      </trkpt>
      <trkpt lat="44.15937" lon="3.84143">
        <ele>261.14</ele>
        <time>2013-06-05T15:40:12Z</time>
      </trkpt>
      <trkpt lat="44.15922" lon="3.84121">
        <ele>259.21</ele>
        <time>2013-06-05T15:40:27Z</time>
      </trkpt>
      <trkpt lat="44.15902" lon="3.84117">
        <ele>255.85</ele>
        <time>2013-06-05T15:40:44Z</time>
      </trkpt>
      <trkpt lat="44.15901" lon="3.8413">
        <ele>253.93</ele>
        <time>2013-06-05T15:40:53Z</time>
      </trkpt>
      <trkpt lat="44.15899" lon="3.84138">
        <ele>252.48</ele>
        <time>2013-06-05T15:40:58Z</time>
      </trkpt>
      <trkpt lat="44.1589" lon="3.84125">
        <ele>252.48</ele>
        <time>2013-06-05T15:41:08Z</time>
      </trkpt>
      <trkpt lat="44.15886" lon="3.84095">
        <ele>252.48</ele>
        <time>2013-06-05T15:41:24Z</time>
      </trkpt>
      <trkpt lat="44.1589" lon="3.84072">
        <ele>253.93</ele>
        <time>2013-06-05T15:41:38Z</time>
      </trkpt>
      <trkpt lat="44.15888" lon="3.84074">
        <ele>254.41</ele>
        <time>2013-06-05T15:41:54Z</time>
      </trkpt>
      <trkpt lat="44.15886" lon="3.84077">
        <ele>254.41</ele>
        <time>2013-06-05T15:42:11Z</time>
      </trkpt>
      <trkpt lat="44.15883" lon="3.84094">
        <ele>254.41</ele>
        <time>2013-06-05T15:42:21Z</time>
      </trkpt>
      <trkpt lat="44.15887" lon="3.84123">
        <ele>252.48</ele>
        <time>2013-06-05T15:42:38Z</time>
      </trkpt>
      <trkpt lat="44.15896" lon="3.84139">
        <ele>251.52</ele>
        <time>2013-06-05T15:42:51Z</time>
      </trkpt>
      <trkpt lat="44.15898" lon="3.84145">
        <ele>251.04</ele>
        <time>2013-06-05T15:42:54Z</time>
      </trkpt>
      <trkpt lat="44.15896" lon="3.8415">
        <ele>251.04</ele>
        <time>2013-06-05T15:43:00Z</time>
      </trkpt>
      <trkpt lat="44.15892" lon="3.84141">
        <ele>251.04</ele>
        <time>2013-06-05T15:43:09Z</time>
      </trkpt>
      <trkpt lat="44.15888" lon="3.84135">
        <ele>252</ele>
        <time>2013-06-05T15:43:15Z</time>
      </trkpt>
      <trkpt lat="44.1588" lon="3.84115">
        <ele>252.48</ele>
        <time>2013-06-05T15:43:26Z</time>
      </trkpt>
      <trkpt lat="44.15883" lon="3.84089">
        <ele>252.96</ele>
        <time>2013-06-05T15:43:41Z</time>
      </trkpt>
      <trkpt lat="44.15885" lon="3.84082">
        <ele>252.96</ele>
        <time>2013-06-05T15:43:46Z</time>
      </trkpt>
      <trkpt lat="44.15903" lon="3.84056">
        <ele>253.44</ele>
        <time>2013-06-05T15:44:02Z</time>
      </trkpt>
      <trkpt lat="44.1592" lon="3.84035">
        <ele>253.93</ele>
        <time>2013-06-05T15:44:18Z</time>
      </trkpt>
      <trkpt lat="44.15929" lon="3.84023">
        <ele>254.41</ele>
        <time>2013-06-05T15:44:32Z</time>
      </trkpt>
      <trkpt lat="44.15953" lon="3.83999">
        <ele>254.41</ele>
        <time>2013-06-05T15:44:48Z</time>
      </trkpt>
      <trkpt lat="44.15967" lon="3.83978">
        <ele>255.37</ele>
        <time>2013-06-05T15:45:04Z</time>
      </trkpt>
      <trkpt lat="44.15987" lon="3.83952">
        <ele>256.33</ele>
        <time>2013-06-05T15:45:22Z</time>
      </trkpt>
      <trkpt lat="44.15996" lon="3.83931">
        <ele>256.81</ele>
        <time>2013-06-05T15:45:37Z</time>
      </trkpt>
      <trkpt lat="44.16007" lon="3.83892">
        <ele>257.77</ele>
        <time>2013-06-05T15:45:58Z</time>
      </trkpt>
      <trkpt lat="44.16013" lon="3.83869">
        <ele>258.73</ele>
        <time>2013-06-05T15:46:12Z</time>
      </trkpt>
      <trkpt lat="44.16015" lon="3.8384">
        <ele>259.21</ele>
        <time>2013-06-05T15:46:27Z</time>
      </trkpt>
      <trkpt lat="44.1601" lon="3.83808">
        <ele>260.17</ele>
        <time>2013-06-05T15:46:44Z</time>
      </trkpt>
      <trkpt lat="44.16004" lon="3.8378">
        <ele>261.14</ele>
        <time>2013-06-05T15:46:59Z</time>
      </trkpt>
      <trkpt lat="44.15996" lon="3.83753">
        <ele>261.62</ele>
        <time>2013-06-05T15:47:14Z</time>
      </trkpt>
      <trkpt lat="44.15992" lon="3.83722">
        <ele>262.58</ele>
        <time>2013-06-05T15:47:31Z</time>
      </trkpt>
      <trkpt lat="44.15984" lon="3.83693">
        <ele>264.02</ele>
        <time>2013-06-05T15:47:46Z</time>
      </trkpt>
      <trkpt lat="44.15968" lon="3.83678">
        <ele>264.5</ele>
        <time>2013-06-05T15:48:00Z</time>
      </trkpt>
      <trkpt lat="44.1595" lon="3.83666">
        <ele>264.98</ele>
        <time>2013-06-05T15:48:16Z</time>
      </trkpt>
      <trkpt lat="44.15931" lon="3.83659">
        <ele>262.1</ele>
        <time>2013-06-05T15:48:30Z</time>
      </trkpt>
      <trkpt lat="44.15925" lon="3.8366">
        <ele>261.14</ele>
        <time>2013-06-05T15:48:35Z</time>
      </trkpt>
      <trkpt lat="44.15913" lon="3.83681">
        <ele>258.73</ele>
        <time>2013-06-05T15:48:53Z</time>
      </trkpt>
      <trkpt lat="44.15903" lon="3.83694">
        <ele>257.77</ele>
        <time>2013-06-05T15:49:02Z</time>
      </trkpt>
      <trkpt lat="44.15892" lon="3.83729">
        <ele>255.37</ele>
        <time>2013-06-05T15:49:18Z</time>
      </trkpt>
      <trkpt lat="44.15887" lon="3.83739">
        <ele>254.41</ele>
        <time>2013-06-05T15:49:36Z</time>
      </trkpt>
      <trkpt lat="44.15888" lon="3.83738">
        <ele>253.44</ele>
        <time>2013-06-05T15:49:52Z</time>
      </trkpt>
      <trkpt lat="44.15889" lon="3.83739">
        <ele>254.89</ele>
        <time>2013-06-05T15:49:58Z</time>
      </trkpt>
      <trkpt lat="44.15894" lon="3.8374">
        <ele>254.41</ele>
        <time>2013-06-05T15:50:15Z</time>
      </trkpt>
      <trkpt lat="44.15895" lon="3.83742">
        <ele>254.41</ele>
        <time>2013-06-05T15:50:18Z</time>
      </trkpt>
      <trkpt lat="44.15902" lon="3.83742">
        <ele>254.41</ele>
        <time>2013-06-05T15:50:26Z</time>
      </trkpt>
      <trkpt lat="44.15904" lon="3.83734">
        <ele>254.41</ele>
        <time>2013-06-05T15:50:38Z</time>
      </trkpt>
      <trkpt lat="44.15908" lon="3.83738">
        <ele>254.89</ele>
        <time>2013-06-05T15:50:51Z</time>
      </trkpt>
      <trkpt lat="44.15915" lon="3.83746">
        <ele>253.93</ele>
        <time>2013-06-05T15:51:03Z</time>
      </trkpt>
      <trkpt lat="44.15914" lon="3.83749">
        <ele>253.93</ele>
        <time>2013-06-05T15:51:14Z</time>
      </trkpt>
      <trkpt lat="44.15923" lon="3.83759">
        <ele>253.44</ele>
        <time>2013-06-05T15:51:29Z</time>
      </trkpt>
      <trkpt lat="44.15921" lon="3.83765">
        <ele>252.96</ele>
        <time>2013-06-05T15:51:40Z</time>
      </trkpt>
      <trkpt lat="44.15928" lon="3.83768">
        <ele>252.96</ele>
        <time>2013-06-05T15:51:51Z</time>
      </trkpt>
      <trkpt lat="44.15928" lon="3.83765">
        <ele>252.48</ele>
        <time>2013-06-05T15:52:04Z</time>
      </trkpt>
      <trkpt lat="44.15927" lon="3.83771">
        <ele>252.48</ele>
        <time>2013-06-05T15:52:22Z</time>
      </trkpt>
      <trkpt lat="44.15928" lon="3.83771">
        <ele>252.48</ele>
        <time>2013-06-05T15:52:28Z</time>
      </trkpt>
      <trkpt lat="44.15927" lon="3.8377">
        <ele>252</ele>
        <time>2013-06-05T15:52:39Z</time>
      </trkpt>
      <trkpt lat="44.15925" lon="3.83768">
        <ele>251.52</ele>
        <time>2013-06-05T15:53:25Z</time>
      </trkpt>
      <trkpt lat="44.15919" lon="3.83774">
        <ele>251.04</ele>
        <time>2013-06-05T15:54:01Z</time>
      </trkpt>
      <trkpt lat="44.15919" lon="3.83771">
        <ele>251.04</ele>
        <time>2013-06-05T15:54:34Z</time>
      </trkpt>
      <trkpt lat="44.15922" lon="3.83769">
        <ele>250.56</ele>
        <time>2013-06-05T15:55:14Z</time>
      </trkpt>
      <trkpt lat="44.15923" lon="3.83772">
        <ele>250.56</ele>
        <time>2013-06-05T15:55:51Z</time>
      </trkpt>
      <trkpt lat="44.15929" lon="3.83766">
        <ele>250.56</ele>
        <time>2013-06-05T15:56:31Z</time>
      </trkpt>
      <trkpt lat="44.15933" lon="3.8377">
        <ele>250.56</ele>
        <time>2013-06-05T15:57:18Z</time>
      </trkpt>
      <trkpt lat="44.15933" lon="3.83762">
        <ele>250.08</ele>
        <time>2013-06-05T15:57:57Z</time>
      </trkpt>
      <trkpt lat="44.15926" lon="3.83772">
        <ele>250.08</ele>
        <time>2013-06-05T15:58:41Z</time>
      </trkpt>
      <trkpt lat="44.15924" lon="3.83767">
        <ele>249.6</ele>
        <time>2013-06-05T15:59:23Z</time>
      </trkpt>
      <trkpt lat="44.15924" lon="3.83768">
        <ele>249.6</ele>
        <time>2013-06-05T16:00:02Z</time>
      </trkpt>
      <trkpt lat="44.1592" lon="3.83773">
        <ele>249.6</ele>
        <time>2013-06-05T16:00:43Z</time>
      </trkpt>
      <trkpt lat="44.15922" lon="3.83771">
        <ele>249.6</ele>
        <time>2013-06-05T16:01:20Z</time>
      </trkpt>
      <trkpt lat="44.15922" lon="3.83772">
        <ele>249.12</ele>
        <time>2013-06-05T16:01:57Z</time>
      </trkpt>
      <trkpt lat="44.15926" lon="3.83773">
        <ele>249.12</ele>
        <time>2013-06-05T16:02:27Z</time>
      </trkpt>
      <trkpt lat="44.15923" lon="3.83768">
        <ele>248.64</ele>
        <time>2013-06-05T16:03:08Z</time>
      </trkpt>
      <trkpt lat="44.15927" lon="3.83775">
        <ele>248.16</ele>
        <time>2013-06-05T16:03:47Z</time>
      </trkpt>
      <trkpt lat="44.15921" lon="3.83774">
        <ele>248.16</ele>
        <time>2013-06-05T16:04:28Z</time>
      </trkpt>
      <trkpt lat="44.15926" lon="3.83773">
        <ele>248.16</ele>
        <time>2013-06-05T16:05:06Z</time>
      </trkpt>
      <trkpt lat="44.1592" lon="3.83772">
        <ele>247.68</ele>
        <time>2013-06-05T16:05:45Z</time>
      </trkpt>
      <trkpt lat="44.15922" lon="3.83769">
        <ele>247.68</ele>
        <time>2013-06-05T16:06:19Z</time>
      </trkpt>
      <trkpt lat="44.15924" lon="3.83769">
        <ele>247.68</ele>
        <time>2013-06-05T16:06:50Z</time>
      </trkpt>
      <trkpt lat="44.15926" lon="3.83774">
        <ele>248.64</ele>
        <time>2013-06-05T16:07:29Z</time>
      </trkpt>
      <trkpt lat="44.15926" lon="3.83774">
        <ele>248.64</ele>
        <time>2013-06-05T16:07:30Z</time>
      </trkpt>
      <trkpt lat="44.15928" lon="3.83769">
        <ele>248.16</ele>
        <time>2013-06-05T16:07:49Z</time>
      </trkpt>
    </trkseg>
  </trk>
</gpx>